<?xml version="1.0"?>
<gpx xmlns="http://www.topografix.com/GPX/1/1" xmlns:xsi="http://www.w3.org/2001/XMLSchema-instance" xmlns:wptx1="http://www.garmin.com/xmlschemas/WaypointExtension/v1" xmlns:gpxtrx="http://www.garmin.com/xmlschemas/GpxExtensions/v3" xmlns:gpxtpx="http://www.garmin.com/xmlschemas/TrackPointExtension/v1" xmlns:gpxx="http://www.garmin.com/xmlschemas/GpxExtensions/v3" xmlns:trp="http://www.garmin.com/xmlschemas/TripExtensions/v1" xmlns:adv="http://www.garmin.com/xmlschemas/AdventuresExtensions/v1" xmlns:prs="http://www.garmin.com/xmlschemas/PressureExtension/v1" xmlns:tmd="http://www.garmin.com/xmlschemas/TripMetaDataExtensions/v1" xmlns:vptm="http://www.garmin.com/xmlschemas/ViaPointTransportationModeExtensions/v1" xmlns:ctx="http://www.garmin.com/xmlschemas/CreationTimeExtension/v1" xmlns:gpxacc="http://www.garmin.com/xmlschemas/AccelerationExtension/v1" xmlns:gpxpx="http://www.garmin.com/xmlschemas/PowerExtension/v1" xmlns:vidx1="http://www.garmin.com/xmlschemas/VideoExtension/v1" creator="Garmin Desktop App" version="1.1" xsi:schemaLocation="http://www.topografix.com/GPX/1/1 http://www.topografix.com/GPX/1/1/gpx.xsd http://www.garmin.com/xmlschemas/WaypointExtension/v1 http://www8.garmin.com/xmlschemas/WaypointExtensionv1.xsd http://www.garmin.com/xmlschemas/TrackPointExtension/v1 http://www.garmin.com/xmlschemas/TrackPointExtensionv1.xsd http://www.garmin.com/xmlschemas/GpxExtensions/v3 http://www8.garmin.com/xmlschemas/GpxExtensionsv3.xsd http://www.garmin.com/xmlschemas/ActivityExtension/v1 http://www8.garmin.com/xmlschemas/ActivityExtensionv1.xsd http://www.garmin.com/xmlschemas/AdventuresExtensions/v1 http://www8.garmin.com/xmlschemas/AdventuresExtensionv1.xsd http://www.garmin.com/xmlschemas/PressureExtension/v1 http://www.garmin.com/xmlschemas/PressureExtensionv1.xsd http://www.garmin.com/xmlschemas/TripExtensions/v1 http://www.garmin.com/xmlschemas/TripExtensionsv1.xsd http://www.garmin.com/xmlschemas/TripMetaDataExtensions/v1 http://www.garmin.com/xmlschemas/TripMetaDataExtensionsv1.xsd http://www.garmin.com/xmlschemas/ViaPointTransportationModeExtensions/v1 http://www.garmin.com/xmlschemas/ViaPointTransportationModeExtensionsv1.xsd http://www.garmin.com/xmlschemas/CreationTimeExtension/v1 http://www.garmin.com/xmlschemas/CreationTimeExtensionsv1.xsd http://www.garmin.com/xmlschemas/AccelerationExtension/v1 http://www.garmin.com/xmlschemas/AccelerationExtensionv1.xsd http://www.garmin.com/xmlschemas/PowerExtension/v1 http://www.garmin.com/xmlschemas/PowerExtensionv1.xsd http://www.garmin.com/xmlschemas/VideoExtension/v1 http://www.garmin.com/xmlschemas/VideoExtensionv1.xsd">

  <metadata>
    <link href="http://www.garmin.com">
      <text>Garmin International</text>
    </link>
    <time>2015-02-22T15:58:37Z</time>
    <bounds maxlat="47.521146889775991" maxlon="11.158723086118698" minlat="47.499754093587399" minlon="11.107159210368991"/>
  </metadata>

  <trk>
    <name>Wank 2015.02.22</name>
    <extensions>
      <gpxx:TrackExtension>
        <gpxx:DisplayColor>Cyan</gpxx:DisplayColor>
      </gpxx:TrackExtension>
      <gpxtrkx:TrackStatsExtension xmlns:gpxtrkx="http://www.garmin.com/xmlschemas/TrackStatsExtension/v1">
        <gpxtrkx:Distance>15529</gpxtrkx:Distance>
        <gpxtrkx:TotalElapsedTime>26890</gpxtrkx:TotalElapsedTime>
        <gpxtrkx:MovingTime>14256</gpxtrkx:MovingTime>
        <gpxtrkx:StoppedTime>4305</gpxtrkx:StoppedTime>
        <gpxtrkx:MovingSpeed>1</gpxtrkx:MovingSpeed>
        <gpxtrkx:MaxSpeed>12</gpxtrkx:MaxSpeed>
        <gpxtrkx:MaxElevation>1787</gpxtrkx:MaxElevation>
        <gpxtrkx:MinElevation>491</gpxtrkx:MinElevation>
        <gpxtrkx:Ascent>1128</gpxtrkx:Ascent>
        <gpxtrkx:Descent>1141</gpxtrkx:Descent>
        <gpxtrkx:AvgAscentRate>0</gpxtrkx:AvgAscentRate>
        <gpxtrkx:MaxAscentRate>0</gpxtrkx:MaxAscentRate>
        <gpxtrkx:AvgDescentRate>0</gpxtrkx:AvgDescentRate>
        <gpxtrkx:MaxDescentRate>-2</gpxtrkx:MaxDescentRate>
      </gpxtrkx:TrackStatsExtension>
    </extensions>
    <trkseg>
      <trkpt lat="47.504266994073987" lon="11.107373451814055">
        <ele>729.990000000000009</ele>
        <time>2015-02-22T08:27:58Z</time>
      </trkpt>
      <trkpt lat="47.50426615588367" lon="11.107372110709548">
        <ele>728.340000000000032</ele>
        <time>2015-02-22T08:28:05Z</time>
      </trkpt>
      <trkpt lat="47.50429792329669" lon="11.107352832332253">
        <ele>729.120000000000005</ele>
        <time>2015-02-22T08:28:31Z</time>
      </trkpt>
      <trkpt lat="47.504293648526073" lon="11.107362890616059">
        <ele>729.559999999999945</ele>
        <time>2015-02-22T08:29:02Z</time>
      </trkpt>
      <trkpt lat="47.504289709031582" lon="11.10733606852591">
        <ele>729.629999999999995</ele>
        <time>2015-02-22T08:30:19Z</time>
      </trkpt>
      <trkpt lat="47.504283925518394" lon="11.107340008020401">
        <ele>729.850000000000023</ele>
        <time>2015-02-22T08:31:00Z</time>
      </trkpt>
      <trkpt lat="47.504287026822567" lon="11.107370685786009">
        <ele>731.149999999999977</ele>
        <time>2015-02-22T08:31:25Z</time>
      </trkpt>
      <trkpt lat="47.504290547221899" lon="11.107363561168313">
        <ele>731.649999999999977</ele>
        <time>2015-02-22T08:31:43Z</time>
      </trkpt>
      <trkpt lat="47.504283590242267" lon="11.107372445985675">
        <ele>731.57000000000005</ele>
        <time>2015-02-22T08:32:01Z</time>
      </trkpt>
      <trkpt lat="47.504278812557459" lon="11.107372948899865">
        <ele>731.539999999999964</ele>
        <time>2015-02-22T08:32:24Z</time>
      </trkpt>
      <trkpt lat="47.504269508644938" lon="11.107368674129248">
        <ele>731.009999999999991</ele>
        <time>2015-02-22T08:33:12Z</time>
      </trkpt>
      <trkpt lat="47.50426129437983" lon="11.107363477349281">
        <ele>731.360000000000014</ele>
        <time>2015-02-22T08:33:34Z</time>
      </trkpt>
      <trkpt lat="47.504262635484338" lon="11.107349311932921">
        <ele>732.039999999999964</ele>
        <time>2015-02-22T08:33:54Z</time>
      </trkpt>
      <trkpt lat="47.504249475896358" lon="11.107316873967648">
        <ele>732.009999999999991</ele>
        <time>2015-02-22T08:34:11Z</time>
      </trkpt>
      <trkpt lat="47.504227180033922" lon="11.107282759621739">
        <ele>731.57000000000005</ele>
        <time>2015-02-22T08:34:15Z</time>
      </trkpt>
      <trkpt lat="47.504125675186515" lon="11.107159210368991">
        <ele>732.029999999999973</ele>
        <time>2015-02-22T08:34:31Z</time>
      </trkpt>
      <trkpt lat="47.503981674090028" lon="11.107187205925584">
        <ele>732.710000000000036</ele>
        <time>2015-02-22T08:34:47Z</time>
      </trkpt>
      <trkpt lat="47.503952840343118" lon="11.107229450717568">
        <ele>733.279999999999973</ele>
        <time>2015-02-22T08:34:51Z</time>
      </trkpt>
      <trkpt lat="47.50393683090806" lon="11.107264319434762">
        <ele>731.940000000000055</ele>
        <time>2015-02-22T08:35:01Z</time>
      </trkpt>
      <trkpt lat="47.503899866715074" lon="11.107318047434092">
        <ele>732.860000000000014</ele>
        <time>2015-02-22T08:35:19Z</time>
      </trkpt>
      <trkpt lat="47.503797858953476" lon="11.107388203963637">
        <ele>733.580000000000041</ele>
        <time>2015-02-22T08:35:31Z</time>
      </trkpt>
      <trkpt lat="47.503731809556484" lon="11.107513094320893">
        <ele>737.740000000000009</ele>
        <time>2015-02-22T08:35:46Z</time>
      </trkpt>
      <trkpt lat="47.503728708252311" lon="11.107523571699858">
        <ele>737.659999999999968</ele>
        <time>2015-02-22T08:35:47Z</time>
      </trkpt>
      <trkpt lat="47.503738850355148" lon="11.107648378238082">
        <ele>740.799999999999955</ele>
        <time>2015-02-22T08:36:00Z</time>
      </trkpt>
      <trkpt lat="47.50374530442059" lon="11.107675954699516">
        <ele>742.059999999999945</ele>
        <time>2015-02-22T08:36:15Z</time>
      </trkpt>
      <trkpt lat="47.503710854798555" lon="11.107686180621386">
        <ele>744.509999999999991</ele>
        <time>2015-02-22T08:36:28Z</time>
      </trkpt>
      <trkpt lat="47.503716219216585" lon="11.107725659385324">
        <ele>745.840000000000032</ele>
        <time>2015-02-22T08:36:41Z</time>
      </trkpt>
      <trkpt lat="47.503716554492712" lon="11.107755247503519">
        <ele>746.490000000000009</ele>
        <time>2015-02-22T08:36:51Z</time>
      </trkpt>
      <trkpt lat="47.503652600571513" lon="11.107790535315871">
        <ele>747.950000000000045</ele>
        <time>2015-02-22T08:37:05Z</time>
      </trkpt>
      <trkpt lat="47.503558555617929" lon="11.107839485630393">
        <ele>749.539999999999964</ele>
        <time>2015-02-22T08:37:19Z</time>
      </trkpt>
      <trkpt lat="47.503579845651984" lon="11.107949540019035">
        <ele>752.379999999999995</ele>
        <time>2015-02-22T08:37:32Z</time>
      </trkpt>
      <trkpt lat="47.503621000796556" lon="11.108050122857094">
        <ele>753.940000000000055</ele>
        <time>2015-02-22T08:37:46Z</time>
      </trkpt>
      <trkpt lat="47.503634663298726" lon="11.108092200011015">
        <ele>754.970000000000027</ele>
        <time>2015-02-22T08:37:57Z</time>
      </trkpt>
      <trkpt lat="47.503679003566504" lon="11.108149029314518">
        <ele>756.350000000000023</ele>
        <time>2015-02-22T08:38:07Z</time>
      </trkpt>
      <trkpt lat="47.503730971366167" lon="11.108249444514513">
        <ele>758.129999999999995</ele>
        <time>2015-02-22T08:38:20Z</time>
      </trkpt>
      <trkpt lat="47.503742538392544" lon="11.108381878584623">
        <ele>759.529999999999973</ele>
        <time>2015-02-22T08:38:35Z</time>
      </trkpt>
      <trkpt lat="47.503740526735783" lon="11.10838808119297">
        <ele>759.779999999999973</ele>
        <time>2015-02-22T08:38:36Z</time>
      </trkpt>
      <trkpt lat="47.503711106255651" lon="11.10846821218729">
        <ele>760.580000000000041</ele>
        <time>2015-02-22T08:38:47Z</time>
      </trkpt>
      <trkpt lat="47.503658216446638" lon="11.108613554388285">
        <ele>760.389999999999986</ele>
        <time>2015-02-22T08:39:02Z</time>
      </trkpt>
      <trkpt lat="47.503640111535788" lon="11.108676502481103">
        <ele>761.07000000000005</ele>
        <time>2015-02-22T08:39:07Z</time>
      </trkpt>
      <trkpt lat="47.503637177869678" lon="11.108830561861396">
        <ele>764.309999999999945</ele>
        <time>2015-02-22T08:39:23Z</time>
      </trkpt>
      <trkpt lat="47.503636088222265" lon="11.108865430578589">
        <ele>765.259999999999991</ele>
        <time>2015-02-22T08:39:27Z</time>
      </trkpt>
      <trkpt lat="47.503644302487373" lon="11.108993757516146">
        <ele>768.5</ele>
        <time>2015-02-22T08:39:41Z</time>
      </trkpt>
      <trkpt lat="47.503622928634286" lon="11.109118815511465">
        <ele>771.990000000000009</ele>
        <time>2015-02-22T08:39:54Z</time>
      </trkpt>
      <trkpt lat="47.50361337326467" lon="11.10926709137857">
        <ele>775.379999999999995</ele>
        <time>2015-02-22T08:40:11Z</time>
      </trkpt>
      <trkpt lat="47.50357330776751" lon="11.109434394165874">
        <ele>777.360000000000014</ele>
        <time>2015-02-22T08:40:27Z</time>
      </trkpt>
      <trkpt lat="47.503535505384207" lon="11.109532127156854">
        <ele>780.710000000000036</ele>
        <time>2015-02-22T08:40:41Z</time>
      </trkpt>
      <trkpt lat="47.50349217094481" lon="11.109619801864028">
        <ele>783.720000000000027</ele>
        <time>2015-02-22T08:40:55Z</time>
      </trkpt>
      <trkpt lat="47.503428300842643" lon="11.109785176813602">
        <ele>786.730000000000018</ele>
        <time>2015-02-22T08:41:12Z</time>
      </trkpt>
      <trkpt lat="47.503450848162174" lon="11.109918700531125">
        <ele>788.5</ele>
        <time>2015-02-22T08:41:27Z</time>
      </trkpt>
      <trkpt lat="47.503467025235295" lon="11.110095391049981">
        <ele>790.190000000000055</ele>
        <time>2015-02-22T08:41:44Z</time>
      </trkpt>
      <trkpt lat="47.503470713272691" lon="11.110186250880361">
        <ele>790.919999999999959</ele>
        <time>2015-02-22T08:42:02Z</time>
      </trkpt>
      <trkpt lat="47.50347750261426" lon="11.110198069363832">
        <ele>791.169999999999959</ele>
        <time>2015-02-22T08:42:56Z</time>
      </trkpt>
      <trkpt lat="47.503474736586213" lon="11.110199997201562">
        <ele>791.480000000000018</ele>
        <time>2015-02-22T08:43:20Z</time>
      </trkpt>
      <trkpt lat="47.503473227843642" lon="11.110234698280692">
        <ele>791.649999999999977</ele>
        <time>2015-02-22T08:43:48Z</time>
      </trkpt>
      <trkpt lat="47.503421427682042" lon="11.110611045733094">
        <ele>791.529999999999973</ele>
        <time>2015-02-22T08:44:10Z</time>
      </trkpt>
      <trkpt lat="47.503405418246984" lon="11.110948165878654">
        <ele>794.379999999999995</ele>
        <time>2015-02-22T08:44:32Z</time>
      </trkpt>
      <trkpt lat="47.50340910628438" lon="11.111103566363454">
        <ele>797.409999999999968</ele>
        <time>2015-02-22T08:44:45Z</time>
      </trkpt>
      <trkpt lat="47.503403825685382" lon="11.111249914392829">
        <ele>800.590000000000032</ele>
        <time>2015-02-22T08:44:58Z</time>
      </trkpt>
      <trkpt lat="47.503403825685382" lon="11.111422246322036">
        <ele>803.860000000000014</ele>
        <time>2015-02-22T08:45:13Z</time>
      </trkpt>
      <trkpt lat="47.503392929211259" lon="11.111589381471276">
        <ele>806.519999999999982</ele>
        <time>2015-02-22T08:45:28Z</time>
      </trkpt>
      <trkpt lat="47.503366693854332" lon="11.111801024526358">
        <ele>809.269999999999982</ele>
        <time>2015-02-22T08:45:46Z</time>
      </trkpt>
      <trkpt lat="47.503363257274032" lon="11.11192868091166">
        <ele>812.700000000000045</ele>
        <time>2015-02-22T08:45:58Z</time>
      </trkpt>
      <trkpt lat="47.503337021917105" lon="11.112095732241869">
        <ele>815.57000000000005</ele>
        <time>2015-02-22T08:46:14Z</time>
      </trkpt>
      <trkpt lat="47.503311708569527" lon="11.112255910411477">
        <ele>818.67999999999995</ele>
        <time>2015-02-22T08:46:30Z</time>
      </trkpt>
      <trkpt lat="47.503287568688393" lon="11.11241240054369">
        <ele>822.009999999999991</ele>
        <time>2015-02-22T08:46:44Z</time>
      </trkpt>
      <trkpt lat="47.503264015540481" lon="11.112556653097272">
        <ele>825.049999999999955</ele>
        <time>2015-02-22T08:46:58Z</time>
      </trkpt>
      <trkpt lat="47.503212131559849" lon="11.112738875672221">
        <ele>826.42999999999995</ele>
        <time>2015-02-22T08:47:15Z</time>
      </trkpt>
      <trkpt lat="47.503110626712441" lon="11.112853121012449">
        <ele>829.25</ele>
        <time>2015-02-22T08:47:31Z</time>
      </trkpt>
      <trkpt lat="47.503063017502427" lon="11.112880446016788">
        <ele>830.019999999999982</ele>
        <time>2015-02-22T08:47:37Z</time>
      </trkpt>
      <trkpt lat="47.502992693334818" lon="11.112912464886904">
        <ele>832.080000000000041</ele>
        <time>2015-02-22T08:47:50Z</time>
      </trkpt>
      <trkpt lat="47.502940557897091" lon="11.11297968775034">
        <ele>835.269999999999982</ele>
        <time>2015-02-22T08:48:02Z</time>
      </trkpt>
      <trkpt lat="47.502939384430647" lon="11.113048335537314">
        <ele>837.210000000000036</ele>
        <time>2015-02-22T08:48:16Z</time>
      </trkpt>
      <trkpt lat="47.502934942021966" lon="11.113090747967362">
        <ele>839.440000000000055</ele>
        <time>2015-02-22T08:48:33Z</time>
      </trkpt>
      <trkpt lat="47.502936786040664" lon="11.11314631998539">
        <ele>841.019999999999982</ele>
        <time>2015-02-22T08:48:42Z</time>
      </trkpt>
      <trkpt lat="47.502901749685407" lon="11.113247908651829">
        <ele>843.269999999999982</ele>
        <time>2015-02-22T08:48:54Z</time>
      </trkpt>
      <trkpt lat="47.502846429124475" lon="11.113371038809419">
        <ele>845.080000000000041</ele>
        <time>2015-02-22T08:49:10Z</time>
      </trkpt>
      <trkpt lat="47.502773925662041" lon="11.113455360755324">
        <ele>848.370000000000005</ele>
        <time>2015-02-22T08:49:24Z</time>
      </trkpt>
      <trkpt lat="47.502712234854698" lon="11.11360321752727">
        <ele>852.019999999999982</ele>
        <time>2015-02-22T08:49:40Z</time>
      </trkpt>
      <trkpt lat="47.502706702798605" lon="11.113688880577683">
        <ele>853.5</ele>
        <time>2015-02-22T08:49:55Z</time>
      </trkpt>
      <trkpt lat="47.502677282318473" lon="11.113688126206398">
        <ele>853.600000000000023</ele>
        <time>2015-02-22T08:50:12Z</time>
      </trkpt>
      <trkpt lat="47.502670912072062" lon="11.113706398755312">
        <ele>853.049999999999955</ele>
        <time>2015-02-22T08:50:27Z</time>
      </trkpt>
      <trkpt lat="47.502664038911462" lon="11.11371511593461">
        <ele>853.190000000000055</ele>
        <time>2015-02-22T08:50:43Z</time>
      </trkpt>
      <trkpt lat="47.502648867666721" lon="11.113682594150305">
        <ele>853.029999999999973</ele>
        <time>2015-02-22T08:50:59Z</time>
      </trkpt>
      <trkpt lat="47.502589607611299" lon="11.113637583330274">
        <ele>856.379999999999995</ele>
        <time>2015-02-22T08:51:11Z</time>
      </trkpt>
      <trkpt lat="47.50248558819294" lon="11.113591063767672">
        <ele>858.950000000000045</ele>
        <time>2015-02-22T08:51:28Z</time>
      </trkpt>
      <trkpt lat="47.502383831888437" lon="11.113592069596052">
        <ele>862.009999999999991</ele>
        <time>2015-02-22T08:51:42Z</time>
      </trkpt>
      <trkpt lat="47.50222273170948" lon="11.113647306337953">
        <ele>864.039999999999964</ele>
        <time>2015-02-22T08:52:01Z</time>
      </trkpt>
      <trkpt lat="47.502096584066749" lon="11.113703213632107">
        <ele>866.419999999999959</ele>
        <time>2015-02-22T08:52:18Z</time>
      </trkpt>
      <trkpt lat="47.501986110582948" lon="11.113729868084192">
        <ele>869.039999999999964</ele>
        <time>2015-02-22T08:52:33Z</time>
      </trkpt>
      <trkpt lat="47.50190463848412" lon="11.113780159503222">
        <ele>872.059999999999945</ele>
        <time>2015-02-22T08:52:47Z</time>
      </trkpt>
      <trkpt lat="47.50178687274456" lon="11.113875461742282">
        <ele>873.950000000000045</ele>
        <time>2015-02-22T08:53:02Z</time>
      </trkpt>
      <trkpt lat="47.501660054549575" lon="11.114007057622075">
        <ele>875.740000000000009</ele>
        <time>2015-02-22T08:53:19Z</time>
      </trkpt>
      <trkpt lat="47.501576989889145" lon="11.114064222201705">
        <ele>878.299999999999955</ele>
        <time>2015-02-22T08:53:34Z</time>
      </trkpt>
      <trkpt lat="47.50149711035192" lon="11.114100851118565">
        <ele>881.370000000000005</ele>
        <time>2015-02-22T08:53:52Z</time>
      </trkpt>
      <trkpt lat="47.501466264948249" lon="11.114200595766306">
        <ele>881.919999999999959</ele>
        <time>2015-02-22T08:53:58Z</time>
      </trkpt>
      <trkpt lat="47.501360317692161" lon="11.114365300163627">
        <ele>883.360000000000014</ele>
        <time>2015-02-22T08:54:13Z</time>
      </trkpt>
      <trkpt lat="47.501278510317206" lon="11.114489352330565">
        <ele>886.5</ele>
        <time>2015-02-22T08:54:27Z</time>
      </trkpt>
      <trkpt lat="47.501198463141918" lon="11.114640310406685">
        <ele>888.909999999999968</ele>
        <time>2015-02-22T08:54:45Z</time>
      </trkpt>
      <trkpt lat="47.501086397096515" lon="11.114738378673792">
        <ele>891.759999999999991</ele>
        <time>2015-02-22T08:55:01Z</time>
      </trkpt>
      <trkpt lat="47.500962931662798" lon="11.114794034510851">
        <ele>894.92999999999995</ele>
        <time>2015-02-22T08:55:18Z</time>
      </trkpt>
      <trkpt lat="47.500845920294523" lon="11.114877182990313">
        <ele>898.17999999999995</ele>
        <time>2015-02-22T08:55:32Z</time>
      </trkpt>
      <trkpt lat="47.500732596963644" lon="11.114925127476454">
        <ele>899.440000000000055</ele>
        <time>2015-02-22T08:55:47Z</time>
      </trkpt>
      <trkpt lat="47.500589350238442" lon="11.115017663687468">
        <ele>901.259999999999991</ele>
        <time>2015-02-22T08:56:02Z</time>
      </trkpt>
      <trkpt lat="47.500450713559985" lon="11.115120928734541">
        <ele>903.379999999999995</ele>
        <time>2015-02-22T08:56:20Z</time>
      </trkpt>
      <trkpt lat="47.500289529561996" lon="11.115229809656739">
        <ele>906.259999999999991</ele>
        <time>2015-02-22T08:56:39Z</time>
      </trkpt>
      <trkpt lat="47.500126836821437" lon="11.115330643951893">
        <ele>907.799999999999955</ele>
        <time>2015-02-22T08:56:57Z</time>
      </trkpt>
      <trkpt lat="47.499970765784383" lon="11.11536324955523">
        <ele>910.110000000000014</ele>
        <time>2015-02-22T08:57:15Z</time>
      </trkpt>
      <trkpt lat="47.499818801879883" lon="11.115426700562239">
        <ele>912.559999999999945</ele>
        <time>2015-02-22T08:57:33Z</time>
      </trkpt>
      <trkpt lat="47.499787118285894" lon="11.115458719432354">
        <ele>913.009999999999991</ele>
        <time>2015-02-22T08:57:37Z</time>
      </trkpt>
      <trkpt lat="47.499754093587399" lon="11.115542035549879">
        <ele>913.769999999999982</ele>
        <time>2015-02-22T08:57:57Z</time>
      </trkpt>
      <trkpt lat="47.499775970354676" lon="11.115664327517152">
        <ele>915.92999999999995</ele>
        <time>2015-02-22T08:58:22Z</time>
      </trkpt>
      <trkpt lat="47.499881666153669" lon="11.115745548158884">
        <ele>919</ele>
        <time>2015-02-22T08:58:39Z</time>
      </trkpt>
      <trkpt lat="47.49993690289557" lon="11.115751499310136">
        <ele>920.600000000000023</ele>
        <time>2015-02-22T08:58:48Z</time>
      </trkpt>
      <trkpt lat="47.500058691948652" lon="11.115768933668733">
        <ele>922.57000000000005</ele>
        <time>2015-02-22T08:59:02Z</time>
      </trkpt>
      <trkpt lat="47.500114012509584" lon="11.11578494310379">
        <ele>923.610000000000014</ele>
        <time>2015-02-22T08:59:08Z</time>
      </trkpt>
      <trkpt lat="47.500237394124269" lon="11.115820650011301">
        <ele>926.090000000000032</ele>
        <time>2015-02-22T08:59:24Z</time>
      </trkpt>
      <trkpt lat="47.50032783485949" lon="11.115845879539847">
        <ele>928.940000000000055</ele>
        <time>2015-02-22T08:59:38Z</time>
      </trkpt>
      <trkpt lat="47.500269580632448" lon="11.115929028019309">
        <ele>930.980000000000018</ele>
        <time>2015-02-22T08:59:55Z</time>
      </trkpt>
      <trkpt lat="47.500196658074856" lon="11.11606054008007">
        <ele>934.909999999999968</ele>
        <time>2015-02-22T09:00:11Z</time>
      </trkpt>
      <trkpt lat="47.500133207067847" lon="11.116168331354856">
        <ele>938.120000000000005</ele>
        <time>2015-02-22T09:00:26Z</time>
      </trkpt>
      <trkpt lat="47.500062547624111" lon="11.116296909749508">
        <ele>940.990000000000009</ele>
        <time>2015-02-22T09:00:44Z</time>
      </trkpt>
      <trkpt lat="47.499999850988388" lon="11.11637762747705">
        <ele>944.370000000000005</ele>
        <time>2015-02-22T09:00:56Z</time>
      </trkpt>
      <trkpt lat="47.49996037222445" lon="11.116483071818948">
        <ele>947.840000000000032</ele>
        <time>2015-02-22T09:01:10Z</time>
      </trkpt>
      <trkpt lat="47.499924581497908" lon="11.116576110944152">
        <ele>950.950000000000045</ele>
        <time>2015-02-22T09:01:23Z</time>
      </trkpt>
      <trkpt lat="47.499882420524955" lon="11.116673089563847">
        <ele>954.299999999999955</ele>
        <time>2015-02-22T09:01:37Z</time>
      </trkpt>
      <trkpt lat="47.499841684475541" lon="11.116785239428282">
        <ele>957.590000000000032</ele>
        <time>2015-02-22T09:01:52Z</time>
      </trkpt>
      <trkpt lat="47.499825926497579" lon="11.116888504475355">
        <ele>959.240000000000009</ele>
        <time>2015-02-22T09:02:08Z</time>
      </trkpt>
      <trkpt lat="47.499847635626793" lon="11.116959163919091">
        <ele>962.350000000000023</ele>
        <time>2015-02-22T09:02:21Z</time>
      </trkpt>
      <trkpt lat="47.499860543757677" lon="11.117081539705396">
        <ele>964.720000000000027</ele>
        <time>2015-02-22T09:02:35Z</time>
      </trkpt>
      <trkpt lat="47.49989147298038" lon="11.117159575223923">
        <ele>966.519999999999982</ele>
        <time>2015-02-22T09:02:48Z</time>
      </trkpt>
      <trkpt lat="47.499908823519945" lon="11.117211626842618">
        <ele>968.960000000000036</ele>
        <time>2015-02-22T09:03:01Z</time>
      </trkpt>
      <trkpt lat="47.499922821298242" lon="11.117231491953135">
        <ele>969.720000000000027</ele>
        <time>2015-02-22T09:03:05Z</time>
      </trkpt>
      <trkpt lat="47.499959701672196" lon="11.117272982373834">
        <ele>971.519999999999982</ele>
        <time>2015-02-22T09:03:18Z</time>
      </trkpt>
      <trkpt lat="47.499992894008756" lon="11.117320759221911">
        <ele>971.899999999999977</ele>
        <time>2015-02-22T09:03:27Z</time>
      </trkpt>
      <trkpt lat="47.500004628673196" lon="11.117340372875333">
        <ele>973.360000000000014</ele>
        <time>2015-02-22T09:03:41Z</time>
      </trkpt>
      <trkpt lat="47.500016614794731" lon="11.117281029000878">
        <ele>974.840000000000032</ele>
        <time>2015-02-22T09:03:56Z</time>
      </trkpt>
      <trkpt lat="47.500049723312259" lon="11.117278514429927">
        <ele>975.669999999999959</ele>
        <time>2015-02-22T09:04:09Z</time>
      </trkpt>
      <trkpt lat="47.500084927305579" lon="11.117324698716402">
        <ele>976.639999999999986</ele>
        <time>2015-02-22T09:04:22Z</time>
      </trkpt>
      <trkpt lat="47.500096745789051" lon="11.117323441430926">
        <ele>977.110000000000014</ele>
        <time>2015-02-22T09:04:24Z</time>
      </trkpt>
      <trkpt lat="47.500122142955661" lon="11.117318999022245">
        <ele>977.480000000000018</ele>
        <time>2015-02-22T09:04:28Z</time>
      </trkpt>
      <trkpt lat="47.500149048864841" lon="11.117324866354465">
        <ele>978.309999999999945</ele>
        <time>2015-02-22T09:04:39Z</time>
      </trkpt>
      <trkpt lat="47.500162040814757" lon="11.117367278784513">
        <ele>979.399999999999977</ele>
        <time>2015-02-22T09:04:56Z</time>
      </trkpt>
      <trkpt lat="47.500162795186043" lon="11.11736468039453">
        <ele>980.629999999999995</ele>
        <time>2015-02-22T09:05:14Z</time>
      </trkpt>
      <trkpt lat="47.500184336677194" lon="11.117373984307051">
        <ele>982.07000000000005</ele>
        <time>2015-02-22T09:05:26Z</time>
      </trkpt>
      <trkpt lat="47.500207889825106" lon="11.117410864681005">
        <ele>982.419999999999959</ele>
        <time>2015-02-22T09:05:43Z</time>
      </trkpt>
      <trkpt lat="47.500225491821766" lon="11.11737297847867">
        <ele>983.559999999999945</ele>
        <time>2015-02-22T09:05:56Z</time>
      </trkpt>
      <trkpt lat="47.500219875946641" lon="11.117376582697034">
        <ele>983.509999999999991</ele>
        <time>2015-02-22T09:06:17Z</time>
      </trkpt>
      <trkpt lat="47.500261450186372" lon="11.117318496108055">
        <ele>986.120000000000005</ele>
        <time>2015-02-22T09:06:31Z</time>
      </trkpt>
      <trkpt lat="47.500268407166004" lon="11.117317490279675">
        <ele>986.850000000000023</ele>
        <time>2015-02-22T09:06:42Z</time>
      </trkpt>
      <trkpt lat="47.500286428257823" lon="11.117299301549792">
        <ele>987.149999999999977</ele>
        <time>2015-02-22T09:06:56Z</time>
      </trkpt>
      <trkpt lat="47.500303611159325" lon="11.117325285449624">
        <ele>987.210000000000036</ele>
        <time>2015-02-22T09:07:09Z</time>
      </trkpt>
      <trkpt lat="47.500331690534949" lon="11.117370128631592">
        <ele>988.980000000000018</ele>
        <time>2015-02-22T09:07:22Z</time>
      </trkpt>
      <trkpt lat="47.500340826809406" lon="11.117403907701373">
        <ele>990.480000000000018</ele>
        <time>2015-02-22T09:07:33Z</time>
      </trkpt>
      <trkpt lat="47.500325236469507" lon="11.117401979863644">
        <ele>990.539999999999964</ele>
        <time>2015-02-22T09:07:52Z</time>
      </trkpt>
      <trkpt lat="47.500337390229106" lon="11.117397202178836">
        <ele>991.259999999999991</ele>
        <time>2015-02-22T09:08:06Z</time>
      </trkpt>
      <trkpt lat="47.500354154035449" lon="11.117406086996198">
        <ele>991.639999999999986</ele>
        <time>2015-02-22T09:08:21Z</time>
      </trkpt>
      <trkpt lat="47.50036689452827" lon="11.117410026490688">
        <ele>991.759999999999991</ele>
        <time>2015-02-22T09:08:32Z</time>
      </trkpt>
      <trkpt lat="47.50038206577301" lon="11.117465682327747">
        <ele>993.720000000000027</ele>
        <time>2015-02-22T09:08:48Z</time>
      </trkpt>
      <trkpt lat="47.500394219532609" lon="11.117480015382171">
        <ele>995.399999999999977</ele>
        <time>2015-02-22T09:08:52Z</time>
      </trkpt>
      <trkpt lat="47.500413162633777" lon="11.11755377613008">
        <ele>997.279999999999973</ele>
        <time>2015-02-22T09:09:04Z</time>
      </trkpt>
      <trkpt lat="47.500449037179351" lon="11.117655113339424">
        <ele>1000.139999999999986</ele>
        <time>2015-02-22T09:09:18Z</time>
      </trkpt>
      <trkpt lat="47.500439481809735" lon="11.11773700453341">
        <ele>1003.129999999999995</ele>
        <time>2015-02-22T09:09:32Z</time>
      </trkpt>
      <trkpt lat="47.500453647226095" lon="11.117782099172473">
        <ele>1004.379999999999995</ele>
        <time>2015-02-22T09:09:47Z</time>
      </trkpt>
      <trkpt lat="47.500501675531268" lon="11.117806574329734">
        <ele>1006.82000000000005</ele>
        <time>2015-02-22T09:10:03Z</time>
      </trkpt>
      <trkpt lat="47.500546099618077" lon="11.117916293442249">
        <ele>1009.470000000000027</ele>
        <time>2015-02-22T09:10:17Z</time>
      </trkpt>
      <trkpt lat="47.500581974163651" lon="11.118021486327052">
        <ele>1012.889999999999986</ele>
        <time>2015-02-22T09:10:30Z</time>
      </trkpt>
      <trkpt lat="47.500632684677839" lon="11.118099270388484">
        <ele>1015.169999999999959</ele>
        <time>2015-02-22T09:10:43Z</time>
      </trkpt>
      <trkpt lat="47.500629331916571" lon="11.118107568472624">
        <ele>1014.950000000000045</ele>
        <time>2015-02-22T09:10:44Z</time>
      </trkpt>
      <trkpt lat="47.500636875629425" lon="11.118164146319032">
        <ele>1016.590000000000032</ele>
        <time>2015-02-22T09:10:53Z</time>
      </trkpt>
      <trkpt lat="47.500738631933928" lon="11.118216784670949">
        <ele>1018.149999999999977</ele>
        <time>2015-02-22T09:11:07Z</time>
      </trkpt>
      <trkpt lat="47.500826977193356" lon="11.118278056383133">
        <ele>1019.67999999999995</ele>
        <time>2015-02-22T09:11:20Z</time>
      </trkpt>
      <trkpt lat="47.500849524512887" lon="11.118283169344068">
        <ele>1020.149999999999977</ele>
        <time>2015-02-22T09:11:36Z</time>
      </trkpt>
      <trkpt lat="47.500847261399031" lon="11.118264058604836">
        <ele>1020.450000000000045</ele>
        <time>2015-02-22T09:11:57Z</time>
      </trkpt>
      <trkpt lat="47.500874251127243" lon="11.118273278698325">
        <ele>1019.899999999999977</ele>
        <time>2015-02-22T09:12:22Z</time>
      </trkpt>
      <trkpt lat="47.500910880044103" lon="11.118391798809171">
        <ele>1021.220000000000027</ele>
        <time>2015-02-22T09:12:36Z</time>
      </trkpt>
      <trkpt lat="47.500934014096856" lon="11.118467152118683">
        <ele>1022.399999999999977</ele>
        <time>2015-02-22T09:12:49Z</time>
      </trkpt>
      <trkpt lat="47.500936780124903" lon="11.1185388173908">
        <ele>1023.120000000000005</ele>
        <time>2015-02-22T09:12:55Z</time>
      </trkpt>
      <trkpt lat="47.500932589173317" lon="11.118678962811828">
        <ele>1024.1099999999999</ele>
        <time>2015-02-22T09:13:07Z</time>
      </trkpt>
      <trkpt lat="47.500968379899859" lon="11.11881785094738">
        <ele>1026.980000000000018</ele>
        <time>2015-02-22T09:13:22Z</time>
      </trkpt>
      <trkpt lat="47.501030322164297" lon="11.118868393823504">
        <ele>1028.569999999999936</ele>
        <time>2015-02-22T09:13:33Z</time>
      </trkpt>
      <trkpt lat="47.50104021281004" lon="11.118891527876258">
        <ele>1030.099999999999909</ele>
        <time>2015-02-22T09:13:48Z</time>
      </trkpt>
      <trkpt lat="47.501077093183994" lon="11.118909046053886">
        <ele>1029.819999999999936</ele>
        <time>2015-02-22T09:14:03Z</time>
      </trkpt>
      <trkpt lat="47.501088492572308" lon="11.118927653878927">
        <ele>1030.589999999999918</ele>
        <time>2015-02-22T09:14:16Z</time>
      </trkpt>
      <trkpt lat="47.501092348247766" lon="11.118909632787108">
        <ele>1030.279999999999973</ele>
        <time>2015-02-22T09:14:29Z</time>
      </trkpt>
      <trkpt lat="47.501134425401688" lon="11.118788179010153">
        <ele>1030.119999999999891</ele>
        <time>2015-02-22T09:14:44Z</time>
      </trkpt>
      <trkpt lat="47.50114775262773" lon="11.118769319728017">
        <ele>1030.539999999999964</ele>
        <time>2015-02-22T09:14:46Z</time>
      </trkpt>
      <trkpt lat="47.501299548894167" lon="11.1186199542135">
        <ele>1031.1099999999999</ele>
        <time>2015-02-22T09:15:05Z</time>
      </trkpt>
      <trkpt lat="47.501463750377297" lon="11.11849095672369">
        <ele>1031.980000000000018</ele>
        <time>2015-02-22T09:15:23Z</time>
      </trkpt>
      <trkpt lat="47.501635747030377" lon="11.118409987539053">
        <ele>1030.8599999999999</ele>
        <time>2015-02-22T09:15:40Z</time>
      </trkpt>
      <trkpt lat="47.501810090616345" lon="11.118381740525365">
        <ele>1031.289999999999964</ele>
        <time>2015-02-22T09:15:55Z</time>
      </trkpt>
      <trkpt lat="47.501873876899481" lon="11.118379309773445">
        <ele>1032.349999999999909</ele>
        <time>2015-02-22T09:16:02Z</time>
      </trkpt>
      <trkpt lat="47.502016620710492" lon="11.118357349187136">
        <ele>1033.829999999999927</ele>
        <time>2015-02-22T09:16:18Z</time>
      </trkpt>
      <trkpt lat="47.502072276547551" lon="11.118353828787804">
        <ele>1035.799999999999955</ele>
        <time>2015-02-22T09:16:24Z</time>
      </trkpt>
      <trkpt lat="47.502223150804639" lon="11.118402276188135">
        <ele>1035.960000000000036</ele>
        <time>2015-02-22T09:16:40Z</time>
      </trkpt>
      <trkpt lat="47.502271346747875" lon="11.118410238996148">
        <ele>1035.75</ele>
        <time>2015-02-22T09:16:45Z</time>
      </trkpt>
      <trkpt lat="47.502378718927503" lon="11.118328934535384">
        <ele>1035.190000000000055</ele>
        <time>2015-02-22T09:16:56Z</time>
      </trkpt>
      <trkpt lat="47.502459771931171" lon="11.118264058604836">
        <ele>1035</ele>
        <time>2015-02-22T09:17:08Z</time>
      </trkpt>
      <trkpt lat="47.50250956043601" lon="11.118235811591148">
        <ele>1033.930000000000064</ele>
        <time>2015-02-22T09:17:12Z</time>
      </trkpt>
      <trkpt lat="47.502612993121147" lon="11.118207732215524">
        <ele>1032.440000000000055</ele>
        <time>2015-02-22T09:17:25Z</time>
      </trkpt>
      <trkpt lat="47.502634115517139" lon="11.118291718885303">
        <ele>1034.299999999999955</ele>
        <time>2015-02-22T09:17:36Z</time>
      </trkpt>
      <trkpt lat="47.502656076103449" lon="11.11836489289999">
        <ele>1035.789999999999964</ele>
        <time>2015-02-22T09:17:50Z</time>
      </trkpt>
      <trkpt lat="47.502650041133165" lon="11.118372436612844">
        <ele>1035.690000000000055</ele>
        <time>2015-02-22T09:17:55Z</time>
      </trkpt>
      <trkpt lat="47.502633444964886" lon="11.1184938903898">
        <ele>1038.779999999999973</ele>
        <time>2015-02-22T09:18:09Z</time>
      </trkpt>
      <trkpt lat="47.502628164365888" lon="11.118572764098644">
        <ele>1041.829999999999927</ele>
        <time>2015-02-22T09:18:21Z</time>
      </trkpt>
      <trkpt lat="47.502626739442348" lon="11.118638562038541">
        <ele>1043.819999999999936</ele>
        <time>2015-02-22T09:18:38Z</time>
      </trkpt>
      <trkpt lat="47.502677030861378" lon="11.118707545101643">
        <ele>1044.1400000000001</ele>
        <time>2015-02-22T09:18:54Z</time>
      </trkpt>
      <trkpt lat="47.502690274268389" lon="11.118715591728687">
        <ele>1045.309999999999945</ele>
        <time>2015-02-22T09:19:08Z</time>
      </trkpt>
      <trkpt lat="47.50267175026238" lon="11.118715340271592">
        <ele>1047.099999999999909</ele>
        <time>2015-02-22T09:19:22Z</time>
      </trkpt>
      <trkpt lat="47.502626404166222" lon="11.118776611983776">
        <ele>1050.119999999999891</ele>
        <time>2015-02-22T09:19:36Z</time>
      </trkpt>
      <trkpt lat="47.502614669501781" lon="11.118803098797798">
        <ele>1050.220000000000027</ele>
        <time>2015-02-22T09:19:51Z</time>
      </trkpt>
      <trkpt lat="47.502627409994602" lon="11.118822209537029">
        <ele>1051.190000000000055</ele>
        <time>2015-02-22T09:20:09Z</time>
      </trkpt>
      <trkpt lat="47.5026776175946" lon="11.118858251720667">
        <ele>1052.539999999999964</ele>
        <time>2015-02-22T09:20:24Z</time>
      </trkpt>
      <trkpt lat="47.502688597887754" lon="11.118858084082603">
        <ele>1053.079999999999927</ele>
        <time>2015-02-22T09:20:38Z</time>
      </trkpt>
      <trkpt lat="47.502676276490092" lon="11.118877278640866">
        <ele>1054.680000000000064</ele>
        <time>2015-02-22T09:20:57Z</time>
      </trkpt>
      <trkpt lat="47.502596061676741" lon="11.118944920599461">
        <ele>1056.849999999999909</ele>
        <time>2015-02-22T09:21:12Z</time>
      </trkpt>
      <trkpt lat="47.502598408609629" lon="11.119034355506301">
        <ele>1058.6400000000001</ele>
        <time>2015-02-22T09:21:25Z</time>
      </trkpt>
      <trkpt lat="47.502596816048026" lon="11.119112893939018">
        <ele>1061.130000000000109</ele>
        <time>2015-02-22T09:21:38Z</time>
      </trkpt>
      <trkpt lat="47.502616597339511" lon="11.119173495098948">
        <ele>1063.549999999999955</ele>
        <time>2015-02-22T09:21:54Z</time>
      </trkpt>
      <trkpt lat="47.502655824646354" lon="11.119249267503619">
        <ele>1066.420000000000073</ele>
        <time>2015-02-22T09:22:06Z</time>
      </trkpt>
      <trkpt lat="47.502627577632666" lon="11.119375415146351">
        <ele>1067.849999999999909</ele>
        <time>2015-02-22T09:22:20Z</time>
      </trkpt>
      <trkpt lat="47.502628080546856" lon="11.119532156735659">
        <ele>1067.880000000000109</ele>
        <time>2015-02-22T09:22:33Z</time>
      </trkpt>
      <trkpt lat="47.502637803554535" lon="11.119606755673885">
        <ele>1067.950000000000045</ele>
        <time>2015-02-22T09:22:39Z</time>
      </trkpt>
      <trkpt lat="47.502611149102449" lon="11.119696944952011">
        <ele>1068.160000000000082</ele>
        <time>2015-02-22T09:22:46Z</time>
      </trkpt>
      <trkpt lat="47.50257552601397" lon="11.119828121736646">
        <ele>1069.369999999999891</ele>
        <time>2015-02-22T09:22:58Z</time>
      </trkpt>
      <trkpt lat="47.502549793571234" lon="11.119950413703918">
        <ele>1071.3900000000001</ele>
        <time>2015-02-22T09:23:10Z</time>
      </trkpt>
      <trkpt lat="47.502534873783588" lon="11.120028281584382">
        <ele>1071.450000000000045</ele>
        <time>2015-02-22T09:23:17Z</time>
      </trkpt>
      <trkpt lat="47.50247779302299" lon="11.120140179991722">
        <ele>1073.069999999999936</ele>
        <time>2015-02-22T09:23:29Z</time>
      </trkpt>
      <trkpt lat="47.502487516030669" lon="11.120286611840129">
        <ele>1074.410000000000082</ele>
        <time>2015-02-22T09:23:44Z</time>
      </trkpt>
      <trkpt lat="47.502519031986594" lon="11.120417369529605">
        <ele>1075.960000000000036</ele>
        <time>2015-02-22T09:23:58Z</time>
      </trkpt>
      <trkpt lat="47.502514002844691" lon="11.120448214933276">
        <ele>1076.6400000000001</ele>
        <time>2015-02-22T09:24:15Z</time>
      </trkpt>
      <trkpt lat="47.502495730295777" lon="11.120453495532274">
        <ele>1075.710000000000036</ele>
        <time>2015-02-22T09:24:47Z</time>
      </trkpt>
      <trkpt lat="47.502481816336513" lon="11.120462883263826">
        <ele>1076.049999999999955</ele>
        <time>2015-02-22T09:25:16Z</time>
      </trkpt>
      <trkpt lat="47.502463292330503" lon="11.120470259338617">
        <ele>1075.960000000000036</ele>
        <time>2015-02-22T09:25:40Z</time>
      </trkpt>
      <trkpt lat="47.502481313422322" lon="11.120469672605395">
        <ele>1076.160000000000082</ele>
        <time>2015-02-22T09:25:57Z</time>
      </trkpt>
      <trkpt lat="47.502486426383257" lon="11.12048895098269">
        <ele>1075.970000000000027</ele>
        <time>2015-02-22T09:26:22Z</time>
      </trkpt>
      <trkpt lat="47.502482822164893" lon="11.120496159419417">
        <ele>1076.130000000000109</ele>
        <time>2015-02-22T09:26:50Z</time>
      </trkpt>
      <trkpt lat="47.502485336735845" lon="11.120488112792373">
        <ele>1076.440000000000055</ele>
        <time>2015-02-22T09:27:13Z</time>
      </trkpt>
      <trkpt lat="47.502481983974576" lon="11.120490124449134">
        <ele>1075.829999999999927</ele>
        <time>2015-02-22T09:27:37Z</time>
      </trkpt>
      <trkpt lat="47.502492042258382" lon="11.12048945389688">
        <ele>1075.670000000000073</ele>
        <time>2015-02-22T09:27:59Z</time>
      </trkpt>
      <trkpt lat="47.502492293715477" lon="11.120508732274175">
        <ele>1074.849999999999909</ele>
        <time>2015-02-22T09:28:26Z</time>
      </trkpt>
      <trkpt lat="47.502488438040018" lon="11.120517533272505">
        <ele>1075.539999999999964</ele>
        <time>2015-02-22T09:28:54Z</time>
      </trkpt>
      <trkpt lat="47.502579633146524" lon="11.120587270706892">
        <ele>1076.029999999999973</ele>
        <time>2015-02-22T09:29:08Z</time>
      </trkpt>
      <trkpt lat="47.502632522955537" lon="11.120631778612733">
        <ele>1075.930000000000064</ele>
        <time>2015-02-22T09:29:14Z</time>
      </trkpt>
      <trkpt lat="47.50277484767139" lon="11.12074208445847">
        <ele>1076.460000000000036</ele>
        <time>2015-02-22T09:29:29Z</time>
      </trkpt>
      <trkpt lat="47.502948269248009" lon="11.120939226821065">
        <ele>1077.369999999999891</ele>
        <time>2015-02-22T09:29:48Z</time>
      </trkpt>
      <trkpt lat="47.503035273402929" lon="11.121010472998023">
        <ele>1079.259999999999991</ele>
        <time>2015-02-22T09:29:59Z</time>
      </trkpt>
      <trkpt lat="47.503061005845666" lon="11.121055148541927">
        <ele>1079.079999999999927</ele>
        <time>2015-02-22T09:30:03Z</time>
      </trkpt>
      <trkpt lat="47.503116074949503" lon="11.121178027242422">
        <ele>1080.380000000000109</ele>
        <time>2015-02-22T09:30:13Z</time>
      </trkpt>
      <trkpt lat="47.503154380246997" lon="11.121322615072131">
        <ele>1083.299999999999955</ele>
        <time>2015-02-22T09:30:27Z</time>
      </trkpt>
      <trkpt lat="47.503184471279383" lon="11.121397549286485">
        <ele>1084.920000000000073</ele>
        <time>2015-02-22T09:30:37Z</time>
      </trkpt>
      <trkpt lat="47.503252197057009" lon="11.121536437422037">
        <ele>1086.069999999999936</ele>
        <time>2015-02-22T09:30:52Z</time>
      </trkpt>
      <trkpt lat="47.503316486254334" lon="11.121675241738558">
        <ele>1086.759999999999991</ele>
        <time>2015-02-22T09:31:06Z</time>
      </trkpt>
      <trkpt lat="47.503347918391228" lon="11.121795438230038">
        <ele>1088.180000000000064</ele>
        <time>2015-02-22T09:31:19Z</time>
      </trkpt>
      <trkpt lat="47.503371387720108" lon="11.12184539437294">
        <ele>1088.710000000000036</ele>
        <time>2015-02-22T09:31:24Z</time>
      </trkpt>
      <trkpt lat="47.503424109891057" lon="11.12196609377861">
        <ele>1090.799999999999955</ele>
        <time>2015-02-22T09:31:37Z</time>
      </trkpt>
      <trkpt lat="47.503454117104411" lon="11.122061144560575">
        <ele>1093.819999999999936</ele>
        <time>2015-02-22T09:31:52Z</time>
      </trkpt>
      <trkpt lat="47.503454620018601" lon="11.122067179530859">
        <ele>1094.099999999999909</ele>
        <time>2015-02-22T09:32:05Z</time>
      </trkpt>
      <trkpt lat="47.503462331369519" lon="11.12205695360899">
        <ele>1091.829999999999927</ele>
        <time>2015-02-22T09:32:17Z</time>
      </trkpt>
      <trkpt lat="47.503451434895396" lon="11.122059803456068">
        <ele>1091.349999999999909</ele>
        <time>2015-02-22T09:32:33Z</time>
      </trkpt>
      <trkpt lat="47.503401981666684" lon="11.122060222551227">
        <ele>1092.039999999999964</ele>
        <time>2015-02-22T09:32:57Z</time>
      </trkpt>
      <trkpt lat="47.503378512337804" lon="11.122049493715167">
        <ele>1092.1099999999999</ele>
        <time>2015-02-22T09:33:17Z</time>
      </trkpt>
      <trkpt lat="47.503384128212929" lon="11.122048906981945">
        <ele>1091.779999999999973</ele>
        <time>2015-02-22T09:33:37Z</time>
      </trkpt>
      <trkpt lat="47.503383541479707" lon="11.122052511200309">
        <ele>1091.539999999999964</ele>
        <time>2015-02-22T09:33:55Z</time>
      </trkpt>
      <trkpt lat="47.503381026908755" lon="11.122058546170592">
        <ele>1091.6099999999999</ele>
        <time>2015-02-22T09:34:11Z</time>
      </trkpt>
      <trkpt lat="47.503414219245315" lon="11.122070867568254">
        <ele>1091.849999999999909</ele>
        <time>2015-02-22T09:34:27Z</time>
      </trkpt>
      <trkpt lat="47.503415811806917" lon="11.122060976922512">
        <ele>1092.009999999999991</ele>
        <time>2015-02-22T09:34:50Z</time>
      </trkpt>
      <trkpt lat="47.503422098234296" lon="11.122075226157904">
        <ele>1091.789999999999964</ele>
        <time>2015-02-22T09:35:02Z</time>
      </trkpt>
      <trkpt lat="47.503420505672693" lon="11.122073633596301">
        <ele>1091.740000000000009</ele>
        <time>2015-02-22T09:35:14Z</time>
      </trkpt>
      <trkpt lat="47.503419416025281" lon="11.122075393795967">
        <ele>1091.660000000000082</ele>
        <time>2015-02-22T09:35:26Z</time>
      </trkpt>
      <trkpt lat="47.503408687189221" lon="11.122104646638036">
        <ele>1091.720000000000027</ele>
        <time>2015-02-22T09:35:38Z</time>
      </trkpt>
      <trkpt lat="47.503413297235966" lon="11.122094169259071">
        <ele>1091.670000000000073</ele>
        <time>2015-02-22T09:35:49Z</time>
      </trkpt>
      <trkpt lat="47.503415979444981" lon="11.122088553383946">
        <ele>1092.150000000000091</ele>
        <time>2015-02-22T09:36:02Z</time>
      </trkpt>
      <trkpt lat="47.503421846777201" lon="11.122076399624348">
        <ele>1092.160000000000082</ele>
        <time>2015-02-22T09:36:16Z</time>
      </trkpt>
      <trkpt lat="47.503421846777201" lon="11.122084949165583">
        <ele>1093.190000000000055</ele>
        <time>2015-02-22T09:36:31Z</time>
      </trkpt>
      <trkpt lat="47.503434838727117" lon="11.122083943337202">
        <ele>1092.940000000000055</ele>
        <time>2015-02-22T09:36:52Z</time>
      </trkpt>
      <trkpt lat="47.503444058820605" lon="11.12208042293787">
        <ele>1092</ele>
        <time>2015-02-22T09:37:07Z</time>
      </trkpt>
      <trkpt lat="47.503443975001574" lon="11.122089056298137">
        <ele>1093.200000000000045</ele>
        <time>2015-02-22T09:37:26Z</time>
      </trkpt>
      <trkpt lat="47.503438107669353" lon="11.122096851468086">
        <ele>1092.3900000000001</ele>
        <time>2015-02-22T09:37:42Z</time>
      </trkpt>
      <trkpt lat="47.503433497622609" lon="11.122127864509821">
        <ele>1093.460000000000036</ele>
        <time>2015-02-22T09:37:52Z</time>
      </trkpt>
      <trkpt lat="47.503381697461009" lon="11.122203888371587">
        <ele>1095.630000000000109</ele>
        <time>2015-02-22T09:38:06Z</time>
      </trkpt>
      <trkpt lat="47.503358144313097" lon="11.122204978018999">
        <ele>1096.259999999999991</ele>
        <time>2015-02-22T09:38:10Z</time>
      </trkpt>
      <trkpt lat="47.503261668607593" lon="11.122177317738533">
        <ele>1098.069999999999936</ele>
        <time>2015-02-22T09:38:23Z</time>
      </trkpt>
      <trkpt lat="47.503190757706761" lon="11.122120739892125">
        <ele>1099.940000000000055</ele>
        <time>2015-02-22T09:38:35Z</time>
      </trkpt>
      <trkpt lat="47.503109117969871" lon="11.122081344947219">
        <ele>1101.420000000000073</ele>
        <time>2015-02-22T09:38:46Z</time>
      </trkpt>
      <trkpt lat="47.503020772710443" lon="11.12206382676959">
        <ele>1102.309999999999945</ele>
        <time>2015-02-22T09:38:56Z</time>
      </trkpt>
      <trkpt lat="47.502934858202934" lon="11.122042369097471">
        <ele>1102.920000000000073</ele>
        <time>2015-02-22T09:39:07Z</time>
      </trkpt>
      <trkpt lat="47.50287065282464" lon="11.122016133740544">
        <ele>1104.119999999999891</ele>
        <time>2015-02-22T09:39:16Z</time>
      </trkpt>
      <trkpt lat="47.502792868763208" lon="11.121993083506823">
        <ele>1104.519999999999982</ele>
        <time>2015-02-22T09:39:26Z</time>
      </trkpt>
      <trkpt lat="47.502730842679739" lon="11.121946899220347">
        <ele>1106.480000000000018</ele>
        <time>2015-02-22T09:39:36Z</time>
      </trkpt>
      <trkpt lat="47.502650879323483" lon="11.121925609186292">
        <ele>1107.8599999999999</ele>
        <time>2015-02-22T09:39:46Z</time>
      </trkpt>
      <trkpt lat="47.502557756379247" lon="11.121939355507493">
        <ele>1109.349999999999909</ele>
        <time>2015-02-22T09:39:58Z</time>
      </trkpt>
      <trkpt lat="47.502482989802957" lon="11.1220080871135">
        <ele>1110.799999999999955</ele>
        <time>2015-02-22T09:40:10Z</time>
      </trkpt>
      <trkpt lat="47.502513667568564" lon="11.122144712135196">
        <ele>1113.809999999999945</ele>
        <time>2015-02-22T09:40:24Z</time>
      </trkpt>
      <trkpt lat="47.502620285376906" lon="11.122216796502471">
        <ele>1115.630000000000109</ele>
        <time>2015-02-22T09:40:39Z</time>
      </trkpt>
      <trkpt lat="47.502674432471395" lon="11.122322157025337">
        <ele>1118.099999999999909</ele>
        <time>2015-02-22T09:40:52Z</time>
      </trkpt>
      <trkpt lat="47.502706367522478" lon="11.122440760955215">
        <ele>1120.529999999999973</ele>
        <time>2015-02-22T09:41:06Z</time>
      </trkpt>
      <trkpt lat="47.50273184850812" lon="11.12259297631681">
        <ele>1123.269999999999982</ele>
        <time>2015-02-22T09:41:21Z</time>
      </trkpt>
      <trkpt lat="47.502764370292425" lon="11.122739408165216">
        <ele>1124.839999999999918</ele>
        <time>2015-02-22T09:41:36Z</time>
      </trkpt>
      <trkpt lat="47.502768812701106" lon="11.122848372906446">
        <ele>1127.150000000000091</ele>
        <time>2015-02-22T09:41:52Z</time>
      </trkpt>
      <trkpt lat="47.502742158249021" lon="11.122952224686742">
        <ele>1129.450000000000045</ele>
        <time>2015-02-22T09:42:05Z</time>
      </trkpt>
      <trkpt lat="47.502689687535167" lon="11.123008634895086">
        <ele>1132.589999999999918</ele>
        <time>2015-02-22T09:42:17Z</time>
      </trkpt>
      <trkpt lat="47.502616429701447" lon="11.123068816959858">
        <ele>1134.490000000000009</ele>
        <time>2015-02-22T09:42:32Z</time>
      </trkpt>
      <trkpt lat="47.502525821328163" lon="11.123123383149505">
        <ele>1135.950000000000045</ele>
        <time>2015-02-22T09:42:45Z</time>
      </trkpt>
      <trkpt lat="47.502415934577584" lon="11.12316906452179">
        <ele>1137.599999999999909</ele>
        <time>2015-02-22T09:42:57Z</time>
      </trkpt>
      <trkpt lat="47.502306047827005" lon="11.123179793357849">
        <ele>1137.960000000000036</ele>
        <time>2015-02-22T09:43:10Z</time>
      </trkpt>
      <trkpt lat="47.502205381169915" lon="11.123190019279718">
        <ele>1139.119999999999891</ele>
        <time>2015-02-22T09:43:25Z</time>
      </trkpt>
      <trkpt lat="47.502186773344874" lon="11.123160598799586">
        <ele>1138.789999999999964</ele>
        <time>2015-02-22T09:43:39Z</time>
      </trkpt>
      <trkpt lat="47.502200687304139" lon="11.123171495273709">
        <ele>1138.599999999999909</ele>
        <time>2015-02-22T09:44:00Z</time>
      </trkpt>
      <trkpt lat="47.502209069207311" lon="11.123176272958517">
        <ele>1139.049999999999955</ele>
        <time>2015-02-22T09:44:17Z</time>
      </trkpt>
      <trkpt lat="47.502176128327847" lon="11.123257577419281">
        <ele>1139.130000000000109</ele>
        <time>2015-02-22T09:44:26Z</time>
      </trkpt>
      <trkpt lat="47.502116784453392" lon="11.123475003987551">
        <ele>1142.420000000000073</ele>
        <time>2015-02-22T09:44:44Z</time>
      </trkpt>
      <trkpt lat="47.502114521339536" lon="11.123628308996558">
        <ele>1145.740000000000009</ele>
        <time>2015-02-22T09:44:58Z</time>
      </trkpt>
      <trkpt lat="47.502137320116162" lon="11.123778931796551">
        <ele>1148.779999999999973</ele>
        <time>2015-02-22T09:45:13Z</time>
      </trkpt>
      <trkpt lat="47.502190377563238" lon="11.123929051682353">
        <ele>1151.710000000000036</ele>
        <time>2015-02-22T09:45:29Z</time>
      </trkpt>
      <trkpt lat="47.502225581556559" lon="11.124045979231596">
        <ele>1152.680000000000064</ele>
        <time>2015-02-22T09:45:39Z</time>
      </trkpt>
      <trkpt lat="47.502255169674754" lon="11.124119572341442">
        <ele>1152.579999999999927</ele>
        <time>2015-02-22T09:45:45Z</time>
      </trkpt>
      <trkpt lat="47.50233069062233" lon="11.124303722754121">
        <ele>1154.730000000000018</ele>
        <time>2015-02-22T09:46:02Z</time>
      </trkpt>
      <trkpt lat="47.502398081123829" lon="11.124451914802194">
        <ele>1157.710000000000036</ele>
        <time>2015-02-22T09:46:17Z</time>
      </trkpt>
      <trkpt lat="47.502453485503793" lon="11.124599520117044">
        <ele>1159.710000000000036</ele>
        <time>2015-02-22T09:46:33Z</time>
      </trkpt>
      <trkpt lat="47.502503274008632" lon="11.124712005257607">
        <ele>1162.740000000000009</ele>
        <time>2015-02-22T09:46:47Z</time>
      </trkpt>
      <trkpt lat="47.502562534064054" lon="11.124843098223209">
        <ele>1164.099999999999909</ele>
        <time>2015-02-22T09:47:04Z</time>
      </trkpt>
      <trkpt lat="47.502621123567224" lon="11.124955080449581">
        <ele>1165.180000000000064</ele>
        <time>2015-02-22T09:47:13Z</time>
      </trkpt>
      <trkpt lat="47.502622297033668" lon="11.125017609447241">
        <ele>1164.6400000000001</ele>
        <time>2015-02-22T09:47:17Z</time>
      </trkpt>
      <trkpt lat="47.502628918737173" lon="11.125068906694651">
        <ele>1164.630000000000109</ele>
        <time>2015-02-22T09:47:20Z</time>
      </trkpt>
      <trkpt lat="47.50261751934886" lon="11.12513629719615">
        <ele>1164.650000000000091</ele>
        <time>2015-02-22T09:47:24Z</time>
      </trkpt>
      <trkpt lat="47.502593044191599" lon="11.125341905280948">
        <ele>1166.349999999999909</ele>
        <time>2015-02-22T09:47:43Z</time>
      </trkpt>
      <trkpt lat="47.502616932615638" lon="11.125447349622846">
        <ele>1169.579999999999927</ele>
        <time>2015-02-22T09:48:00Z</time>
      </trkpt>
      <trkpt lat="47.5026292540133" lon="11.125548016279936">
        <ele>1172.819999999999936</ele>
        <time>2015-02-22T09:48:15Z</time>
      </trkpt>
      <trkpt lat="47.502639563754201" lon="11.125653712078929">
        <ele>1176.529999999999973</ele>
        <time>2015-02-22T09:48:29Z</time>
      </trkpt>
      <trkpt lat="47.502688681706786" lon="11.125806933268905">
        <ele>1178.8900000000001</ele>
        <time>2015-02-22T09:48:44Z</time>
      </trkpt>
      <trkpt lat="47.502767303958535" lon="11.125874910503626">
        <ele>1180.5</ele>
        <time>2015-02-22T09:48:57Z</time>
      </trkpt>
      <trkpt lat="47.502848105505109" lon="11.125943642109632">
        <ele>1183.579999999999927</ele>
        <time>2015-02-22T09:49:12Z</time>
      </trkpt>
      <trkpt lat="47.502928823232651" lon="11.126014553010464">
        <ele>1186.130000000000109</ele>
        <time>2015-02-22T09:49:27Z</time>
      </trkpt>
      <trkpt lat="47.503036195412278" lon="11.126029556617141">
        <ele>1188.650000000000091</ele>
        <time>2015-02-22T09:49:43Z</time>
      </trkpt>
      <trkpt lat="47.503148932009935" lon="11.126042129471898">
        <ele>1191.400000000000091</ele>
        <time>2015-02-22T09:49:59Z</time>
      </trkpt>
      <trkpt lat="47.503243898972869" lon="11.12606861628592">
        <ele>1194.259999999999991</ele>
        <time>2015-02-22T09:50:14Z</time>
      </trkpt>
      <trkpt lat="47.503292849287391" lon="11.126156290993094">
        <ele>1196.329999999999927</ele>
        <time>2015-02-22T09:50:29Z</time>
      </trkpt>
      <trkpt lat="47.503333669155836" lon="11.126209767535329">
        <ele>1198.5</ele>
        <time>2015-02-22T09:50:48Z</time>
      </trkpt>
      <trkpt lat="47.50333677046001" lon="11.126247150823474">
        <ele>1201.599999999999909</ele>
        <time>2015-02-22T09:51:01Z</time>
      </trkpt>
      <trkpt lat="47.503385050222278" lon="11.126267937943339">
        <ele>1202.630000000000109</ele>
        <time>2015-02-22T09:51:14Z</time>
      </trkpt>
      <trkpt lat="47.503439616411924" lon="11.126268273219466">
        <ele>1206.569999999999936</ele>
        <time>2015-02-22T09:51:25Z</time>
      </trkpt>
      <trkpt lat="47.503443220630288" lon="11.126269614323974">
        <ele>1206.339999999999918</ele>
        <time>2015-02-22T09:51:26Z</time>
      </trkpt>
      <trkpt lat="47.503508599475026" lon="11.12632317468524">
        <ele>1208.279999999999973</ele>
        <time>2015-02-22T09:51:41Z</time>
      </trkpt>
      <trkpt lat="47.503577750176191" lon="11.126389224082232">
        <ele>1210.769999999999982</ele>
        <time>2015-02-22T09:51:55Z</time>
      </trkpt>
      <trkpt lat="47.503621922805905" lon="11.126461811363697">
        <ele>1213.099999999999909</ele>
        <time>2015-02-22T09:52:09Z</time>
      </trkpt>
      <trkpt lat="47.503695013001561" lon="11.126494416967034">
        <ele>1215.740000000000009</ele>
        <time>2015-02-22T09:52:24Z</time>
      </trkpt>
      <trkpt lat="47.503755614161491" lon="11.126529620960355">
        <ele>1218.6400000000001</ele>
        <time>2015-02-22T09:52:36Z</time>
      </trkpt>
      <trkpt lat="47.503796266391873" lon="11.126548144966364">
        <ele>1219.460000000000036</ele>
        <time>2015-02-22T09:52:52Z</time>
      </trkpt>
      <trkpt lat="47.503859885036945" lon="11.126546133309603">
        <ele>1220.809999999999945</ele>
        <time>2015-02-22T09:53:07Z</time>
      </trkpt>
      <trkpt lat="47.503891903907061" lon="11.126557784155011">
        <ele>1221.160000000000082</ele>
        <time>2015-02-22T09:53:11Z</time>
      </trkpt>
      <trkpt lat="47.503990978002548" lon="11.126541355624795">
        <ele>1224.240000000000009</ele>
        <time>2015-02-22T09:53:27Z</time>
      </trkpt>
      <trkpt lat="47.504035988822579" lon="11.126579074189067">
        <ele>1226.630000000000109</ele>
        <time>2015-02-22T09:53:41Z</time>
      </trkpt>
      <trkpt lat="47.504041604697704" lon="11.126679070293903">
        <ele>1229.5</ele>
        <time>2015-02-22T09:53:55Z</time>
      </trkpt>
      <trkpt lat="47.504066415131092" lon="11.12676297314465">
        <ele>1231.529999999999973</ele>
        <time>2015-02-22T09:54:08Z</time>
      </trkpt>
      <trkpt lat="47.504069767892361" lon="11.12682742998004">
        <ele>1233.819999999999936</ele>
        <time>2015-02-22T09:54:20Z</time>
      </trkpt>
      <trkpt lat="47.504044119268656" lon="11.126895658671856">
        <ele>1236.170000000000073</ele>
        <time>2015-02-22T09:54:36Z</time>
      </trkpt>
      <trkpt lat="47.50408636406064" lon="11.126900017261505">
        <ele>1236.670000000000073</ele>
        <time>2015-02-22T09:54:59Z</time>
      </trkpt>
      <trkpt lat="47.504062140360475" lon="11.126972269266844">
        <ele>1239.299999999999955</ele>
        <time>2015-02-22T09:55:14Z</time>
      </trkpt>
      <trkpt lat="47.50402039848268" lon="11.127056004479527">
        <ele>1241.220000000000027</ele>
        <time>2015-02-22T09:55:28Z</time>
      </trkpt>
      <trkpt lat="47.503971364349127" lon="11.127132615074515">
        <ele>1244.5</ele>
        <time>2015-02-22T09:55:40Z</time>
      </trkpt>
      <trkpt lat="47.503908248618245" lon="11.12723789177835">
        <ele>1246.349999999999909</ele>
        <time>2015-02-22T09:55:56Z</time>
      </trkpt>
      <trkpt lat="47.503894502297044" lon="11.127293296158314">
        <ele>1247.880000000000109</ele>
        <time>2015-02-22T09:56:09Z</time>
      </trkpt>
      <trkpt lat="47.503869859501719" lon="11.127406116575003">
        <ele>1251.380000000000109</ele>
        <time>2015-02-22T09:56:28Z</time>
      </trkpt>
      <trkpt lat="47.503823507577181" lon="11.127498233690858">
        <ele>1253.460000000000036</ele>
        <time>2015-02-22T09:56:46Z</time>
      </trkpt>
      <trkpt lat="47.503808420151472" lon="11.127509800717235">
        <ele>1254.269999999999982</ele>
        <time>2015-02-22T09:57:04Z</time>
      </trkpt>
      <trkpt lat="47.503777742385864" lon="11.127587500959635">
        <ele>1256.569999999999936</ele>
        <time>2015-02-22T09:57:21Z</time>
      </trkpt>
      <trkpt lat="47.503781178966165" lon="11.127556152641773">
        <ele>1256.039999999999964</ele>
        <time>2015-02-22T09:57:40Z</time>
      </trkpt>
      <trkpt lat="47.503772126510739" lon="11.127573838457465">
        <ele>1256.069999999999936</ele>
        <time>2015-02-22T09:57:57Z</time>
      </trkpt>
      <trkpt lat="47.503751087933779" lon="11.127560595050454">
        <ele>1256.119999999999891</ele>
        <time>2015-02-22T09:58:17Z</time>
      </trkpt>
      <trkpt lat="47.503755949437618" lon="11.127559756860137">
        <ele>1257.180000000000064</ele>
        <time>2015-02-22T09:58:35Z</time>
      </trkpt>
      <trkpt lat="47.503762235864997" lon="11.127593871206045">
        <ele>1257.230000000000018</ele>
        <time>2015-02-22T09:58:52Z</time>
      </trkpt>
      <trkpt lat="47.503769276663661" lon="11.12762295641005">
        <ele>1257.650000000000091</ele>
        <time>2015-02-22T09:59:07Z</time>
      </trkpt>
      <trkpt lat="47.503760056570172" lon="11.127611976116896">
        <ele>1258.75</ele>
        <time>2015-02-22T09:59:24Z</time>
      </trkpt>
      <trkpt lat="47.50374773517251" lon="11.127654556185007">
        <ele>1259.309999999999945</ele>
        <time>2015-02-22T09:59:41Z</time>
      </trkpt>
      <trkpt lat="47.503739520907402" lon="11.127729155123234">
        <ele>1260.589999999999918</ele>
        <time>2015-02-22T10:00:00Z</time>
      </trkpt>
      <trkpt lat="47.50370079651475" lon="11.12785798497498">
        <ele>1262.940000000000055</ele>
        <time>2015-02-22T10:00:17Z</time>
      </trkpt>
      <trkpt lat="47.503649583086371" lon="11.128035010769963">
        <ele>1265.450000000000045</ele>
        <time>2015-02-22T10:00:35Z</time>
      </trkpt>
      <trkpt lat="47.503618486225605" lon="11.128108939155936">
        <ele>1266.519999999999982</ele>
        <time>2015-02-22T10:00:49Z</time>
      </trkpt>
      <trkpt lat="47.503619827330112" lon="11.128088571131229">
        <ele>1267.680000000000064</ele>
        <time>2015-02-22T10:01:02Z</time>
      </trkpt>
      <trkpt lat="47.50362410210073" lon="11.128074489533901">
        <ele>1267.900000000000091</ele>
        <time>2015-02-22T10:01:15Z</time>
      </trkpt>
      <trkpt lat="47.503635417670012" lon="11.1280866432935">
        <ele>1268.089999999999918</ele>
        <time>2015-02-22T10:01:30Z</time>
      </trkpt>
      <trkpt lat="47.503645643591881" lon="11.128100221976638">
        <ele>1269.190000000000055</ele>
        <time>2015-02-22T10:01:47Z</time>
      </trkpt>
      <trkpt lat="47.503639440983534" lon="11.128126541152596">
        <ele>1269.670000000000073</ele>
        <time>2015-02-22T10:02:02Z</time>
      </trkpt>
      <trkpt lat="47.503638351336122" lon="11.128151351585984">
        <ele>1269.650000000000091</ele>
        <time>2015-02-22T10:02:23Z</time>
      </trkpt>
      <trkpt lat="47.503626113757491" lon="11.128187561407685">
        <ele>1270.289999999999964</ele>
        <time>2015-02-22T10:02:41Z</time>
      </trkpt>
      <trkpt lat="47.503619492053986" lon="11.128209102898836">
        <ele>1271.3900000000001</ele>
        <time>2015-02-22T10:02:56Z</time>
      </trkpt>
      <trkpt lat="47.503601470962167" lon="11.12826744094491">
        <ele>1272.990000000000009</ele>
        <time>2015-02-22T10:03:09Z</time>
      </trkpt>
      <trkpt lat="47.503570541739464" lon="11.128313960507512">
        <ele>1274.299999999999955</ele>
        <time>2015-02-22T10:03:21Z</time>
      </trkpt>
      <trkpt lat="47.503558807075024" lon="11.128366934135556">
        <ele>1276.150000000000091</ele>
        <time>2015-02-22T10:03:37Z</time>
      </trkpt>
      <trkpt lat="47.503543049097061" lon="11.128416722640395">
        <ele>1276.240000000000009</ele>
        <time>2015-02-22T10:03:55Z</time>
      </trkpt>
      <trkpt lat="47.503509856760502" lon="11.128492662683129">
        <ele>1277.880000000000109</ele>
        <time>2015-02-22T10:04:15Z</time>
      </trkpt>
      <trkpt lat="47.503512455150485" lon="11.128512863069773">
        <ele>1279.1099999999999</ele>
        <time>2015-02-22T10:04:18Z</time>
      </trkpt>
      <trkpt lat="47.503499379381537" lon="11.128523256629705">
        <ele>1278.730000000000018</ele>
        <time>2015-02-22T10:04:31Z</time>
      </trkpt>
      <trkpt lat="47.503482112661004" lon="11.128539517521858">
        <ele>1278.380000000000109</ele>
        <time>2015-02-22T10:04:48Z</time>
      </trkpt>
      <trkpt lat="47.503490494564176" lon="11.1285390984267">
        <ele>1278.829999999999927</ele>
        <time>2015-02-22T10:05:03Z</time>
      </trkpt>
      <trkpt lat="47.503509437665343" lon="11.128553347662091">
        <ele>1279.599999999999909</ele>
        <time>2015-02-22T10:05:18Z</time>
      </trkpt>
      <trkpt lat="47.503501810133457" lon="11.128552844747901">
        <ele>1279.170000000000073</ele>
        <time>2015-02-22T10:05:33Z</time>
      </trkpt>
      <trkpt lat="47.503510946407914" lon="11.128557873889804">
        <ele>1280.160000000000082</ele>
        <time>2015-02-22T10:05:50Z</time>
      </trkpt>
      <trkpt lat="47.503546988591552" lon="11.128636999055743">
        <ele>1281.950000000000045</ele>
        <time>2015-02-22T10:06:07Z</time>
      </trkpt>
      <trkpt lat="47.503563836216927" lon="11.12864906899631">
        <ele>1282</ele>
        <time>2015-02-22T10:06:09Z</time>
      </trkpt>
      <trkpt lat="47.503625024110079" lon="11.128659965470433">
        <ele>1285.240000000000009</ele>
        <time>2015-02-22T10:06:20Z</time>
      </trkpt>
      <trkpt lat="47.503687385469675" lon="11.128681758418679">
        <ele>1286.829999999999927</ele>
        <time>2015-02-22T10:06:31Z</time>
      </trkpt>
      <trkpt lat="47.503694593906403" lon="11.128691313788295">
        <ele>1286.8900000000001</ele>
        <time>2015-02-22T10:06:32Z</time>
      </trkpt>
      <trkpt lat="47.503762654960155" lon="11.128695085644722">
        <ele>1289.009999999999991</ele>
        <time>2015-02-22T10:06:40Z</time>
      </trkpt>
      <trkpt lat="47.503803977742791" lon="11.128599615767598">
        <ele>1290.349999999999909</ele>
        <time>2015-02-22T10:06:55Z</time>
      </trkpt>
      <trkpt lat="47.503894837573171" lon="11.128660636022687">
        <ele>1292.6099999999999</ele>
        <time>2015-02-22T10:07:11Z</time>
      </trkpt>
      <trkpt lat="47.503951331600547" lon="11.128694666549563">
        <ele>1295.730000000000018</ele>
        <time>2015-02-22T10:07:24Z</time>
      </trkpt>
      <trkpt lat="47.504016542807221" lon="11.128654098138213">
        <ele>1298.039999999999964</ele>
        <time>2015-02-22T10:07:42Z</time>
      </trkpt>
      <trkpt lat="47.504021991044283" lon="11.128645464777946">
        <ele>1298.650000000000091</ele>
        <time>2015-02-22T10:07:52Z</time>
      </trkpt>
      <trkpt lat="47.504067840054631" lon="11.128689972683787">
        <ele>1301.329999999999927</ele>
        <time>2015-02-22T10:08:06Z</time>
      </trkpt>
      <trkpt lat="47.504093823954463" lon="11.128724338486791">
        <ele>1303.450000000000045</ele>
        <time>2015-02-22T10:08:19Z</time>
      </trkpt>
      <trkpt lat="47.504133470356464" lon="11.128814108669758">
        <ele>1305.900000000000091</ele>
        <time>2015-02-22T10:08:36Z</time>
      </trkpt>
      <trkpt lat="47.504174206405878" lon="11.128784017637372">
        <ele>1307.940000000000055</ele>
        <time>2015-02-22T10:08:54Z</time>
      </trkpt>
      <trkpt lat="47.50416599214077" lon="11.128772031515837">
        <ele>1307.220000000000027</ele>
        <time>2015-02-22T10:09:12Z</time>
      </trkpt>
      <trkpt lat="47.50420605763793" lon="11.12880639731884">
        <ele>1309.509999999999991</ele>
        <time>2015-02-22T10:09:32Z</time>
      </trkpt>
      <trkpt lat="47.504261629655957" lon="11.128912344574928">
        <ele>1312.809999999999945</ele>
        <time>2015-02-22T10:09:45Z</time>
      </trkpt>
      <trkpt lat="47.504317788407207" lon="11.128942184150219">
        <ele>1314.690000000000055</ele>
        <time>2015-02-22T10:09:59Z</time>
      </trkpt>
      <trkpt lat="47.504386939108372" lon="11.128928689286113">
        <ele>1317.75</ele>
        <time>2015-02-22T10:10:12Z</time>
      </trkpt>
      <trkpt lat="47.504451060667634" lon="11.128968587145209">
        <ele>1319.759999999999991</ele>
        <time>2015-02-22T10:10:31Z</time>
      </trkpt>
      <trkpt lat="47.504431614652276" lon="11.128962803632021">
        <ele>1320.569999999999936</ele>
        <time>2015-02-22T10:10:50Z</time>
      </trkpt>
      <trkpt lat="47.504445696249604" lon="11.128954757004976">
        <ele>1321.099999999999909</ele>
        <time>2015-02-22T10:11:11Z</time>
      </trkpt>
      <trkpt lat="47.504496155306697" lon="11.128964815288782">
        <ele>1324.430000000000064</ele>
        <time>2015-02-22T10:11:24Z</time>
      </trkpt>
      <trkpt lat="47.504542926326394" lon="11.128952829167247">
        <ele>1326.569999999999936</ele>
        <time>2015-02-22T10:11:34Z</time>
      </trkpt>
      <trkpt lat="47.504589278250933" lon="11.128987027332187">
        <ele>1328.440000000000055</ele>
        <time>2015-02-22T10:11:46Z</time>
      </trkpt>
      <trkpt lat="47.504627918824553" lon="11.129032960161567">
        <ele>1330.400000000000091</ele>
        <time>2015-02-22T10:12:03Z</time>
      </trkpt>
      <trkpt lat="47.504669828340411" lon="11.129065733402967">
        <ele>1332.460000000000036</ele>
        <time>2015-02-22T10:12:21Z</time>
      </trkpt>
      <trkpt lat="47.504698242992163" lon="11.129064559936523">
        <ele>1333.829999999999927</ele>
        <time>2015-02-22T10:12:34Z</time>
      </trkpt>
      <trkpt lat="47.504703272134066" lon="11.12902969121933">
        <ele>1333.6400000000001</ele>
        <time>2015-02-22T10:12:54Z</time>
      </trkpt>
      <trkpt lat="47.504693465307355" lon="11.129037905484438">
        <ele>1333.319999999999936</ele>
        <time>2015-02-22T10:13:17Z</time>
      </trkpt>
      <trkpt lat="47.504698662087321" lon="11.129061290994287">
        <ele>1334.059999999999945</ele>
        <time>2015-02-22T10:13:34Z</time>
      </trkpt>
      <trkpt lat="47.504707295447588" lon="11.129059866070747">
        <ele>1334.450000000000045</ele>
        <time>2015-02-22T10:13:57Z</time>
      </trkpt>
      <trkpt lat="47.504698494449258" lon="11.12908442504704">
        <ele>1335.319999999999936</ele>
        <time>2015-02-22T10:14:11Z</time>
      </trkpt>
      <trkpt lat="47.504714839160442" lon="11.12910395488143">
        <ele>1335.6400000000001</ele>
        <time>2015-02-22T10:14:25Z</time>
      </trkpt>
      <trkpt lat="47.50474258325994" lon="11.129060368984938">
        <ele>1337.190000000000055</ele>
        <time>2015-02-22T10:14:41Z</time>
      </trkpt>
      <trkpt lat="47.504755659028888" lon="11.129086185246706">
        <ele>1337.240000000000009</ele>
        <time>2015-02-22T10:15:00Z</time>
      </trkpt>
      <trkpt lat="47.504778625443578" lon="11.129074618220329">
        <ele>1338.670000000000073</ele>
        <time>2015-02-22T10:15:17Z</time>
      </trkpt>
      <trkpt lat="47.504803016781807" lon="11.129088867455721">
        <ele>1339.900000000000091</ele>
        <time>2015-02-22T10:15:29Z</time>
      </trkpt>
      <trkpt lat="47.504860013723373" lon="11.129135638475418">
        <ele>1342.980000000000018</ele>
        <time>2015-02-22T10:15:40Z</time>
      </trkpt>
      <trkpt lat="47.504948526620865" lon="11.129203699529171">
        <ele>1345.839999999999918</ele>
        <time>2015-02-22T10:15:53Z</time>
      </trkpt>
      <trkpt lat="47.505026394501328" lon="11.129293972626328">
        <ele>1348.940000000000055</ele>
        <time>2015-02-22T10:16:09Z</time>
      </trkpt>
      <trkpt lat="47.505044667050242" lon="11.129324231296778">
        <ele>1349.940000000000055</ele>
        <time>2015-02-22T10:16:14Z</time>
      </trkpt>
      <trkpt lat="47.505124965682626" lon="11.129356836900115">
        <ele>1352.369999999999891</ele>
        <time>2015-02-22T10:16:31Z</time>
      </trkpt>
      <trkpt lat="47.505189254879951" lon="11.129379970952868">
        <ele>1355</ele>
        <time>2015-02-22T10:16:46Z</time>
      </trkpt>
      <trkpt lat="47.505246084183455" lon="11.129408553242683">
        <ele>1357.440000000000055</ele>
        <time>2015-02-22T10:17:00Z</time>
      </trkpt>
      <trkpt lat="47.505320096388459" lon="11.129477452486753">
        <ele>1360.180000000000064</ele>
        <time>2015-02-22T10:17:15Z</time>
      </trkpt>
      <trkpt lat="47.505361335352063" lon="11.129530342295766">
        <ele>1362.910000000000082</ele>
        <time>2015-02-22T10:17:30Z</time>
      </trkpt>
      <trkpt lat="47.505416236817837" lon="11.129607791081071">
        <ele>1364.960000000000036</ele>
        <time>2015-02-22T10:17:44Z</time>
      </trkpt>
      <trkpt lat="47.505461247637868" lon="11.129703763872385">
        <ele>1367.289999999999964</ele>
        <time>2015-02-22T10:18:01Z</time>
      </trkpt>
      <trkpt lat="47.50550483353436" lon="11.129757659509778">
        <ele>1369.809999999999945</ele>
        <time>2015-02-22T10:18:15Z</time>
      </trkpt>
      <trkpt lat="47.505564512684941" lon="11.129911215975881">
        <ele>1372.3900000000001</ele>
        <time>2015-02-22T10:18:33Z</time>
      </trkpt>
      <trkpt lat="47.505636680871248" lon="11.1299585737288">
        <ele>1374.650000000000091</ele>
        <time>2015-02-22T10:18:47Z</time>
      </trkpt>
      <trkpt lat="47.505715303122997" lon="11.130004087463021">
        <ele>1377.339999999999918</ele>
        <time>2015-02-22T10:19:04Z</time>
      </trkpt>
      <trkpt lat="47.505808593705297" lon="11.129952287301421">
        <ele>1379.940000000000055</ele>
        <time>2015-02-22T10:19:24Z</time>
      </trkpt>
      <trkpt lat="47.505853017792106" lon="11.129933344200253">
        <ele>1381.119999999999891</ele>
        <time>2015-02-22T10:19:39Z</time>
      </trkpt>
      <trkpt lat="47.505896100774407" lon="11.129875089973211">
        <ele>1383.240000000000009</ele>
        <time>2015-02-22T10:19:55Z</time>
      </trkpt>
      <trkpt lat="47.505899788811803" lon="11.12987307831645">
        <ele>1383.269999999999982</ele>
        <time>2015-02-22T10:19:56Z</time>
      </trkpt>
      <trkpt lat="47.505945554003119" lon="11.129803257063031">
        <ele>1385.069999999999936</ele>
        <time>2015-02-22T10:20:13Z</time>
      </trkpt>
      <trkpt lat="47.505983524024487" lon="11.129694795235991">
        <ele>1387.099999999999909</ele>
        <time>2015-02-22T10:20:30Z</time>
      </trkpt>
      <trkpt lat="47.505985787138343" lon="11.129688005894423">
        <ele>1387.230000000000018</ele>
        <time>2015-02-22T10:20:31Z</time>
      </trkpt>
      <trkpt lat="47.506047729402781" lon="11.129620615392923">
        <ele>1388.980000000000018</ele>
        <time>2015-02-22T10:20:46Z</time>
      </trkpt>
      <trkpt lat="47.506134146824479" lon="11.129566384479403">
        <ele>1391.539999999999964</ele>
        <time>2015-02-22T10:21:04Z</time>
      </trkpt>
      <trkpt lat="47.506144708022475" lon="11.129570659250021">
        <ele>1391.519999999999982</ele>
        <time>2015-02-22T10:21:29Z</time>
      </trkpt>
      <trkpt lat="47.506143199279904" lon="11.129584154114127">
        <ele>1390.650000000000091</ele>
        <time>2015-02-22T10:22:09Z</time>
      </trkpt>
      <trkpt lat="47.506145881488919" lon="11.12957158125937">
        <ele>1390.829999999999927</ele>
        <time>2015-02-22T10:22:35Z</time>
      </trkpt>
      <trkpt lat="47.506145881488919" lon="11.129563366994262">
        <ele>1390.910000000000082</ele>
        <time>2015-02-22T10:23:05Z</time>
      </trkpt>
      <trkpt lat="47.506147976964712" lon="11.129569988697767">
        <ele>1391.319999999999936</ele>
        <time>2015-02-22T10:23:30Z</time>
      </trkpt>
      <trkpt lat="47.506142612546682" lon="11.129563115537167">
        <ele>1391.160000000000082</ele>
        <time>2015-02-22T10:24:00Z</time>
      </trkpt>
      <trkpt lat="47.506165411323309" lon="11.129551129415631">
        <ele>1391.630000000000109</ele>
        <time>2015-02-22T10:24:19Z</time>
      </trkpt>
      <trkpt lat="47.506214864552021" lon="11.129584489390254">
        <ele>1393.170000000000073</ele>
        <time>2015-02-22T10:24:38Z</time>
      </trkpt>
      <trkpt lat="47.506237663328648" lon="11.12962581217289">
        <ele>1394.019999999999982</ele>
        <time>2015-02-22T10:24:55Z</time>
      </trkpt>
      <trkpt lat="47.506277393549681" lon="11.129666548222303">
        <ele>1395.900000000000091</ele>
        <time>2015-02-22T10:25:07Z</time>
      </trkpt>
      <trkpt lat="47.506257528439164" lon="11.129806861281395">
        <ele>1399.180000000000064</ele>
        <time>2015-02-22T10:25:26Z</time>
      </trkpt>
      <trkpt lat="47.506231125444174" lon="11.129969051107764">
        <ele>1401.740000000000009</ele>
        <time>2015-02-22T10:25:44Z</time>
      </trkpt>
      <trkpt lat="47.506248475983739" lon="11.130114812403917">
        <ele>1402.730000000000018</ele>
        <time>2015-02-22T10:25:59Z</time>
      </trkpt>
      <trkpt lat="47.506276136264205" lon="11.130272978916764">
        <ele>1405.079999999999927</ele>
        <time>2015-02-22T10:26:18Z</time>
      </trkpt>
      <trkpt lat="47.506304131820798" lon="11.130387727171183">
        <ele>1407.1099999999999</ele>
        <time>2015-02-22T10:26:33Z</time>
      </trkpt>
      <trkpt lat="47.506346628069878" lon="11.130412453785539">
        <ele>1410.059999999999945</ele>
        <time>2015-02-22T10:26:49Z</time>
      </trkpt>
      <trkpt lat="47.506418628618121" lon="11.130315056070685">
        <ele>1413.1099999999999</ele>
        <time>2015-02-22T10:27:09Z</time>
      </trkpt>
      <trkpt lat="47.506496831774712" lon="11.130241043865681">
        <ele>1415.200000000000045</ele>
        <time>2015-02-22T10:27:23Z</time>
      </trkpt>
      <trkpt lat="47.506587440147996" lon="11.130148842930794">
        <ele>1416.950000000000045</ele>
        <time>2015-02-22T10:27:39Z</time>
      </trkpt>
      <trkpt lat="47.506682155653834" lon="11.130040800198913">
        <ele>1418.789999999999964</ele>
        <time>2015-02-22T10:27:55Z</time>
      </trkpt>
      <trkpt lat="47.506733033806086" lon="11.129998471587896">
        <ele>1420.809999999999945</ele>
        <time>2015-02-22T10:28:08Z</time>
      </trkpt>
      <trkpt lat="47.50680117867887" lon="11.129994448274374">
        <ele>1423.900000000000091</ele>
        <time>2015-02-22T10:28:22Z</time>
      </trkpt>
      <trkpt lat="47.506846524775028" lon="11.129960753023624">
        <ele>1425.240000000000009</ele>
        <time>2015-02-22T10:28:36Z</time>
      </trkpt>
      <trkpt lat="47.506877370178699" lon="11.13005924038589">
        <ele>1426.8900000000001</ele>
        <time>2015-02-22T10:28:52Z</time>
      </trkpt>
      <trkpt lat="47.506903102621436" lon="11.130115147680044">
        <ele>1429.329999999999927</ele>
        <time>2015-02-22T10:29:04Z</time>
      </trkpt>
      <trkpt lat="47.50696781091392" lon="11.130177592858672">
        <ele>1431.6099999999999</ele>
        <time>2015-02-22T10:29:19Z</time>
      </trkpt>
      <trkpt lat="47.506986083462834" lon="11.130160996690392">
        <ele>1432.299999999999955</ele>
        <time>2015-02-22T10:29:35Z</time>
      </trkpt>
      <trkpt lat="47.506990106776357" lon="11.130161918699741">
        <ele>1431.75</ele>
        <time>2015-02-22T10:29:59Z</time>
      </trkpt>
      <trkpt lat="47.507007205858827" lon="11.130148423835635">
        <ele>1432.990000000000009</ele>
        <time>2015-02-22T10:30:20Z</time>
      </trkpt>
      <trkpt lat="47.507057664915919" lon="11.130149513483047">
        <ele>1435.059999999999945</ele>
        <time>2015-02-22T10:30:33Z</time>
      </trkpt>
      <trkpt lat="47.507115583866835" lon="11.130173821002245">
        <ele>1438.160000000000082</ele>
        <time>2015-02-22T10:30:46Z</time>
      </trkpt>
      <trkpt lat="47.507163612172008" lon="11.130232326686382">
        <ele>1439.289999999999964</ele>
        <time>2015-02-22T10:31:07Z</time>
      </trkpt>
      <trkpt lat="47.507187584415078" lon="11.130351265892386">
        <ele>1442.329999999999927</ele>
        <time>2015-02-22T10:31:23Z</time>
      </trkpt>
      <trkpt lat="47.507216585800052" lon="11.130480850115418">
        <ele>1443.579999999999927</ele>
        <time>2015-02-22T10:31:39Z</time>
      </trkpt>
      <trkpt lat="47.507232092320919" lon="11.130617642775178">
        <ele>1447.25</ele>
        <time>2015-02-22T10:31:54Z</time>
      </trkpt>
      <trkpt lat="47.507249442860484" lon="11.13070079125464">
        <ele>1449.440000000000055</ele>
        <time>2015-02-22T10:32:11Z</time>
      </trkpt>
      <trkpt lat="47.507299901917577" lon="11.130721997469664">
        <ele>1451.299999999999955</ele>
        <time>2015-02-22T10:32:26Z</time>
      </trkpt>
      <trkpt lat="47.507320353761315" lon="11.130724428221583">
        <ele>1452.200000000000045</ele>
        <time>2015-02-22T10:32:43Z</time>
      </trkpt>
      <trkpt lat="47.507365951314569" lon="11.130745718255639">
        <ele>1453.509999999999991</ele>
        <time>2015-02-22T10:33:02Z</time>
      </trkpt>
      <trkpt lat="47.507406184449792" lon="11.130762314423919">
        <ele>1454.599999999999909</ele>
        <time>2015-02-22T10:33:17Z</time>
      </trkpt>
      <trkpt lat="47.507454212754965" lon="11.1307960934937">
        <ele>1456.1400000000001</ele>
        <time>2015-02-22T10:33:30Z</time>
      </trkpt>
      <trkpt lat="47.507486818358302" lon="11.130746472626925">
        <ele>1458.769999999999982</ele>
        <time>2015-02-22T10:33:45Z</time>
      </trkpt>
      <trkpt lat="47.507556723430753" lon="11.130730798467994">
        <ele>1461.410000000000082</ele>
        <time>2015-02-22T10:33:59Z</time>
      </trkpt>
      <trkpt lat="47.507629478350282" lon="11.130727361887693">
        <ele>1463</ele>
        <time>2015-02-22T10:34:14Z</time>
      </trkpt>
      <trkpt lat="47.507635932415724" lon="11.130724679678679">
        <ele>1463.019999999999982</ele>
        <time>2015-02-22T10:34:35Z</time>
      </trkpt>
      <trkpt lat="47.507675243541598" lon="11.130778407678008">
        <ele>1465.630000000000109</ele>
        <time>2015-02-22T10:34:51Z</time>
      </trkpt>
      <trkpt lat="47.507673734799027" lon="11.130820903927088">
        <ele>1467.789999999999964</ele>
        <time>2015-02-22T10:35:07Z</time>
      </trkpt>
      <trkpt lat="47.507690330967307" lon="11.130884271115065">
        <ele>1467.680000000000064</ele>
        <time>2015-02-22T10:35:25Z</time>
      </trkpt>
      <trkpt lat="47.507691504433751" lon="11.130922492593527">
        <ele>1468.920000000000073</ele>
        <time>2015-02-22T10:35:44Z</time>
      </trkpt>
      <trkpt lat="47.507694773375988" lon="11.130938082933426">
        <ele>1468.779999999999973</ele>
        <time>2015-02-22T10:36:02Z</time>
      </trkpt>
      <trkpt lat="47.507733749225736" lon="11.131029780954123">
        <ele>1470.730000000000018</ele>
        <time>2015-02-22T10:36:17Z</time>
      </trkpt>
      <trkpt lat="47.507796864956617" lon="11.131094489246607">
        <ele>1473.029999999999973</ele>
        <time>2015-02-22T10:36:32Z</time>
      </trkpt>
      <trkpt lat="47.507831985130906" lon="11.131136314943433">
        <ele>1475.190000000000055</ele>
        <time>2015-02-22T10:36:48Z</time>
      </trkpt>
      <trkpt lat="47.507859645411372" lon="11.131160957738757">
        <ele>1475.75</ele>
        <time>2015-02-22T10:37:06Z</time>
      </trkpt>
      <trkpt lat="47.507874565199018" lon="11.13118308596313">
        <ele>1476.730000000000018</ele>
        <time>2015-02-22T10:37:20Z</time>
      </trkpt>
      <trkpt lat="47.507896106690168" lon="11.131173614412546">
        <ele>1478.150000000000091</ele>
        <time>2015-02-22T10:37:38Z</time>
      </trkpt>
      <trkpt lat="47.507958635687828" lon="11.131116366013885">
        <ele>1480.789999999999964</ele>
        <time>2015-02-22T10:37:51Z</time>
      </trkpt>
      <trkpt lat="47.508012447506189" lon="11.131058111786842">
        <ele>1482.680000000000064</ele>
        <time>2015-02-22T10:38:03Z</time>
      </trkpt>
      <trkpt lat="47.508042706176639" lon="11.131106894463301">
        <ele>1484.509999999999991</ele>
        <time>2015-02-22T10:38:16Z</time>
      </trkpt>
      <trkpt lat="47.508057709783316" lon="11.131195574998856">
        <ele>1485.809999999999945</ele>
        <time>2015-02-22T10:38:33Z</time>
      </trkpt>
      <trkpt lat="47.508077407255769" lon="11.131229270249605">
        <ele>1487.190000000000055</ele>
        <time>2015-02-22T10:38:41Z</time>
      </trkpt>
      <trkpt lat="47.50810238532722" lon="11.131267407909036">
        <ele>1489.269999999999982</ele>
        <time>2015-02-22T10:38:57Z</time>
      </trkpt>
      <trkpt lat="47.508123759180307" lon="11.131242597475648">
        <ele>1491.490000000000009</ele>
        <time>2015-02-22T10:39:09Z</time>
      </trkpt>
      <trkpt lat="47.508147731423378" lon="11.131317280232906">
        <ele>1493.220000000000027</ele>
        <time>2015-02-22T10:39:24Z</time>
      </trkpt>
      <trkpt lat="47.508195256814361" lon="11.131290877237916">
        <ele>1494.690000000000055</ele>
        <time>2015-02-22T10:39:38Z</time>
      </trkpt>
      <trkpt lat="47.508244542405009" lon="11.13138391636312">
        <ele>1498.009999999999991</ele>
        <time>2015-02-22T10:39:51Z</time>
      </trkpt>
      <trkpt lat="47.508273040875793" lon="11.131486846134067">
        <ele>1500.430000000000064</ele>
        <time>2015-02-22T10:40:10Z</time>
      </trkpt>
      <trkpt lat="47.508325595408678" lon="11.131435129791498">
        <ele>1502.720000000000027</ele>
        <time>2015-02-22T10:40:25Z</time>
      </trkpt>
      <trkpt lat="47.508364403620362" lon="11.131475949659944">
        <ele>1504.690000000000055</ele>
        <time>2015-02-22T10:40:40Z</time>
      </trkpt>
      <trkpt lat="47.50840145163238" lon="11.131521547213197">
        <ele>1507.539999999999964</ele>
        <time>2015-02-22T10:40:52Z</time>
      </trkpt>
      <trkpt lat="47.508431123569608" lon="11.131575275212526">
        <ele>1509.329999999999927</ele>
        <time>2015-02-22T10:41:09Z</time>
      </trkpt>
      <trkpt lat="47.508441433310509" lon="11.131583321839571">
        <ele>1510.440000000000055</ele>
        <time>2015-02-22T10:41:26Z</time>
      </trkpt>
      <trkpt lat="47.5084488093853" lon="11.131572676822543">
        <ele>1510.8599999999999</ele>
        <time>2015-02-22T10:41:29Z</time>
      </trkpt>
      <trkpt lat="47.508505890145898" lon="11.131540993228555">
        <ele>1513.819999999999936</ele>
        <time>2015-02-22T10:41:40Z</time>
      </trkpt>
      <trkpt lat="47.508554505184293" lon="11.131491204723716">
        <ele>1515.8599999999999</ele>
        <time>2015-02-22T10:41:54Z</time>
      </trkpt>
      <trkpt lat="47.508593229576945" lon="11.131468322128057">
        <ele>1518.190000000000055</ele>
        <time>2015-02-22T10:42:10Z</time>
      </trkpt>
      <trkpt lat="47.508624158799648" lon="11.131450301036239">
        <ele>1519.230000000000018</ele>
        <time>2015-02-22T10:42:24Z</time>
      </trkpt>
      <trkpt lat="47.508624494075775" lon="11.131520541384816">
        <ele>1521.690000000000055</ele>
        <time>2015-02-22T10:42:34Z</time>
      </trkpt>
      <trkpt lat="47.508624913170934" lon="11.131652304902673">
        <ele>1523.740000000000009</ele>
        <time>2015-02-22T10:42:51Z</time>
      </trkpt>
      <trkpt lat="47.50864184461534" lon="11.1317044403404">
        <ele>1525.309999999999945</ele>
        <time>2015-02-22T10:43:07Z</time>
      </trkpt>
      <trkpt lat="47.508642515167594" lon="11.131756491959095">
        <ele>1527.6099999999999</ele>
        <time>2015-02-22T10:43:23Z</time>
      </trkpt>
      <trkpt lat="47.508684257045388" lon="11.131756240502">
        <ele>1529.6099999999999</ele>
        <time>2015-02-22T10:43:36Z</time>
      </trkpt>
      <trkpt lat="47.508681658655405" lon="11.131764370948076">
        <ele>1529.539999999999964</ele>
        <time>2015-02-22T10:43:52Z</time>
      </trkpt>
      <trkpt lat="47.508671851828694" lon="11.131765209138393">
        <ele>1529.150000000000091</ele>
        <time>2015-02-22T10:44:07Z</time>
      </trkpt>
      <trkpt lat="47.508665984496474" lon="11.131782224401832">
        <ele>1529.25</ele>
        <time>2015-02-22T10:44:25Z</time>
      </trkpt>
      <trkpt lat="47.508676294237375" lon="11.131855146959424">
        <ele>1530.900000000000091</ele>
        <time>2015-02-22T10:44:41Z</time>
      </trkpt>
      <trkpt lat="47.508682999759912" lon="11.131887333467603">
        <ele>1531</ele>
        <time>2015-02-22T10:45:00Z</time>
      </trkpt>
      <trkpt lat="47.508657351136208" lon="11.131868390366435">
        <ele>1532.430000000000064</ele>
        <time>2015-02-22T10:45:10Z</time>
      </trkpt>
      <trkpt lat="47.508721305057406" lon="11.131873251870275">
        <ele>1533.910000000000082</ele>
        <time>2015-02-22T10:45:27Z</time>
      </trkpt>
      <trkpt lat="47.508734883740544" lon="11.131855901330709">
        <ele>1534.6099999999999</ele>
        <time>2015-02-22T10:45:43Z</time>
      </trkpt>
      <trkpt lat="47.508755838498473" lon="11.131913820281625">
        <ele>1537.6400000000001</ele>
        <time>2015-02-22T10:45:55Z</time>
      </trkpt>
      <trkpt lat="47.508773943409324" lon="11.132007949054241">
        <ele>1539.940000000000055</ele>
        <time>2015-02-22T10:46:13Z</time>
      </trkpt>
      <trkpt lat="47.50878400169313" lon="11.132012810558081">
        <ele>1539.950000000000045</ele>
        <time>2015-02-22T10:46:28Z</time>
      </trkpt>
      <trkpt lat="47.508819876238704" lon="11.132002668455243">
        <ele>1543.059999999999945</ele>
        <time>2015-02-22T10:46:42Z</time>
      </trkpt>
      <trkpt lat="47.508907802402973" lon="11.13197123631835">
        <ele>1546.029999999999973</ele>
        <time>2015-02-22T10:46:57Z</time>
      </trkpt>
      <trkpt lat="47.508967313915491" lon="11.132063772529364">
        <ele>1549.289999999999964</ele>
        <time>2015-02-22T10:47:13Z</time>
      </trkpt>
      <trkpt lat="47.509029256179929" lon="11.132011217996478">
        <ele>1550.940000000000055</ele>
        <time>2015-02-22T10:47:28Z</time>
      </trkpt>
      <trkpt lat="47.509033950045705" lon="11.132001243531704">
        <ele>1551.8900000000001</ele>
        <time>2015-02-22T10:47:41Z</time>
      </trkpt>
      <trkpt lat="47.509035039693117" lon="11.132010547444224">
        <ele>1550.8900000000001</ele>
        <time>2015-02-22T10:47:59Z</time>
      </trkpt>
      <trkpt lat="47.509037889540195" lon="11.132049690932035">
        <ele>1550.6400000000001</ele>
        <time>2015-02-22T10:48:26Z</time>
      </trkpt>
      <trkpt lat="47.509033866226673" lon="11.132034184411168">
        <ele>1551.029999999999973</ele>
        <time>2015-02-22T10:48:49Z</time>
      </trkpt>
      <trkpt lat="47.509016096591949" lon="11.132037872448564">
        <ele>1550.869999999999891</ele>
        <time>2015-02-22T10:49:09Z</time>
      </trkpt>
      <trkpt lat="47.509007044136524" lon="11.132058575749397">
        <ele>1550.809999999999945</ele>
        <time>2015-02-22T10:49:29Z</time>
      </trkpt>
      <trkpt lat="47.509011989459395" lon="11.132058659568429">
        <ele>1550.660000000000082</ele>
        <time>2015-02-22T10:49:45Z</time>
      </trkpt>
      <trkpt lat="47.509058844298124" lon="11.131989927962422">
        <ele>1550.799999999999955</ele>
        <time>2015-02-22T10:50:10Z</time>
      </trkpt>
      <trkpt lat="47.509094132110476" lon="11.13200593739748">
        <ele>1551.029999999999973</ele>
        <time>2015-02-22T10:50:36Z</time>
      </trkpt>
      <trkpt lat="47.50907233916223" lon="11.132005350664258">
        <ele>1550.589999999999918</ele>
        <time>2015-02-22T10:51:16Z</time>
      </trkpt>
      <trkpt lat="47.509031184017658" lon="11.132025551050901">
        <ele>1550.8599999999999</ele>
        <time>2015-02-22T10:51:45Z</time>
      </trkpt>
      <trkpt lat="47.509019197896123" lon="11.132015157490969">
        <ele>1551.230000000000018</ele>
        <time>2015-02-22T10:52:06Z</time>
      </trkpt>
      <trkpt lat="47.509047025814652" lon="11.132012056186795">
        <ele>1551.329999999999927</ele>
        <time>2015-02-22T10:52:29Z</time>
      </trkpt>
      <trkpt lat="47.509038476273417" lon="11.132006021216512">
        <ele>1551.960000000000036</ele>
        <time>2015-02-22T10:52:53Z</time>
      </trkpt>
      <trkpt lat="47.50901903025806" lon="11.132022701203823">
        <ele>1551.220000000000027</ele>
        <time>2015-02-22T10:53:24Z</time>
      </trkpt>
      <trkpt lat="47.509015677496791" lon="11.132011720910668">
        <ele>1552.6099999999999</ele>
        <time>2015-02-22T10:53:28Z</time>
      </trkpt>
      <trkpt lat="47.50901073217392" lon="11.132002081722021">
        <ele>1552.299999999999955</ele>
        <time>2015-02-22T10:53:45Z</time>
      </trkpt>
      <trkpt lat="47.509003104642034" lon="11.132007027044892">
        <ele>1552.3900000000001</ele>
        <time>2015-02-22T10:54:06Z</time>
      </trkpt>
      <trkpt lat="47.509009474888444" lon="11.132022365927696">
        <ele>1552.180000000000064</ele>
        <time>2015-02-22T10:54:26Z</time>
      </trkpt>
      <trkpt lat="47.509007211774588" lon="11.131996801123023">
        <ele>1552.049999999999955</ele>
        <time>2015-02-22T10:54:47Z</time>
      </trkpt>
      <trkpt lat="47.509003775194287" lon="11.131993196904659">
        <ele>1552.299999999999955</ele>
        <time>2015-02-22T10:55:08Z</time>
      </trkpt>
      <trkpt lat="47.509033195674419" lon="11.131998645141721">
        <ele>1553.150000000000091</ele>
        <time>2015-02-22T10:55:25Z</time>
      </trkpt>
      <trkpt lat="47.509043253958225" lon="11.131997555494308">
        <ele>1553.990000000000009</ele>
        <time>2015-02-22T10:55:27Z</time>
      </trkpt>
      <trkpt lat="47.509050210937858" lon="11.131998226046562">
        <ele>1553.349999999999909</ele>
        <time>2015-02-22T10:55:28Z</time>
      </trkpt>
      <trkpt lat="47.509069992229342" lon="11.131996046751738">
        <ele>1554.710000000000036</ele>
        <time>2015-02-22T10:55:31Z</time>
      </trkpt>
      <trkpt lat="47.509119110181928" lon="11.132037620991468">
        <ele>1556.660000000000082</ele>
        <time>2015-02-22T10:55:45Z</time>
      </trkpt>
      <trkpt lat="47.509135622531176" lon="11.132122864946723">
        <ele>1559.160000000000082</ele>
        <time>2015-02-22T10:55:57Z</time>
      </trkpt>
      <trkpt lat="47.509120451286435" lon="11.132215233519673">
        <ele>1560.460000000000036</ele>
        <time>2015-02-22T10:56:10Z</time>
      </trkpt>
      <trkpt lat="47.50909673050046" lon="11.132267117500305">
        <ele>1560.049999999999955</ele>
        <time>2015-02-22T10:56:24Z</time>
      </trkpt>
      <trkpt lat="47.509077033028007" lon="11.132300142198801">
        <ele>1559.720000000000027</ele>
        <time>2015-02-22T10:56:29Z</time>
      </trkpt>
      <trkpt lat="47.509064124897122" lon="11.132346242666245">
        <ele>1561.099999999999909</ele>
        <time>2015-02-22T10:56:43Z</time>
      </trkpt>
      <trkpt lat="47.509049875661731" lon="11.13240516744554">
        <ele>1563.380000000000109</ele>
        <time>2015-02-22T10:56:55Z</time>
      </trkpt>
      <trkpt lat="47.509040907025337" lon="11.132440958172083">
        <ele>1563.799999999999955</ele>
        <time>2015-02-22T10:57:08Z</time>
      </trkpt>
      <trkpt lat="47.509058592841029" lon="11.132509605959058">
        <ele>1566.6099999999999</ele>
        <time>2015-02-22T10:57:22Z</time>
      </trkpt>
      <trkpt lat="47.509058089926839" lon="11.132580265402794">
        <ele>1568.849999999999909</ele>
        <time>2015-02-22T10:57:33Z</time>
      </trkpt>
      <trkpt lat="47.509104693308473" lon="11.132628796622157">
        <ele>1570.569999999999936</ele>
        <time>2015-02-22T10:57:48Z</time>
      </trkpt>
      <trkpt lat="47.509128078818321" lon="11.132632065564394">
        <ele>1571.460000000000036</ele>
        <time>2015-02-22T10:57:52Z</time>
      </trkpt>
      <trkpt lat="47.509174179285765" lon="11.132653523236513">
        <ele>1572.900000000000091</ele>
        <time>2015-02-22T10:57:58Z</time>
      </trkpt>
      <trkpt lat="47.509229248389602" lon="11.132658384740353">
        <ele>1574.970000000000027</ele>
        <time>2015-02-22T10:58:11Z</time>
      </trkpt>
      <trkpt lat="47.509298147633672" lon="11.132686464115977">
        <ele>1577.099999999999909</ele>
        <time>2015-02-22T10:58:23Z</time>
      </trkpt>
      <trkpt lat="47.509348690509796" lon="11.132713621482253">
        <ele>1578.130000000000109</ele>
        <time>2015-02-22T10:58:35Z</time>
      </trkpt>
      <trkpt lat="47.509396467357874" lon="11.132730385288596">
        <ele>1581.029999999999973</ele>
        <time>2015-02-22T10:58:49Z</time>
      </trkpt>
      <trkpt lat="47.509404513984919" lon="11.132798530161381">
        <ele>1582.339999999999918</ele>
        <time>2015-02-22T10:59:00Z</time>
      </trkpt>
      <trkpt lat="47.509472910314798" lon="11.132824849337339">
        <ele>1584.440000000000055</ele>
        <time>2015-02-22T10:59:12Z</time>
      </trkpt>
      <trkpt lat="47.509506521746516" lon="11.132807079702616">
        <ele>1586.480000000000018</ele>
        <time>2015-02-22T10:59:24Z</time>
      </trkpt>
      <trkpt lat="47.509517418220639" lon="11.132839266210794">
        <ele>1588.849999999999909</ele>
        <time>2015-02-22T10:59:38Z</time>
      </trkpt>
      <trkpt lat="47.50951012596488" lon="11.132872877642512">
        <ele>1588.369999999999891</ele>
        <time>2015-02-22T10:59:51Z</time>
      </trkpt>
      <trkpt lat="47.509503839537501" lon="11.13288352265954">
        <ele>1590.309999999999945</ele>
        <time>2015-02-22T11:00:06Z</time>
      </trkpt>
      <trkpt lat="47.509485399350524" lon="11.132984105497599">
        <ele>1592.539999999999964</ele>
        <time>2015-02-22T11:00:21Z</time>
      </trkpt>
      <trkpt lat="47.509473664686084" lon="11.133064907044172">
        <ele>1594.950000000000045</ele>
        <time>2015-02-22T11:00:34Z</time>
      </trkpt>
      <trkpt lat="47.509452626109123" lon="11.133144116029143">
        <ele>1597.1099999999999</ele>
        <time>2015-02-22T11:00:47Z</time>
      </trkpt>
      <trkpt lat="47.509439717978239" lon="11.133209997788072">
        <ele>1598.8599999999999</ele>
        <time>2015-02-22T11:01:02Z</time>
      </trkpt>
      <trkpt lat="47.509443322196603" lon="11.133234389126301">
        <ele>1599</ele>
        <time>2015-02-22T11:01:17Z</time>
      </trkpt>
      <trkpt lat="47.509446758776903" lon="11.133260708302259">
        <ele>1599.480000000000018</ele>
        <time>2015-02-22T11:01:31Z</time>
      </trkpt>
      <trkpt lat="47.509496044367552" lon="11.133223241195083">
        <ele>1601.369999999999891</ele>
        <time>2015-02-22T11:01:47Z</time>
      </trkpt>
      <trkpt lat="47.509529907256365" lon="11.133204717189074">
        <ele>1603.369999999999891</ele>
        <time>2015-02-22T11:02:01Z</time>
      </trkpt>
      <trkpt lat="47.509531248360872" lon="11.13327638246119">
        <ele>1604.839999999999918</ele>
        <time>2015-02-22T11:02:16Z</time>
      </trkpt>
      <trkpt lat="47.509541055187583" lon="11.133358106017113">
        <ele>1607.519999999999982</ele>
        <time>2015-02-22T11:02:31Z</time>
      </trkpt>
      <trkpt lat="47.50957558862865" lon="11.133429687470198">
        <ele>1609.269999999999982</ele>
        <time>2015-02-22T11:02:46Z</time>
      </trkpt>
      <trkpt lat="47.509588915854692" lon="11.133500430732965">
        <ele>1610.119999999999891</ele>
        <time>2015-02-22T11:03:07Z</time>
      </trkpt>
      <trkpt lat="47.509617917239666" lon="11.133519038558006">
        <ele>1612.240000000000009</ele>
        <time>2015-02-22T11:03:20Z</time>
      </trkpt>
      <trkpt lat="47.50967332161963" lon="11.133469920605421">
        <ele>1613.990000000000009</ele>
        <time>2015-02-22T11:03:34Z</time>
      </trkpt>
      <trkpt lat="47.509719170629978" lon="11.133541837334633">
        <ele>1617.170000000000073</ele>
        <time>2015-02-22T11:03:47Z</time>
      </trkpt>
      <trkpt lat="47.509764265269041" lon="11.133575281128287">
        <ele>1619.619999999999891</ele>
        <time>2015-02-22T11:04:02Z</time>
      </trkpt>
      <trkpt lat="47.509767115116119" lon="11.133576538413763">
        <ele>1620.1099999999999</ele>
        <time>2015-02-22T11:04:16Z</time>
      </trkpt>
      <trkpt lat="47.509763510897756" lon="11.133566563948989">
        <ele>1620.730000000000018</ele>
        <time>2015-02-22T11:04:39Z</time>
      </trkpt>
      <trkpt lat="47.509763175621629" lon="11.13357100635767">
        <ele>1620.519999999999982</ele>
        <time>2015-02-22T11:05:05Z</time>
      </trkpt>
      <trkpt lat="47.509760912507772" lon="11.133568659424782">
        <ele>1620.569999999999936</ele>
        <time>2015-02-22T11:05:30Z</time>
      </trkpt>
      <trkpt lat="47.509762924164534" lon="11.133563630282879">
        <ele>1620.3599999999999</ele>
        <time>2015-02-22T11:05:54Z</time>
      </trkpt>
      <trkpt lat="47.509761918336153" lon="11.133561199530959">
        <ele>1620.849999999999909</ele>
        <time>2015-02-22T11:06:23Z</time>
      </trkpt>
      <trkpt lat="47.509786561131477" lon="11.133583746850491">
        <ele>1621.490000000000009</ele>
        <time>2015-02-22T11:06:36Z</time>
      </trkpt>
      <trkpt lat="47.509828973561525" lon="11.133706709370017">
        <ele>1624.1099999999999</ele>
        <time>2015-02-22T11:06:52Z</time>
      </trkpt>
      <trkpt lat="47.509870883077383" lon="11.133818021044135">
        <ele>1625.779999999999973</ele>
        <time>2015-02-22T11:07:07Z</time>
      </trkpt>
      <trkpt lat="47.509879684075713" lon="11.133818691596389">
        <ele>1626.279999999999973</ele>
        <time>2015-02-22T11:07:30Z</time>
      </trkpt>
      <trkpt lat="47.509897705167532" lon="11.13389739766717">
        <ele>1627.279999999999973</ele>
        <time>2015-02-22T11:07:40Z</time>
      </trkpt>
      <trkpt lat="47.509965850040317" lon="11.134051037952304">
        <ele>1629.019999999999982</ele>
        <time>2015-02-22T11:07:58Z</time>
      </trkpt>
      <trkpt lat="47.509997114539146" lon="11.134083727374673">
        <ele>1630.910000000000082</ele>
        <time>2015-02-22T11:08:05Z</time>
      </trkpt>
      <trkpt lat="47.510054865851998" lon="11.13413980230689">
        <ele>1632.910000000000082</ele>
        <time>2015-02-22T11:08:20Z</time>
      </trkpt>
      <trkpt lat="47.510098116472363" lon="11.134177856147289">
        <ele>1635.410000000000082</ele>
        <time>2015-02-22T11:08:34Z</time>
      </trkpt>
      <trkpt lat="47.510142708197236" lon="11.134209120646119">
        <ele>1637.690000000000055</ele>
        <time>2015-02-22T11:08:48Z</time>
      </trkpt>
      <trkpt lat="47.510178918018937" lon="11.134208953008056">
        <ele>1639.910000000000082</ele>
        <time>2015-02-22T11:09:01Z</time>
      </trkpt>
      <trkpt lat="47.510234992951155" lon="11.134296208620071">
        <ele>1642.759999999999991</ele>
        <time>2015-02-22T11:09:17Z</time>
      </trkpt>
      <trkpt lat="47.510273884981871" lon="11.134380782023072">
        <ele>1645.160000000000082</ele>
        <time>2015-02-22T11:09:32Z</time>
      </trkpt>
      <trkpt lat="47.510333061218262" lon="11.134459907189012">
        <ele>1647.289999999999964</ele>
        <time>2015-02-22T11:09:48Z</time>
      </trkpt>
      <trkpt lat="47.510361559689045" lon="11.134467031806707">
        <ele>1648.789999999999964</ele>
        <time>2015-02-22T11:10:01Z</time>
      </trkpt>
      <trkpt lat="47.510377066209912" lon="11.134477257728577">
        <ele>1649.079999999999927</ele>
        <time>2015-02-22T11:10:24Z</time>
      </trkpt>
      <trkpt lat="47.510405229404569" lon="11.134505337104201">
        <ele>1650.710000000000036</ele>
        <time>2015-02-22T11:10:41Z</time>
      </trkpt>
      <trkpt lat="47.510473458096385" lon="11.13456099294126">
        <ele>1652.960000000000036</ele>
        <time>2015-02-22T11:11:01Z</time>
      </trkpt>
      <trkpt lat="47.510483264923096" lon="11.134579516947269">
        <ele>1653.900000000000091</ele>
        <time>2015-02-22T11:11:17Z</time>
      </trkpt>
      <trkpt lat="47.510523833334446" lon="11.134621342644095">
        <ele>1655.269999999999982</ele>
        <time>2015-02-22T11:11:39Z</time>
      </trkpt>
      <trkpt lat="47.510556187480688" lon="11.134634166955948">
        <ele>1657.029999999999973</ele>
        <time>2015-02-22T11:11:44Z</time>
      </trkpt>
      <trkpt lat="47.510638581588864" lon="11.134742712602019">
        <ele>1660.309999999999945</ele>
        <time>2015-02-22T11:12:00Z</time>
      </trkpt>
      <trkpt lat="47.510723909363151" lon="11.134836673736572">
        <ele>1663.039999999999964</ele>
        <time>2015-02-22T11:12:15Z</time>
      </trkpt>
      <trkpt lat="47.510769926011562" lon="11.134972712025046">
        <ele>1665.920000000000073</ele>
        <time>2015-02-22T11:12:31Z</time>
      </trkpt>
      <trkpt lat="47.51081233844161" lon="11.135080503299832">
        <ele>1665.75</ele>
        <time>2015-02-22T11:12:50Z</time>
      </trkpt>
      <trkpt lat="47.510865647345781" lon="11.135152084752917">
        <ele>1668.880000000000109</ele>
        <time>2015-02-22T11:13:02Z</time>
      </trkpt>
      <trkpt lat="47.51092080026865" lon="11.135225258767605">
        <ele>1671.460000000000036</ele>
        <time>2015-02-22T11:13:17Z</time>
      </trkpt>
      <trkpt lat="47.510961536318064" lon="11.135289883241057">
        <ele>1672.460000000000036</ele>
        <time>2015-02-22T11:13:34Z</time>
      </trkpt>
      <trkpt lat="47.510990621522069" lon="11.135340509936213">
        <ele>1675.480000000000018</ele>
        <time>2015-02-22T11:13:47Z</time>
      </trkpt>
      <trkpt lat="47.511020712554455" lon="11.135425083339214">
        <ele>1678.799999999999955</ele>
        <time>2015-02-22T11:13:59Z</time>
      </trkpt>
      <trkpt lat="47.511050552129745" lon="11.13549574278295">
        <ele>1679.599999999999909</ele>
        <time>2015-02-22T11:14:12Z</time>
      </trkpt>
      <trkpt lat="47.511129006743431" lon="11.135556679219007">
        <ele>1682.089999999999918</ele>
        <time>2015-02-22T11:14:28Z</time>
      </trkpt>
      <trkpt lat="47.511174185201526" lon="11.135591212660074">
        <ele>1684.089999999999918</ele>
        <time>2015-02-22T11:14:42Z</time>
      </trkpt>
      <trkpt lat="47.511187847703695" lon="11.13560076802969">
        <ele>1684.75</ele>
        <time>2015-02-22T11:15:02Z</time>
      </trkpt>
      <trkpt lat="47.511183824390173" lon="11.135621219873428">
        <ele>1685.289999999999964</ele>
        <time>2015-02-22T11:15:20Z</time>
      </trkpt>
      <trkpt lat="47.511178459972143" lon="11.135616861283779">
        <ele>1685.009999999999991</ele>
        <time>2015-02-22T11:15:49Z</time>
      </trkpt>
      <trkpt lat="47.51118122600019" lon="11.135612670332193">
        <ele>1684.450000000000045</ele>
        <time>2015-02-22T11:16:11Z</time>
      </trkpt>
      <trkpt lat="47.511188769713044" lon="11.135618202388287">
        <ele>1685.039999999999964</ele>
        <time>2015-02-22T11:16:37Z</time>
      </trkpt>
      <trkpt lat="47.511189356446266" lon="11.135628931224346">
        <ele>1684.700000000000045</ele>
        <time>2015-02-22T11:16:57Z</time>
      </trkpt>
      <trkpt lat="47.511193966493011" lon="11.135640498250723">
        <ele>1684.700000000000045</ele>
        <time>2015-02-22T11:17:21Z</time>
      </trkpt>
      <trkpt lat="47.511201845481992" lon="11.135637061670423">
        <ele>1684.660000000000082</ele>
        <time>2015-02-22T11:17:32Z</time>
      </trkpt>
      <trkpt lat="47.511292034760118" lon="11.135676372796297">
        <ele>1687.650000000000091</ele>
        <time>2015-02-22T11:17:47Z</time>
      </trkpt>
      <trkpt lat="47.511367052793503" lon="11.135777374729514">
        <ele>1690.440000000000055</ele>
        <time>2015-02-22T11:18:05Z</time>
      </trkpt>
      <trkpt lat="47.51141675747931" lon="11.13587636500597">
        <ele>1693.710000000000036</ele>
        <time>2015-02-22T11:18:20Z</time>
      </trkpt>
      <trkpt lat="47.511458666995168" lon="11.136017348617315">
        <ele>1696.259999999999991</ele>
        <time>2015-02-22T11:18:36Z</time>
      </trkpt>
      <trkpt lat="47.511499403044581" lon="11.136101838201284">
        <ele>1699.339999999999918</ele>
        <time>2015-02-22T11:18:49Z</time>
      </trkpt>
      <trkpt lat="47.51151641830802" lon="11.136172665283084">
        <ele>1700.460000000000036</ele>
        <time>2015-02-22T11:19:06Z</time>
      </trkpt>
      <trkpt lat="47.511505018919706" lon="11.136296130716801">
        <ele>1699.950000000000045</ele>
        <time>2015-02-22T11:19:21Z</time>
      </trkpt>
      <trkpt lat="47.511501247063279" lon="11.136339129880071">
        <ele>1700.490000000000009</ele>
        <time>2015-02-22T11:19:40Z</time>
      </trkpt>
      <trkpt lat="47.511514406651258" lon="11.136417249217629">
        <ele>1702.670000000000073</ele>
        <time>2015-02-22T11:19:53Z</time>
      </trkpt>
      <trkpt lat="47.511548101902008" lon="11.136370478197932">
        <ele>1703.430000000000064</ele>
        <time>2015-02-22T11:20:08Z</time>
      </trkpt>
      <trkpt lat="47.51158875413239" lon="11.136302500963211">
        <ele>1706.75</ele>
        <time>2015-02-22T11:20:22Z</time>
      </trkpt>
      <trkpt lat="47.511610714718699" lon="11.13634591922164">
        <ele>1707.160000000000082</ele>
        <time>2015-02-22T11:20:32Z</time>
      </trkpt>
      <trkpt lat="47.511645499616861" lon="11.136493356898427">
        <ele>1710.289999999999964</ele>
        <time>2015-02-22T11:20:47Z</time>
      </trkpt>
      <trkpt lat="47.511657066643238" lon="11.13655605353415">
        <ele>1712.079999999999927</ele>
        <time>2015-02-22T11:21:02Z</time>
      </trkpt>
      <trkpt lat="47.511656479910016" lon="11.136550270020962">
        <ele>1712.339999999999918</ele>
        <time>2015-02-22T11:21:23Z</time>
      </trkpt>
      <trkpt lat="47.511652372777462" lon="11.136698378250003">
        <ele>1714.430000000000064</ele>
        <time>2015-02-22T11:21:40Z</time>
      </trkpt>
      <trkpt lat="47.511699898168445" lon="11.136891162022948">
        <ele>1717.690000000000055</ele>
        <time>2015-02-22T11:21:59Z</time>
      </trkpt>
      <trkpt lat="47.511712303385139" lon="11.136934328824282">
        <ele>1719.259999999999991</ele>
        <time>2015-02-22T11:22:12Z</time>
      </trkpt>
      <trkpt lat="47.511716661974788" lon="11.13702560774982">
        <ele>1718.470000000000027</ele>
        <time>2015-02-22T11:22:40Z</time>
      </trkpt>
      <trkpt lat="47.511722361668944" lon="11.137065589427948">
        <ele>1718.1099999999999</ele>
        <time>2015-02-22T11:22:43Z</time>
      </trkpt>
      <trkpt lat="47.511730408295989" lon="11.137108756229281">
        <ele>1718.269999999999982</ele>
        <time>2015-02-22T11:22:46Z</time>
      </trkpt>
      <trkpt lat="47.511763852089643" lon="11.137287290766835">
        <ele>1720.569999999999936</ele>
        <time>2015-02-22T11:23:00Z</time>
      </trkpt>
      <trkpt lat="47.511810790747404" lon="11.137427603825927">
        <ele>1723.369999999999891</ele>
        <time>2015-02-22T11:23:15Z</time>
      </trkpt>
      <trkpt lat="47.511802325025201" lon="11.137518966570497">
        <ele>1724.680000000000064</ele>
        <time>2015-02-22T11:23:23Z</time>
      </trkpt>
      <trkpt lat="47.511796709150076" lon="11.137708313763142">
        <ele>1727.720000000000027</ele>
        <time>2015-02-22T11:23:40Z</time>
      </trkpt>
      <trkpt lat="47.511797044426203" lon="11.13778836093843">
        <ele>1730.660000000000082</ele>
        <time>2015-02-22T11:23:54Z</time>
      </trkpt>
      <trkpt lat="47.511823112145066" lon="11.137912580743432">
        <ele>1733.930000000000064</ele>
        <time>2015-02-22T11:24:07Z</time>
      </trkpt>
      <trkpt lat="47.511844737455249" lon="11.138047780841589">
        <ele>1735.279999999999973</ele>
        <time>2015-02-22T11:24:24Z</time>
      </trkpt>
      <trkpt lat="47.511844821274281" lon="11.138054821640253">
        <ele>1735.490000000000009</ele>
        <time>2015-02-22T11:24:25Z</time>
      </trkpt>
      <trkpt lat="47.51184331253171" lon="11.138091031461954">
        <ele>1735.269999999999982</ele>
        <time>2015-02-22T11:24:28Z</time>
      </trkpt>
      <trkpt lat="47.511832918971777" lon="11.13833955489099">
        <ele>1737.25</ele>
        <time>2015-02-22T11:24:48Z</time>
      </trkpt>
      <trkpt lat="47.511839456856251" lon="11.13838498480618">
        <ele>1738.769999999999982</ele>
        <time>2015-02-22T11:24:56Z</time>
      </trkpt>
      <trkpt lat="47.511869966983795" lon="11.138488417491317">
        <ele>1742.240000000000009</ele>
        <time>2015-02-22T11:25:09Z</time>
      </trkpt>
      <trkpt lat="47.511878767982125" lon="11.138509623706341">
        <ele>1741.589999999999918</ele>
        <time>2015-02-22T11:25:11Z</time>
      </trkpt>
      <trkpt lat="47.511903746053576" lon="11.138619678094983">
        <ele>1742.470000000000027</ele>
        <time>2015-02-22T11:25:20Z</time>
      </trkpt>
      <trkpt lat="47.511941213160753" lon="11.138832243159413">
        <ele>1745.5</ele>
        <time>2015-02-22T11:25:37Z</time>
      </trkpt>
      <trkpt lat="47.511963676661253" lon="11.138969790190458">
        <ele>1748.880000000000109</ele>
        <time>2015-02-22T11:25:52Z</time>
      </trkpt>
      <trkpt lat="47.511981278657913" lon="11.139117144048214">
        <ele>1751.099999999999909</ele>
        <time>2015-02-22T11:26:08Z</time>
      </trkpt>
      <trkpt lat="47.511983374133706" lon="11.139132231473923">
        <ele>1752.069999999999936</ele>
        <time>2015-02-22T11:26:10Z</time>
      </trkpt>
      <trkpt lat="47.512010112404823" lon="11.139209596440196">
        <ele>1752.869999999999891</ele>
        <time>2015-02-22T11:26:26Z</time>
      </trkpt>
      <trkpt lat="47.512009860947728" lon="11.13922007381916">
        <ele>1752.170000000000073</ele>
        <time>2015-02-22T11:26:40Z</time>
      </trkpt>
      <trkpt lat="47.511995360255241" lon="11.139212781563401">
        <ele>1752.440000000000055</ele>
        <time>2015-02-22T11:26:54Z</time>
      </trkpt>
      <trkpt lat="47.511978428810835" lon="11.139188641682267">
        <ele>1752.230000000000018</ele>
        <time>2015-02-22T11:27:13Z</time>
      </trkpt>
      <trkpt lat="47.511974992230535" lon="11.139196436852217">
        <ele>1752.220000000000027</ele>
        <time>2015-02-22T11:27:34Z</time>
      </trkpt>
      <trkpt lat="47.511978931725025" lon="11.139209177345037">
        <ele>1752.369999999999891</ele>
        <time>2015-02-22T11:27:53Z</time>
      </trkpt>
      <trkpt lat="47.511974405497313" lon="11.139200124889612">
        <ele>1751.849999999999909</ele>
        <time>2015-02-22T11:28:07Z</time>
      </trkpt>
      <trkpt lat="47.511966777965426" lon="11.139224516227841">
        <ele>1750.920000000000073</ele>
        <time>2015-02-22T11:28:12Z</time>
      </trkpt>
      <trkpt lat="47.511962251737714" lon="11.139261815696955">
        <ele>1750.700000000000045</ele>
        <time>2015-02-22T11:28:14Z</time>
      </trkpt>
      <trkpt lat="47.511957390233874" lon="11.139296181499958">
        <ele>1750.130000000000109</ele>
        <time>2015-02-22T11:28:15Z</time>
      </trkpt>
      <trkpt lat="47.51194934360683" lon="11.139334738254547">
        <ele>1749.710000000000036</ele>
        <time>2015-02-22T11:28:16Z</time>
      </trkpt>
      <trkpt lat="47.511940458789468" lon="11.139373211190104">
        <ele>1748.960000000000036</ele>
        <time>2015-02-22T11:28:17Z</time>
      </trkpt>
      <trkpt lat="47.511932831257582" lon="11.13940766081214">
        <ele>1748.210000000000036</ele>
        <time>2015-02-22T11:28:18Z</time>
      </trkpt>
      <trkpt lat="47.511883461847901" lon="11.139608826488256">
        <ele>1744.839999999999918</ele>
        <time>2015-02-22T11:28:23Z</time>
      </trkpt>
      <trkpt lat="47.511882456019521" lon="11.139657609164715">
        <ele>1744.940000000000055</ele>
        <time>2015-02-22T11:28:24Z</time>
      </trkpt>
      <trkpt lat="47.51188044436276" lon="11.139687616378069">
        <ele>1743.099999999999909</ele>
        <time>2015-02-22T11:28:26Z</time>
      </trkpt>
      <trkpt lat="47.511877091601491" lon="11.139681497588754">
        <ele>1743.200000000000045</ele>
        <time>2015-02-22T11:28:41Z</time>
      </trkpt>
      <trkpt lat="47.511864434927702" lon="11.139713684096932">
        <ele>1743</ele>
        <time>2015-02-22T11:28:55Z</time>
      </trkpt>
      <trkpt lat="47.511855717748404" lon="11.139725334942341">
        <ele>1742.5</ele>
        <time>2015-02-22T11:28:56Z</time>
      </trkpt>
      <trkpt lat="47.511752536520362" lon="11.139903785660863">
        <ele>1739.3599999999999</ele>
        <time>2015-02-22T11:29:10Z</time>
      </trkpt>
      <trkpt lat="47.511717919260263" lon="11.140019707381725">
        <ele>1735.950000000000045</ele>
        <time>2015-02-22T11:29:14Z</time>
      </trkpt>
      <trkpt lat="47.511713728308678" lon="11.140038650482893">
        <ele>1736.130000000000109</ele>
        <time>2015-02-22T11:29:15Z</time>
      </trkpt>
      <trkpt lat="47.511710710823536" lon="11.140051055699587">
        <ele>1736.769999999999982</ele>
        <time>2015-02-22T11:29:21Z</time>
      </trkpt>
      <trkpt lat="47.511692857369781" lon="11.140124229714274">
        <ele>1734.819999999999936</ele>
        <time>2015-02-22T11:29:38Z</time>
      </trkpt>
      <trkpt lat="47.511684391647577" lon="11.140162367373705">
        <ele>1734.5</ele>
        <time>2015-02-22T11:29:40Z</time>
      </trkpt>
      <trkpt lat="47.511676009744406" lon="11.140188435092568">
        <ele>1734.210000000000036</ele>
        <time>2015-02-22T11:29:41Z</time>
      </trkpt>
      <trkpt lat="47.511663269251585" lon="11.140215927734971">
        <ele>1733.150000000000091</ele>
        <time>2015-02-22T11:29:42Z</time>
      </trkpt>
      <trkpt lat="47.51163418404758" lon="11.140273008495569">
        <ele>1732.5</ele>
        <time>2015-02-22T11:29:44Z</time>
      </trkpt>
      <trkpt lat="47.511617252603173" lon="11.140320114791393">
        <ele>1731.579999999999927</ele>
        <time>2015-02-22T11:29:46Z</time>
      </trkpt>
      <trkpt lat="47.511556902900338" lon="11.140445172786713">
        <ele>1729.400000000000091</ele>
        <time>2015-02-22T11:29:51Z</time>
      </trkpt>
      <trkpt lat="47.511523459106684" lon="11.14049294963479">
        <ele>1729.6400000000001</ele>
        <time>2015-02-22T11:30:00Z</time>
      </trkpt>
      <trkpt lat="47.511478699743748" lon="11.140546007081866">
        <ele>1728.759999999999991</ele>
        <time>2015-02-22T11:30:17Z</time>
      </trkpt>
      <trkpt lat="47.511463779956102" lon="11.140566542744637">
        <ele>1728.619999999999891</ele>
        <time>2015-02-22T11:30:20Z</time>
      </trkpt>
      <trkpt lat="47.511439891532063" lon="11.140700234100223">
        <ele>1728.970000000000027</ele>
        <time>2015-02-22T11:30:32Z</time>
      </trkpt>
      <trkpt lat="47.511375853791833" lon="11.140875918790698">
        <ele>1728.630000000000109</ele>
        <time>2015-02-22T11:30:47Z</time>
      </trkpt>
      <trkpt lat="47.511288095265627" lon="11.141077084466815">
        <ele>1731.430000000000064</ele>
        <time>2015-02-22T11:31:06Z</time>
      </trkpt>
      <trkpt lat="47.511202767491341" lon="11.141270874068141">
        <ele>1734.589999999999918</ele>
        <time>2015-02-22T11:31:24Z</time>
      </trkpt>
      <trkpt lat="47.511112075299025" lon="11.141451168805361">
        <ele>1736.960000000000036</ele>
        <time>2015-02-22T11:31:43Z</time>
      </trkpt>
      <trkpt lat="47.511029597371817" lon="11.141533395275474">
        <ele>1738.3599999999999</ele>
        <time>2015-02-22T11:31:56Z</time>
      </trkpt>
      <trkpt lat="47.510893559083343" lon="11.141623584553599">
        <ele>1740.220000000000027</ele>
        <time>2015-02-22T11:32:14Z</time>
      </trkpt>
      <trkpt lat="47.510789288207889" lon="11.141698686406016">
        <ele>1743.279999999999973</ele>
        <time>2015-02-22T11:32:30Z</time>
      </trkpt>
      <trkpt lat="47.510689711198211" lon="11.141762807965279">
        <ele>1746.569999999999936</ele>
        <time>2015-02-22T11:32:45Z</time>
      </trkpt>
      <trkpt lat="47.510583596304059" lon="11.141837071627378">
        <ele>1749.049999999999955</ele>
        <time>2015-02-22T11:33:01Z</time>
      </trkpt>
      <trkpt lat="47.510488210245967" lon="11.141904462128878">
        <ele>1751.660000000000082</ele>
        <time>2015-02-22T11:33:17Z</time>
      </trkpt>
      <trkpt lat="47.510377820581198" lon="11.141994567587972">
        <ele>1753.920000000000073</ele>
        <time>2015-02-22T11:33:33Z</time>
      </trkpt>
      <trkpt lat="47.510280087590218" lon="11.142081907019019">
        <ele>1756.309999999999945</ele>
        <time>2015-02-22T11:33:48Z</time>
      </trkpt>
      <trkpt lat="47.510183611884713" lon="11.142171090468764">
        <ele>1759.029999999999973</ele>
        <time>2015-02-22T11:34:03Z</time>
      </trkpt>
      <trkpt lat="47.51008135266602" lon="11.142240827903152">
        <ele>1761.970000000000027</ele>
        <time>2015-02-22T11:34:19Z</time>
      </trkpt>
      <trkpt lat="47.509977333247662" lon="11.142333028838038">
        <ele>1764.690000000000055</ele>
        <time>2015-02-22T11:34:35Z</time>
      </trkpt>
      <trkpt lat="47.509863255545497" lon="11.142417183145881">
        <ele>1766.529999999999973</ele>
        <time>2015-02-22T11:34:51Z</time>
      </trkpt>
      <trkpt lat="47.509759739041328" lon="11.142493793740869">
        <ele>1769.230000000000018</ele>
        <time>2015-02-22T11:35:07Z</time>
      </trkpt>
      <trkpt lat="47.509614815935493" lon="11.142604518681765">
        <ele>1771.670000000000073</ele>
        <time>2015-02-22T11:35:28Z</time>
      </trkpt>
      <trkpt lat="47.509499816223979" lon="11.142681045457721">
        <ele>1774.769999999999982</ele>
        <time>2015-02-22T11:35:43Z</time>
      </trkpt>
      <trkpt lat="47.50937819480896" lon="11.142758578062057">
        <ele>1777.410000000000082</ele>
        <time>2015-02-22T11:35:59Z</time>
      </trkpt>
      <trkpt lat="47.509240563958883" lon="11.14281733520329">
        <ele>1780.940000000000055</ele>
        <time>2015-02-22T11:36:16Z</time>
      </trkpt>
      <trkpt lat="47.509102346375585" lon="11.142860502004623">
        <ele>1782.079999999999927</ele>
        <time>2015-02-22T11:36:32Z</time>
      </trkpt>
      <trkpt lat="47.509058760479093" lon="11.142885647714138">
        <ele>1783.200000000000045</ele>
        <time>2015-02-22T11:36:37Z</time>
      </trkpt>
      <trkpt lat="47.509050630033016" lon="11.142893359065056">
        <ele>1783.170000000000073</ele>
        <time>2015-02-22T11:36:38Z</time>
      </trkpt>
      <trkpt lat="47.508868910372257" lon="11.143031576648355">
        <ele>1785.079999999999927</ele>
        <time>2015-02-22T11:36:57Z</time>
      </trkpt>
      <trkpt lat="47.508729351684451" lon="11.143150934949517">
        <ele>1785.230000000000018</ele>
        <time>2015-02-22T11:37:15Z</time>
      </trkpt>
      <trkpt lat="47.508714348077774" lon="11.143159568309784">
        <ele>1786.25</ele>
        <time>2015-02-22T11:37:31Z</time>
      </trkpt>
      <trkpt lat="47.508716359734535" lon="11.143143139779568">
        <ele>1787.130000000000109</ele>
        <time>2015-02-22T11:37:45Z</time>
      </trkpt>
      <trkpt lat="47.508698254823685" lon="11.143172141164541">
        <ele>1786.289999999999964</ele>
        <time>2015-02-22T11:38:01Z</time>
      </trkpt>
      <trkpt lat="47.508696997538209" lon="11.143188653513789">
        <ele>1785.970000000000027</ele>
        <time>2015-02-22T11:38:19Z</time>
      </trkpt>
      <trkpt lat="47.508689202368259" lon="11.143183456733823">
        <ele>1784.869999999999891</ele>
        <time>2015-02-22T11:38:33Z</time>
      </trkpt>
      <trkpt lat="47.508686268702149" lon="11.143181025981903">
        <ele>1783.700000000000045</ele>
        <time>2015-02-22T11:38:54Z</time>
      </trkpt>
      <trkpt lat="47.508687609806657" lon="11.143183875828981">
        <ele>1784.230000000000018</ele>
        <time>2015-02-22T11:39:23Z</time>
      </trkpt>
      <trkpt lat="47.508692052215338" lon="11.143183037638664">
        <ele>1784.019999999999982</ele>
        <time>2015-02-22T11:39:55Z</time>
      </trkpt>
      <trkpt lat="47.508694063872099" lon="11.143188485875726">
        <ele>1785.180000000000064</ele>
        <time>2015-02-22T11:40:29Z</time>
      </trkpt>
      <trkpt lat="47.508697081357241" lon="11.143179936334491">
        <ele>1785.950000000000045</ele>
        <time>2015-02-22T11:40:44Z</time>
      </trkpt>
      <trkpt lat="47.508700517937541" lon="11.143177840858698">
        <ele>1785.569999999999936</ele>
        <time>2015-02-22T11:41:08Z</time>
      </trkpt>
      <trkpt lat="47.50867553986609" lon="11.143148588016629">
        <ele>1785.349999999999909</ele>
        <time>2015-02-22T11:41:24Z</time>
      </trkpt>
      <trkpt lat="47.508621392771602" lon="11.143140709027648">
        <ele>1783.839999999999918</ele>
        <time>2015-02-22T11:41:32Z</time>
      </trkpt>
      <trkpt lat="47.508608819916844" lon="11.143141631036997">
        <ele>1783.210000000000036</ele>
        <time>2015-02-22T11:41:33Z</time>
      </trkpt>
      <trkpt lat="47.508397931233048" lon="11.143168034031987">
        <ele>1780.180000000000064</ele>
        <time>2015-02-22T11:41:42Z</time>
      </trkpt>
      <trkpt lat="47.508306903764606" lon="11.143212793394923">
        <ele>1779.279999999999973</ele>
        <time>2015-02-22T11:41:51Z</time>
      </trkpt>
      <trkpt lat="47.508290894329548" lon="11.143217654898763">
        <ele>1779.3599999999999</ele>
        <time>2015-02-22T11:41:53Z</time>
      </trkpt>
      <trkpt lat="47.50827245414257" lon="11.143231568858027">
        <ele>1779.539999999999964</ele>
        <time>2015-02-22T11:41:55Z</time>
      </trkpt>
      <trkpt lat="47.508195927366614" lon="11.143383951857686">
        <ele>1780.309999999999945</ele>
        <time>2015-02-22T11:42:12Z</time>
      </trkpt>
      <trkpt lat="47.508205147460103" lon="11.143386550247669">
        <ele>1780.369999999999891</ele>
        <time>2015-02-22T11:42:13Z</time>
      </trkpt>
      <trkpt lat="47.508239177986979" lon="11.143365511670709">
        <ele>1780.420000000000073</ele>
        <time>2015-02-22T11:42:17Z</time>
      </trkpt>
      <trkpt lat="47.508279327303171" lon="11.143311113119125">
        <ele>1781.299999999999955</ele>
        <time>2015-02-22T11:42:32Z</time>
      </trkpt>
      <trkpt lat="47.508291732519865" lon="11.143316561356187">
        <ele>1780.039999999999964</ele>
        <time>2015-02-22T11:42:45Z</time>
      </trkpt>
      <trkpt lat="47.508292738348246" lon="11.143327122554183">
        <ele>1780.339999999999918</ele>
        <time>2015-02-22T11:43:11Z</time>
      </trkpt>
      <trkpt lat="47.508294079452753" lon="11.143328044563532">
        <ele>1780.119999999999891</ele>
        <time>2015-02-22T11:43:35Z</time>
      </trkpt>
      <trkpt lat="47.508283099159598" lon="11.143307089805603">
        <ele>1779.779999999999973</ele>
        <time>2015-02-22T11:44:08Z</time>
      </trkpt>
      <trkpt lat="47.508274214342237" lon="11.143321674317122">
        <ele>1780.039999999999964</ele>
        <time>2015-02-22T11:44:30Z</time>
      </trkpt>
      <trkpt lat="47.508282596245408" lon="11.143326535820961">
        <ele>1779.799999999999955</ele>
        <time>2015-02-22T11:44:53Z</time>
      </trkpt>
      <trkpt lat="47.508283350616693" lon="11.14328152500093">
        <ele>1781.369999999999891</ele>
        <time>2015-02-22T11:45:17Z</time>
      </trkpt>
      <trkpt lat="47.508322997018695" lon="11.143256966024637">
        <ele>1781.1400000000001</ele>
        <time>2015-02-22T11:45:31Z</time>
      </trkpt>
      <trkpt lat="47.508318303152919" lon="11.143248835578561">
        <ele>1781.549999999999955</ele>
        <time>2015-02-22T11:45:48Z</time>
      </trkpt>
      <trkpt lat="47.508309250697494" lon="11.143250511959195">
        <ele>1781.910000000000082</ele>
        <time>2015-02-22T11:46:21Z</time>
      </trkpt>
      <trkpt lat="47.508301455527544" lon="11.143243303522468">
        <ele>1781.930000000000064</ele>
        <time>2015-02-22T11:46:48Z</time>
      </trkpt>
      <trkpt lat="47.508356440812349" lon="11.143257552757859">
        <ele>1783.6099999999999</ele>
        <time>2015-02-22T11:47:04Z</time>
      </trkpt>
      <trkpt lat="47.508358117192984" lon="11.14327859133482">
        <ele>1784.809999999999945</ele>
        <time>2015-02-22T11:47:09Z</time>
      </trkpt>
      <trkpt lat="47.508450569584966" lon="11.143343802541494">
        <ele>1782.670000000000073</ele>
        <time>2015-02-22T11:47:42Z</time>
      </trkpt>
      <trkpt lat="47.508535142987967" lon="11.143233496695757">
        <ele>1783.130000000000109</ele>
        <time>2015-02-22T11:48:29Z</time>
      </trkpt>
      <trkpt lat="47.508482672274113" lon="11.143271215260029">
        <ele>1783.099999999999909</ele>
        <time>2015-02-22T11:49:35Z</time>
      </trkpt>
      <trkpt lat="47.508478062227368" lon="11.143295774236321">
        <ele>1784.089999999999918</ele>
        <time>2015-02-22T11:49:37Z</time>
      </trkpt>
      <trkpt lat="47.50848057679832" lon="11.143337516114116">
        <ele>1784.1400000000001</ele>
        <time>2015-02-22T11:50:23Z</time>
      </trkpt>
      <trkpt lat="47.508468003943563" lon="11.143553936854005">
        <ele>1782.759999999999991</ele>
        <time>2015-02-22T12:15:35Z</time>
      </trkpt>
      <trkpt lat="47.508361637592316" lon="11.143347322940826">
        <ele>1779.660000000000082</ele>
        <time>2015-02-22T12:23:26Z</time>
      </trkpt>
      <trkpt lat="47.508501447737217" lon="11.143217738717794">
        <ele>1777.509999999999991</ele>
        <time>2015-02-22T12:28:22Z</time>
      </trkpt>
      <trkpt lat="47.50843858346343" lon="11.143432231619954">
        <ele>1778.3900000000001</ele>
        <time>2015-02-22T12:29:21Z</time>
      </trkpt>
      <trkpt lat="47.508430033922195" lon="11.143411695957184">
        <ele>1778.25</ele>
        <time>2015-02-22T12:29:39Z</time>
      </trkpt>
      <trkpt lat="47.508470853790641" lon="11.143207009881735">
        <ele>1777.509999999999991</ele>
        <time>2015-02-22T12:30:50Z</time>
      </trkpt>
      <trkpt lat="47.508369516581297" lon="11.143418988212943">
        <ele>1778.039999999999964</ele>
        <time>2015-02-22T12:31:17Z</time>
      </trkpt>
      <trkpt lat="47.508370690047741" lon="11.143450839444995">
        <ele>1777.660000000000082</ele>
        <time>2015-02-22T12:31:19Z</time>
      </trkpt>
      <trkpt lat="47.50839751213789" lon="11.143418317660689">
        <ele>1778.380000000000109</ele>
        <time>2015-02-22T12:31:21Z</time>
      </trkpt>
      <trkpt lat="47.508407067507505" lon="11.14337146282196">
        <ele>1776.480000000000018</ele>
        <time>2015-02-22T12:31:25Z</time>
      </trkpt>
      <trkpt lat="47.508349400013685" lon="11.143323183059692">
        <ele>1775.480000000000018</ele>
        <time>2015-02-22T12:31:39Z</time>
      </trkpt>
      <trkpt lat="47.508324338123202" lon="11.143354615196586">
        <ele>1775.839999999999918</ele>
        <time>2015-02-22T12:31:53Z</time>
      </trkpt>
      <trkpt lat="47.508322075009346" lon="11.143356375396252">
        <ele>1776.259999999999991</ele>
        <time>2015-02-22T12:31:58Z</time>
      </trkpt>
      <trkpt lat="47.508329702541232" lon="11.143361991271377">
        <ele>1775.369999999999891</ele>
        <time>2015-02-22T12:32:11Z</time>
      </trkpt>
      <trkpt lat="47.508317632600665" lon="11.14336852915585">
        <ele>1775.1400000000001</ele>
        <time>2015-02-22T12:32:37Z</time>
      </trkpt>
      <trkpt lat="47.508320566266775" lon="11.143355118110776">
        <ele>1775.3599999999999</ele>
        <time>2015-02-22T12:33:01Z</time>
      </trkpt>
      <trkpt lat="47.508305730298162" lon="11.143354699015617">
        <ele>1774.880000000000109</ele>
        <time>2015-02-22T12:33:34Z</time>
      </trkpt>
      <trkpt lat="47.508293576538563" lon="11.143361907452345">
        <ele>1774.730000000000018</ele>
        <time>2015-02-22T12:33:35Z</time>
      </trkpt>
      <trkpt lat="47.508264575153589" lon="11.14338805899024">
        <ele>1774.589999999999918</ele>
        <time>2015-02-22T12:33:37Z</time>
      </trkpt>
      <trkpt lat="47.508246134966612" lon="11.143399877473712">
        <ele>1774.210000000000036</ele>
        <time>2015-02-22T12:33:38Z</time>
      </trkpt>
      <trkpt lat="47.508224258199334" lon="11.143401972949505">
        <ele>1774.160000000000082</ele>
        <time>2015-02-22T12:33:39Z</time>
      </trkpt>
      <trkpt lat="47.50819911248982" lon="11.143382359296083">
        <ele>1774.329999999999927</ele>
        <time>2015-02-22T12:33:40Z</time>
      </trkpt>
      <trkpt lat="47.508170530200005" lon="11.143362410366535">
        <ele>1773.910000000000082</ele>
        <time>2015-02-22T12:33:41Z</time>
      </trkpt>
      <trkpt lat="47.508140271529555" lon="11.143361488357186">
        <ele>1772.329999999999927</ele>
        <time>2015-02-22T12:33:42Z</time>
      </trkpt>
      <trkpt lat="47.50811168923974" lon="11.143378000706434">
        <ele>1772.079999999999927</ele>
        <time>2015-02-22T12:33:43Z</time>
      </trkpt>
      <trkpt lat="47.508082101121545" lon="11.143401637673378">
        <ele>1771.740000000000009</ele>
        <time>2015-02-22T12:33:44Z</time>
      </trkpt>
      <trkpt lat="47.508046813309193" lon="11.143425609916449">
        <ele>1770.75</ele>
        <time>2015-02-22T12:33:45Z</time>
      </trkpt>
      <trkpt lat="47.50800565816462" lon="11.143449833616614">
        <ele>1770.579999999999927</ele>
        <time>2015-02-22T12:33:46Z</time>
      </trkpt>
      <trkpt lat="47.507962994277477" lon="11.143485540524125">
        <ele>1768.240000000000009</ele>
        <time>2015-02-22T12:33:47Z</time>
      </trkpt>
      <trkpt lat="47.507930053398013" lon="11.143530299887061">
        <ele>1768.539999999999964</ele>
        <time>2015-02-22T12:33:48Z</time>
      </trkpt>
      <trkpt lat="47.50791672617197" lon="11.143565168604255">
        <ele>1768.8599999999999</ele>
        <time>2015-02-22T12:33:49Z</time>
      </trkpt>
      <trkpt lat="47.507914043962955" lon="11.143630128353834">
        <ele>1768.6099999999999</ele>
        <time>2015-02-22T12:33:59Z</time>
      </trkpt>
      <trkpt lat="47.507906081154943" lon="11.143661057576537">
        <ele>1768.660000000000082</ele>
        <time>2015-02-22T12:34:09Z</time>
      </trkpt>
      <trkpt lat="47.507888730615377" lon="11.143715539947152">
        <ele>1767.730000000000018</ele>
        <time>2015-02-22T12:34:11Z</time>
      </trkpt>
      <trkpt lat="47.507880432531238" lon="11.143758958205581">
        <ele>1766.690000000000055</ele>
        <time>2015-02-22T12:34:12Z</time>
      </trkpt>
      <trkpt lat="47.507879929617047" lon="11.143790641799569">
        <ele>1766.740000000000009</ele>
        <time>2015-02-22T12:34:13Z</time>
      </trkpt>
      <trkpt lat="47.50787959434092" lon="11.143923075869679">
        <ele>1764.940000000000055</ele>
        <time>2015-02-22T12:34:18Z</time>
      </trkpt>
      <trkpt lat="47.507903482764959" lon="11.144163804128766">
        <ele>1760.3900000000001</ele>
        <time>2015-02-22T12:34:25Z</time>
      </trkpt>
      <trkpt lat="47.507883785292506" lon="11.144186854362488">
        <ele>1759.210000000000036</ele>
        <time>2015-02-22T12:34:26Z</time>
      </trkpt>
      <trkpt lat="47.507862746715546" lon="11.1441845074296">
        <ele>1759.180000000000064</ele>
        <time>2015-02-22T12:34:27Z</time>
      </trkpt>
      <trkpt lat="47.507837098091841" lon="11.144187608733773">
        <ele>1758.089999999999918</ele>
        <time>2015-02-22T12:34:28Z</time>
      </trkpt>
      <trkpt lat="47.507815975695848" lon="11.144207054749131">
        <ele>1755.329999999999927</ele>
        <time>2015-02-22T12:34:29Z</time>
      </trkpt>
      <trkpt lat="47.507803654298186" lon="11.144215939566493">
        <ele>1754.990000000000009</ele>
        <time>2015-02-22T12:34:30Z</time>
      </trkpt>
      <trkpt lat="47.507789991796017" lon="11.144230188801885">
        <ele>1754.289999999999964</ele>
        <time>2015-02-22T12:34:33Z</time>
      </trkpt>
      <trkpt lat="47.50777842476964" lon="11.144254496321082">
        <ele>1753.690000000000055</ele>
        <time>2015-02-22T12:34:34Z</time>
      </trkpt>
      <trkpt lat="47.50776132568717" lon="11.14426514133811">
        <ele>1751.549999999999955</ele>
        <time>2015-02-22T12:34:35Z</time>
      </trkpt>
      <trkpt lat="47.507753781974316" lon="11.144263800233603">
        <ele>1751.759999999999991</ele>
        <time>2015-02-22T12:34:36Z</time>
      </trkpt>
      <trkpt lat="47.507739448919892" lon="11.144327418878675">
        <ele>1750.759999999999991</ele>
        <time>2015-02-22T12:34:41Z</time>
      </trkpt>
      <trkpt lat="47.507743975147605" lon="11.144347870722413">
        <ele>1750.730000000000018</ele>
        <time>2015-02-22T12:34:42Z</time>
      </trkpt>
      <trkpt lat="47.507751770317554" lon="11.144371004775167">
        <ele>1749.950000000000045</ele>
        <time>2015-02-22T12:34:45Z</time>
      </trkpt>
      <trkpt lat="47.507768198847771" lon="11.144467815756798">
        <ele>1747.200000000000045</ele>
        <time>2015-02-22T12:34:48Z</time>
      </trkpt>
      <trkpt lat="47.507739113643765" lon="11.144500924274325">
        <ele>1746.1400000000001</ele>
        <time>2015-02-22T12:34:49Z</time>
      </trkpt>
      <trkpt lat="47.507710782811046" lon="11.144533613696694">
        <ele>1746.740000000000009</ele>
        <time>2015-02-22T12:34:50Z</time>
      </trkpt>
      <trkpt lat="47.507683541625738" lon="11.144585246220231">
        <ele>1744.380000000000109</ele>
        <time>2015-02-22T12:34:51Z</time>
      </trkpt>
      <trkpt lat="47.507656300440431" lon="11.144656743854284">
        <ele>1745.019999999999982</ele>
        <time>2015-02-22T12:34:52Z</time>
      </trkpt>
      <trkpt lat="47.507627550512552" lon="11.144744586199522">
        <ele>1744.410000000000082</ele>
        <time>2015-02-22T12:34:53Z</time>
      </trkpt>
      <trkpt lat="47.507598046213388" lon="11.144834775477648">
        <ele>1743.200000000000045</ele>
        <time>2015-02-22T12:34:54Z</time>
      </trkpt>
      <trkpt lat="47.507563680410385" lon="11.144903004169464">
        <ele>1741.319999999999936</ele>
        <time>2015-02-22T12:34:55Z</time>
      </trkpt>
      <trkpt lat="47.507527638226748" lon="11.144929993897676">
        <ele>1740.3900000000001</ele>
        <time>2015-02-22T12:34:56Z</time>
      </trkpt>
      <trkpt lat="47.507501821964979" lon="11.144936950877309">
        <ele>1740.400000000000091</ele>
        <time>2015-02-22T12:34:57Z</time>
      </trkpt>
      <trkpt lat="47.507487824186683" lon="11.144943740218878">
        <ele>1741.1099999999999</ele>
        <time>2015-02-22T12:34:58Z</time>
      </trkpt>
      <trkpt lat="47.507414231076837" lon="11.144949942827225">
        <ele>1741.009999999999991</ele>
        <time>2015-02-22T12:35:12Z</time>
      </trkpt>
      <trkpt lat="47.507412806153297" lon="11.144947009161115">
        <ele>1740.920000000000073</ele>
        <time>2015-02-22T12:35:31Z</time>
      </trkpt>
      <trkpt lat="47.50738556496799" lon="11.144944997504354">
        <ele>1740.940000000000055</ele>
        <time>2015-02-22T12:35:42Z</time>
      </trkpt>
      <trkpt lat="47.507365448400378" lon="11.144947847351432">
        <ele>1740.769999999999982</ele>
        <time>2015-02-22T12:35:43Z</time>
      </trkpt>
      <trkpt lat="47.507333094254136" lon="11.144953882321715">
        <ele>1739.660000000000082</ele>
        <time>2015-02-22T12:35:44Z</time>
      </trkpt>
      <trkpt lat="47.507289592176676" lon="11.14496486261487">
        <ele>1739.509999999999991</ele>
        <time>2015-02-22T12:35:45Z</time>
      </trkpt>
      <trkpt lat="47.507238630205393" lon="11.144994534552097">
        <ele>1738.1099999999999</ele>
        <time>2015-02-22T12:35:46Z</time>
      </trkpt>
      <trkpt lat="47.507195295765996" lon="11.145046753808856">
        <ele>1737.1400000000001</ele>
        <time>2015-02-22T12:35:47Z</time>
      </trkpt>
      <trkpt lat="47.507163779810071" lon="11.145115736871958">
        <ele>1735.970000000000027</ele>
        <time>2015-02-22T12:35:48Z</time>
      </trkpt>
      <trkpt lat="47.507129162549973" lon="11.145181031897664">
        <ele>1735.240000000000009</ele>
        <time>2015-02-22T12:35:49Z</time>
      </trkpt>
      <trkpt lat="47.507086582481861" lon="11.145237609744072">
        <ele>1734.690000000000055</ele>
        <time>2015-02-22T12:35:50Z</time>
      </trkpt>
      <trkpt lat="47.507052468135953" lon="11.145305503159761">
        <ele>1733.420000000000073</ele>
        <time>2015-02-22T12:35:51Z</time>
      </trkpt>
      <trkpt lat="47.507025143131614" lon="11.145382029935718">
        <ele>1731.970000000000027</ele>
        <time>2015-02-22T12:35:52Z</time>
      </trkpt>
      <trkpt lat="47.506988933309913" lon="11.145446989685297">
        <ele>1731.6400000000001</ele>
        <time>2015-02-22T12:35:53Z</time>
      </trkpt>
      <trkpt lat="47.506955154240131" lon="11.145514380186796">
        <ele>1731.019999999999982</ele>
        <time>2015-02-22T12:35:54Z</time>
      </trkpt>
      <trkpt lat="47.506926655769348" lon="11.145584369078279">
        <ele>1729.940000000000055</ele>
        <time>2015-02-22T12:35:55Z</time>
      </trkpt>
      <trkpt lat="47.506892457604408" lon="11.145648406818509">
        <ele>1729.480000000000018</ele>
        <time>2015-02-22T12:35:56Z</time>
      </trkpt>
      <trkpt lat="47.506863456219435" lon="11.145718479529023">
        <ele>1728.930000000000064</ele>
        <time>2015-02-22T12:35:57Z</time>
      </trkpt>
      <trkpt lat="47.506835628300905" lon="11.145786959677935">
        <ele>1727.910000000000082</ele>
        <time>2015-02-22T12:35:58Z</time>
      </trkpt>
      <trkpt lat="47.506801933050156" lon="11.145851584151387">
        <ele>1726.779999999999973</ele>
        <time>2015-02-22T12:35:59Z</time>
      </trkpt>
      <trkpt lat="47.506774691864848" lon="11.145921992138028">
        <ele>1726.160000000000082</ele>
        <time>2015-02-22T12:36:00Z</time>
      </trkpt>
      <trkpt lat="47.506743595004082" lon="11.145987790077925">
        <ele>1725.079999999999927</ele>
        <time>2015-02-22T12:36:01Z</time>
      </trkpt>
      <trkpt lat="47.506709061563015" lon="11.146050235256553">
        <ele>1724.079999999999927</ele>
        <time>2015-02-22T12:36:02Z</time>
      </trkpt>
      <trkpt lat="47.506678467616439" lon="11.146115278825164">
        <ele>1723.710000000000036</ele>
        <time>2015-02-22T12:36:03Z</time>
      </trkpt>
      <trkpt lat="47.506640832871199" lon="11.146172108128667">
        <ele>1723.589999999999918</ele>
        <time>2015-02-22T12:36:04Z</time>
      </trkpt>
      <trkpt lat="47.506601102650166" lon="11.146227428689599">
        <ele>1722.240000000000009</ele>
        <time>2015-02-22T12:36:05Z</time>
      </trkpt>
      <trkpt lat="47.506561288610101" lon="11.146283587440848">
        <ele>1721.880000000000109</ele>
        <time>2015-02-22T12:36:06Z</time>
      </trkpt>
      <trkpt lat="47.506518373265862" lon="11.146337650716305">
        <ele>1721.690000000000055</ele>
        <time>2015-02-22T12:36:07Z</time>
      </trkpt>
      <trkpt lat="47.506475038826466" lon="11.146394312381744">
        <ele>1720.779999999999973</ele>
        <time>2015-02-22T12:36:08Z</time>
      </trkpt>
      <trkpt lat="47.506387615576386" lon="11.146509144455194">
        <ele>1718.970000000000027</ele>
        <time>2015-02-22T12:36:10Z</time>
      </trkpt>
      <trkpt lat="47.50634285621345" lon="11.146571338176727">
        <ele>1718.180000000000064</ele>
        <time>2015-02-22T12:36:11Z</time>
      </trkpt>
      <trkpt lat="47.506098691374063" lon="11.146882474422455">
        <ele>1715.130000000000109</ele>
        <time>2015-02-22T12:36:16Z</time>
      </trkpt>
      <trkpt lat="47.505945218726993" lon="11.14708992652595">
        <ele>1713</ele>
        <time>2015-02-22T12:36:19Z</time>
      </trkpt>
      <trkpt lat="47.505902638658881" lon="11.147169889882207">
        <ele>1712.450000000000045</ele>
        <time>2015-02-22T12:36:20Z</time>
      </trkpt>
      <trkpt lat="47.505869278684258" lon="11.147252786904573">
        <ele>1711.3900000000001</ele>
        <time>2015-02-22T12:36:21Z</time>
      </trkpt>
      <trkpt lat="47.505843881517649" lon="11.147335935384035">
        <ele>1711.049999999999955</ele>
        <time>2015-02-22T12:36:22Z</time>
      </trkpt>
      <trkpt lat="47.505823262035847" lon="11.147417239844799">
        <ele>1709.960000000000036</ele>
        <time>2015-02-22T12:36:23Z</time>
      </trkpt>
      <trkpt lat="47.505805743858218" lon="11.147495359182358">
        <ele>1709.990000000000009</ele>
        <time>2015-02-22T12:36:24Z</time>
      </trkpt>
      <trkpt lat="47.505703987553716" lon="11.147854523733258">
        <ele>1706.960000000000036</ele>
        <time>2015-02-22T12:36:29Z</time>
      </trkpt>
      <trkpt lat="47.505681188777089" lon="11.147932140156627">
        <ele>1706.680000000000064</ele>
        <time>2015-02-22T12:36:30Z</time>
      </trkpt>
      <trkpt lat="47.505536181852221" lon="11.148454248905182">
        <ele>1703.279999999999973</ele>
        <time>2015-02-22T12:36:36Z</time>
      </trkpt>
      <trkpt lat="47.505430737510324" lon="11.148810395970941">
        <ele>1700.220000000000027</ele>
        <time>2015-02-22T12:36:40Z</time>
      </trkpt>
      <trkpt lat="47.505386229604483" lon="11.148976273834705">
        <ele>1698.970000000000027</ele>
        <time>2015-02-22T12:36:42Z</time>
      </trkpt>
      <trkpt lat="47.505319006741047" lon="11.149290427565575">
        <ele>1697.089999999999918</ele>
        <time>2015-02-22T12:36:47Z</time>
      </trkpt>
      <trkpt lat="47.505320096388459" lon="11.149351447820663">
        <ele>1696.599999999999909</ele>
        <time>2015-02-22T12:36:48Z</time>
      </trkpt>
      <trkpt lat="47.505327807739377" lon="11.149483965709805">
        <ele>1695.75</ele>
        <time>2015-02-22T12:36:50Z</time>
      </trkpt>
      <trkpt lat="47.505329148843884" lon="11.149561414495111">
        <ele>1695.019999999999982</ele>
        <time>2015-02-22T12:36:51Z</time>
      </trkpt>
      <trkpt lat="47.505340632051229" lon="11.149644730612636">
        <ele>1693.259999999999991</ele>
        <time>2015-02-22T12:36:52Z</time>
      </trkpt>
      <trkpt lat="47.505357144400477" lon="11.149728717282414">
        <ele>1692.740000000000009</ele>
        <time>2015-02-22T12:36:53Z</time>
      </trkpt>
      <trkpt lat="47.505362927913666" lon="11.149821756407619">
        <ele>1691.529999999999973</ele>
        <time>2015-02-22T12:36:54Z</time>
      </trkpt>
      <trkpt lat="47.505363430827856" lon="11.149919824674726">
        <ele>1689.549999999999955</ele>
        <time>2015-02-22T12:36:55Z</time>
      </trkpt>
      <trkpt lat="47.505365610122681" lon="11.150018312036991">
        <ele>1689.220000000000027</ele>
        <time>2015-02-22T12:36:56Z</time>
      </trkpt>
      <trkpt lat="47.505359323695302" lon="11.150117553770542">
        <ele>1688.8599999999999</ele>
        <time>2015-02-22T12:36:57Z</time>
      </trkpt>
      <trkpt lat="47.505356390029192" lon="11.150218052789569">
        <ele>1686.930000000000064</ele>
        <time>2015-02-22T12:36:58Z</time>
      </trkpt>
      <trkpt lat="47.505354043096304" lon="11.150310672819614">
        <ele>1686.710000000000036</ele>
        <time>2015-02-22T12:36:59Z</time>
      </trkpt>
      <trkpt lat="47.505335602909327" lon="11.15039985626936">
        <ele>1685.619999999999891</ele>
        <time>2015-02-22T12:37:00Z</time>
      </trkpt>
      <trkpt lat="47.505321688950062" lon="11.150495996698737">
        <ele>1682.880000000000109</ele>
        <time>2015-02-22T12:37:01Z</time>
      </trkpt>
      <trkpt lat="47.505310457199812" lon="11.150597669184208">
        <ele>1682.190000000000055</ele>
        <time>2015-02-22T12:37:02Z</time>
      </trkpt>
      <trkpt lat="47.505283132195473" lon="11.150695569813251">
        <ele>1680.940000000000055</ele>
        <time>2015-02-22T12:37:03Z</time>
      </trkpt>
      <trkpt lat="47.505260668694973" lon="11.150794476270676">
        <ele>1678.3599999999999</ele>
        <time>2015-02-22T12:37:04Z</time>
      </trkpt>
      <trkpt lat="47.505243737250566" lon="11.150895310565829">
        <ele>1677.3599999999999</ele>
        <time>2015-02-22T12:37:05Z</time>
      </trkpt>
      <trkpt lat="47.505217585712671" lon="11.150993211194873">
        <ele>1675.829999999999927</ele>
        <time>2015-02-22T12:37:06Z</time>
      </trkpt>
      <trkpt lat="47.505197888240218" lon="11.151094464585185">
        <ele>1673.829999999999927</ele>
        <time>2015-02-22T12:37:07Z</time>
      </trkpt>
      <trkpt lat="47.505180286243558" lon="11.1511938739568">
        <ele>1670.950000000000045</ele>
        <time>2015-02-22T12:37:08Z</time>
      </trkpt>
      <trkpt lat="47.505148267373443" lon="11.15127551369369">
        <ele>1670.420000000000073</ele>
        <time>2015-02-22T12:37:09Z</time>
      </trkpt>
      <trkpt lat="47.505125384777784" lon="11.151347681879997">
        <ele>1669.029999999999973</ele>
        <time>2015-02-22T12:37:10Z</time>
      </trkpt>
      <trkpt lat="47.505115661770105" lon="11.151436194777489">
        <ele>1668.259999999999991</ele>
        <time>2015-02-22T12:37:11Z</time>
      </trkpt>
      <trkpt lat="47.505098562687635" lon="11.151517918333411">
        <ele>1667.180000000000064</ele>
        <time>2015-02-22T12:37:12Z</time>
      </trkpt>
      <trkpt lat="47.50506998039782" lon="11.151574663817883">
        <ele>1666.150000000000091</ele>
        <time>2015-02-22T12:37:13Z</time>
      </trkpt>
      <trkpt lat="47.505042236298323" lon="11.151611628010869">
        <ele>1665.769999999999982</ele>
        <time>2015-02-22T12:37:14Z</time>
      </trkpt>
      <trkpt lat="47.505001584067941" lon="11.151673654094338">
        <ele>1665.559999999999945</ele>
        <time>2015-02-22T12:37:22Z</time>
      </trkpt>
      <trkpt lat="47.505006361752748" lon="11.151731237769127">
        <ele>1665.309999999999945</ele>
        <time>2015-02-22T12:37:28Z</time>
      </trkpt>
      <trkpt lat="47.505011558532715" lon="11.15174800157547">
        <ele>1665.019999999999982</ele>
        <time>2015-02-22T12:37:29Z</time>
      </trkpt>
      <trkpt lat="47.505050282925367" lon="11.151883285492659">
        <ele>1663.960000000000036</ele>
        <time>2015-02-22T12:37:34Z</time>
      </trkpt>
      <trkpt lat="47.505072578787804" lon="11.152401119470596">
        <ele>1660.619999999999891</ele>
        <time>2015-02-22T12:37:43Z</time>
      </trkpt>
      <trkpt lat="47.505066208541393" lon="11.152946446090937">
        <ele>1659.619999999999891</ele>
        <time>2015-02-22T12:37:59Z</time>
      </trkpt>
      <trkpt lat="47.505055228248239" lon="11.153242159634829">
        <ele>1657.680000000000064</ele>
        <time>2015-02-22T12:38:07Z</time>
      </trkpt>
      <trkpt lat="47.504972917959094" lon="11.15386082790792">
        <ele>1654.660000000000082</ele>
        <time>2015-02-22T12:38:23Z</time>
      </trkpt>
      <trkpt lat="47.504918100312352" lon="11.154424846172333">
        <ele>1651.529999999999973</ele>
        <time>2015-02-22T12:38:31Z</time>
      </trkpt>
      <trkpt lat="47.504944670945406" lon="11.154661299660802">
        <ele>1649.190000000000055</ele>
        <time>2015-02-22T12:38:34Z</time>
      </trkpt>
      <trkpt lat="47.504983143880963" lon="11.154819717630744">
        <ele>1648.240000000000009</ele>
        <time>2015-02-22T12:38:36Z</time>
      </trkpt>
      <trkpt lat="47.505012648180127" lon="11.154896914958954">
        <ele>1647.1400000000001</ele>
        <time>2015-02-22T12:38:37Z</time>
      </trkpt>
      <trkpt lat="47.505044667050242" lon="11.154971597716212">
        <ele>1645.779999999999973</ele>
        <time>2015-02-22T12:38:38Z</time>
      </trkpt>
      <trkpt lat="47.505078781396151" lon="11.155046364292502">
        <ele>1644.519999999999982</ele>
        <time>2015-02-22T12:38:39Z</time>
      </trkpt>
      <trkpt lat="47.505118846893311" lon="11.155124399811029">
        <ele>1644.450000000000045</ele>
        <time>2015-02-22T12:38:40Z</time>
      </trkpt>
      <trkpt lat="47.505201241001487" lon="11.155301425606012">
        <ele>1642.210000000000036</ele>
        <time>2015-02-22T12:38:42Z</time>
      </trkpt>
      <trkpt lat="47.505231834948063" lon="11.155397398397326">
        <ele>1640.150000000000091</ele>
        <time>2015-02-22T12:38:43Z</time>
      </trkpt>
      <trkpt lat="47.505250861868262" lon="11.155493622645736">
        <ele>1639.630000000000109</ele>
        <time>2015-02-22T12:38:44Z</time>
      </trkpt>
      <trkpt lat="47.505260165780783" lon="11.155587499961257">
        <ele>1639.970000000000027</ele>
        <time>2015-02-22T12:38:45Z</time>
      </trkpt>
      <trkpt lat="47.505267877131701" lon="11.155670061707497">
        <ele>1637.809999999999945</ele>
        <time>2015-02-22T12:38:46Z</time>
      </trkpt>
      <trkpt lat="47.505304086953402" lon="11.155942808836699">
        <ele>1636.650000000000091</ele>
        <time>2015-02-22T12:38:54Z</time>
      </trkpt>
      <trkpt lat="47.505310205742717" lon="11.155942305922508">
        <ele>1636</ele>
        <time>2015-02-22T12:39:13Z</time>
      </trkpt>
      <trkpt lat="47.505323784425855" lon="11.155958063900471">
        <ele>1636.089999999999918</ele>
        <time>2015-02-22T12:39:14Z</time>
      </trkpt>
      <trkpt lat="47.50536410138011" lon="11.156029477715492">
        <ele>1635.460000000000036</ele>
        <time>2015-02-22T12:39:16Z</time>
      </trkpt>
      <trkpt lat="47.505391258746386" lon="11.156052025035024">
        <ele>1632.329999999999927</ele>
        <time>2015-02-22T12:39:17Z</time>
      </trkpt>
      <trkpt lat="47.505419924855232" lon="11.156039200723171">
        <ele>1633.009999999999991</ele>
        <time>2015-02-22T12:39:18Z</time>
      </trkpt>
      <trkpt lat="47.505447752773762" lon="11.156034423038363">
        <ele>1630.079999999999927</ele>
        <time>2015-02-22T12:39:19Z</time>
      </trkpt>
      <trkpt lat="47.505482286214828" lon="11.156069040298462">
        <ele>1630.269999999999982</ele>
        <time>2015-02-22T12:39:20Z</time>
      </trkpt>
      <trkpt lat="47.505522016435862" lon="11.156078428030014">
        <ele>1626.369999999999891</ele>
        <time>2015-02-22T12:39:21Z</time>
      </trkpt>
      <trkpt lat="47.50557079911232" lon="11.156062334775925">
        <ele>1625.470000000000027</ele>
        <time>2015-02-22T12:39:22Z</time>
      </trkpt>
      <trkpt lat="47.505619330331683" lon="11.156079014763236">
        <ele>1624.1099999999999</ele>
        <time>2015-02-22T12:39:23Z</time>
      </trkpt>
      <trkpt lat="47.505669118836522" lon="11.156103992834687">
        <ele>1621.599999999999909</ele>
        <time>2015-02-22T12:39:24Z</time>
      </trkpt>
      <trkpt lat="47.505715554580092" lon="11.156087899580598">
        <ele>1620.099999999999909</ele>
        <time>2015-02-22T12:39:25Z</time>
      </trkpt>
      <trkpt lat="47.50575402751565" lon="11.156071806326509">
        <ele>1616.759999999999991</ele>
        <time>2015-02-22T12:39:26Z</time>
      </trkpt>
      <trkpt lat="47.505796439945698" lon="11.156085887923837">
        <ele>1616.440000000000055</ele>
        <time>2015-02-22T12:39:27Z</time>
      </trkpt>
      <trkpt lat="47.505835331976414" lon="11.156078260391951">
        <ele>1612.930000000000064</ele>
        <time>2015-02-22T12:39:28Z</time>
      </trkpt>
      <trkpt lat="47.505868189036846" lon="11.156061831861734">
        <ele>1612.519999999999982</ele>
        <time>2015-02-22T12:39:29Z</time>
      </trkpt>
      <trkpt lat="47.505905153229833" lon="11.156077422201633">
        <ele>1611.170000000000073</ele>
        <time>2015-02-22T12:39:30Z</time>
      </trkpt>
      <trkpt lat="47.505943961441517" lon="11.156081696972251">
        <ele>1609.210000000000036</ele>
        <time>2015-02-22T12:39:31Z</time>
      </trkpt>
      <trkpt lat="47.505973549559712" lon="11.156055964529514">
        <ele>1607.289999999999964</ele>
        <time>2015-02-22T12:39:32Z</time>
      </trkpt>
      <trkpt lat="47.50600079074502" lon="11.15603475831449">
        <ele>1606.8599999999999</ele>
        <time>2015-02-22T12:39:33Z</time>
      </trkpt>
      <trkpt lat="47.506036497652531" lon="11.156043643131852">
        <ele>1604.380000000000109</ele>
        <time>2015-02-22T12:39:34Z</time>
      </trkpt>
      <trkpt lat="47.506075473502278" lon="11.15604305639863">
        <ele>1602.769999999999982</ele>
        <time>2015-02-22T12:39:35Z</time>
      </trkpt>
      <trkpt lat="47.506101038306952" lon="11.15601765923202">
        <ele>1602</ele>
        <time>2015-02-22T12:39:36Z</time>
      </trkpt>
      <trkpt lat="47.506115538999438" lon="11.155987903475761">
        <ele>1601.349999999999909</ele>
        <time>2015-02-22T12:39:37Z</time>
      </trkpt>
      <trkpt lat="47.506127189844847" lon="11.155956219881773">
        <ele>1601.730000000000018</ele>
        <time>2015-02-22T12:39:38Z</time>
      </trkpt>
      <trkpt lat="47.506137667223811" lon="11.155925709754229">
        <ele>1601.269999999999982</ele>
        <time>2015-02-22T12:39:39Z</time>
      </trkpt>
      <trkpt lat="47.506165578961372" lon="11.155801238492131">
        <ele>1600.930000000000064</ele>
        <time>2015-02-22T12:39:52Z</time>
      </trkpt>
      <trkpt lat="47.506167674437165" lon="11.155783887952566">
        <ele>1600.910000000000082</ele>
        <time>2015-02-22T12:39:53Z</time>
      </trkpt>
      <trkpt lat="47.506170691922307" lon="11.1557596642524">
        <ele>1600.380000000000109</ele>
        <time>2015-02-22T12:39:54Z</time>
      </trkpt>
      <trkpt lat="47.506174296140671" lon="11.155732255429029">
        <ele>1600.329999999999927</ele>
        <time>2015-02-22T12:39:55Z</time>
      </trkpt>
      <trkpt lat="47.506179576739669" lon="11.155699985101819">
        <ele>1599.980000000000018</ele>
        <time>2015-02-22T12:39:56Z</time>
      </trkpt>
      <trkpt lat="47.50619038939476" lon="11.155666289851069">
        <ele>1599.480000000000018</ele>
        <time>2015-02-22T12:39:57Z</time>
      </trkpt>
      <trkpt lat="47.506211930885911" lon="11.15564089268446">
        <ele>1599.589999999999918</ele>
        <time>2015-02-22T12:39:58Z</time>
      </trkpt>
      <trkpt lat="47.506294324994087" lon="11.15567559376359">
        <ele>1593.769999999999982</ele>
        <time>2015-02-22T12:40:01Z</time>
      </trkpt>
      <trkpt lat="47.506392141804099" lon="11.155574256554246">
        <ele>1587.740000000000009</ele>
        <time>2015-02-22T12:40:05Z</time>
      </trkpt>
      <trkpt lat="47.506429441273212" lon="11.155560929328203">
        <ele>1587.940000000000055</ele>
        <time>2015-02-22T12:40:06Z</time>
      </trkpt>
      <trkpt lat="47.50650504603982" lon="11.155576938763261">
        <ele>1582.3900000000001</ele>
        <time>2015-02-22T12:40:08Z</time>
      </trkpt>
      <trkpt lat="47.506546620279551" lon="11.155576687306166">
        <ele>1582.130000000000109</ele>
        <time>2015-02-22T12:40:09Z</time>
      </trkpt>
      <trkpt lat="47.50662918202579" lon="11.155627565458417">
        <ele>1576.299999999999955</ele>
        <time>2015-02-22T12:40:11Z</time>
      </trkpt>
      <trkpt lat="47.506712330505252" lon="11.155664026737213">
        <ele>1573.119999999999891</ele>
        <time>2015-02-22T12:40:13Z</time>
      </trkpt>
      <trkpt lat="47.506730351597071" lon="11.155697805806994">
        <ele>1571.6099999999999</ele>
        <time>2015-02-22T12:40:14Z</time>
      </trkpt>
      <trkpt lat="47.506738649681211" lon="11.155718173831701">
        <ele>1571.6099999999999</ele>
        <time>2015-02-22T12:40:25Z</time>
      </trkpt>
      <trkpt lat="47.506744181737304" lon="11.15572395734489">
        <ele>1571.150000000000091</ele>
        <time>2015-02-22T12:40:34Z</time>
      </trkpt>
      <trkpt lat="47.506774356588721" lon="11.15573812276125">
        <ele>1569.930000000000064</ele>
        <time>2015-02-22T12:40:36Z</time>
      </trkpt>
      <trkpt lat="47.506804363802075" lon="11.155725466087461">
        <ele>1570.369999999999891</ele>
        <time>2015-02-22T12:40:37Z</time>
      </trkpt>
      <trkpt lat="47.506864964962006" lon="11.155740218237042">
        <ele>1566.910000000000082</ele>
        <time>2015-02-22T12:40:39Z</time>
      </trkpt>
      <trkpt lat="47.506931181997061" lon="11.155771818011999">
        <ele>1566.289999999999964</ele>
        <time>2015-02-22T12:40:41Z</time>
      </trkpt>
      <trkpt lat="47.506968984380364" lon="11.155788917094469">
        <ele>1562.329999999999927</ele>
        <time>2015-02-22T12:40:42Z</time>
      </trkpt>
      <trkpt lat="47.5070068705827" lon="11.155797969549894">
        <ele>1560.1400000000001</ele>
        <time>2015-02-22T12:40:43Z</time>
      </trkpt>
      <trkpt lat="47.50704106874764" lon="11.155829820781946">
        <ele>1559.880000000000109</ele>
        <time>2015-02-22T12:40:44Z</time>
      </trkpt>
      <trkpt lat="47.507077949121594" lon="11.15583979524672">
        <ele>1555.599999999999909</ele>
        <time>2015-02-22T12:40:45Z</time>
      </trkpt>
      <trkpt lat="47.507118098437786" lon="11.155826384201646">
        <ele>1556.119999999999891</ele>
        <time>2015-02-22T12:40:46Z</time>
      </trkpt>
      <trkpt lat="47.507153889164329" lon="11.15584222599864">
        <ele>1551.630000000000109</ele>
        <time>2015-02-22T12:40:47Z</time>
      </trkpt>
      <trkpt lat="47.507184986025095" lon="11.155897295102477">
        <ele>1550.849999999999909</ele>
        <time>2015-02-22T12:40:48Z</time>
      </trkpt>
      <trkpt lat="47.507219184190035" lon="11.155943227931857">
        <ele>1547.049999999999955</ele>
        <time>2015-02-22T12:40:49Z</time>
      </trkpt>
      <trkpt lat="47.507255729287863" lon="11.155964182689786">
        <ele>1547.119999999999891</ele>
        <time>2015-02-22T12:40:50Z</time>
      </trkpt>
      <trkpt lat="47.507298896089196" lon="11.155982371419668">
        <ele>1543.220000000000027</ele>
        <time>2015-02-22T12:40:51Z</time>
      </trkpt>
      <trkpt lat="47.507340554147959" lon="11.155974576249719">
        <ele>1542.730000000000018</ele>
        <time>2015-02-22T12:40:52Z</time>
      </trkpt>
      <trkpt lat="47.507379027083516" lon="11.155964266508818">
        <ele>1540.269999999999982</ele>
        <time>2015-02-22T12:40:53Z</time>
      </trkpt>
      <trkpt lat="47.507408699020743" lon="11.155986310914159">
        <ele>1540.599999999999909</ele>
        <time>2015-02-22T12:40:54Z</time>
      </trkpt>
      <trkpt lat="47.507436526939273" lon="11.156013049185276">
        <ele>1537.740000000000009</ele>
        <time>2015-02-22T12:40:55Z</time>
      </trkpt>
      <trkpt lat="47.507465863600373" lon="11.156001817435026">
        <ele>1535.809999999999945</ele>
        <time>2015-02-22T12:40:56Z</time>
      </trkpt>
      <trkpt lat="47.507492937147617" lon="11.155980192124844">
        <ele>1534.690000000000055</ele>
        <time>2015-02-22T12:40:57Z</time>
      </trkpt>
      <trkpt lat="47.50752286054194" lon="11.155988238751888">
        <ele>1534.589999999999918</ele>
        <time>2015-02-22T12:40:58Z</time>
      </trkpt>
      <trkpt lat="47.507560662925243" lon="11.156010031700134">
        <ele>1531.190000000000055</ele>
        <time>2015-02-22T12:40:59Z</time>
      </trkpt>
      <trkpt lat="47.507604835554957" lon="11.156003745272756">
        <ele>1528.990000000000009</ele>
        <time>2015-02-22T12:41:00Z</time>
      </trkpt>
      <trkpt lat="47.507639620453119" lon="11.155969714745879">
        <ele>1529.019999999999982</ele>
        <time>2015-02-22T12:41:01Z</time>
      </trkpt>
      <trkpt lat="47.507669711485505" lon="11.155950017273426">
        <ele>1525.269999999999982</ele>
        <time>2015-02-22T12:41:02Z</time>
      </trkpt>
      <trkpt lat="47.507695695385337" lon="11.155972564592957">
        <ele>1524.309999999999945</ele>
        <time>2015-02-22T12:41:03Z</time>
      </trkpt>
      <trkpt lat="47.507710866630077" lon="11.156023442745209">
        <ele>1520.660000000000082</ele>
        <time>2015-02-22T12:41:04Z</time>
      </trkpt>
      <trkpt lat="47.507717069238424" lon="11.156065938994288">
        <ele>1519.839999999999918</ele>
        <time>2015-02-22T12:41:05Z</time>
      </trkpt>
      <trkpt lat="47.50772763043642" lon="11.156101310625672">
        <ele>1518.980000000000018</ele>
        <time>2015-02-22T12:41:06Z</time>
      </trkpt>
      <trkpt lat="47.507780604064465" lon="11.156092761084437">
        <ele>1517.180000000000064</ele>
        <time>2015-02-22T12:41:08Z</time>
      </trkpt>
      <trkpt lat="47.507792590186" lon="11.156072644516826">
        <ele>1515.329999999999927</ele>
        <time>2015-02-22T12:41:09Z</time>
      </trkpt>
      <trkpt lat="47.507794182747602" lon="11.156061664223671">
        <ele>1515.8900000000001</ele>
        <time>2015-02-22T12:41:10Z</time>
      </trkpt>
      <trkpt lat="47.507794434204698" lon="11.156060742214322">
        <ele>1516.150000000000091</ele>
        <time>2015-02-22T12:41:29Z</time>
      </trkpt>
      <trkpt lat="47.507808683440089" lon="11.156041296198964">
        <ele>1515.940000000000055</ele>
        <time>2015-02-22T12:41:35Z</time>
      </trkpt>
      <trkpt lat="47.507825279608369" lon="11.156019754707813">
        <ele>1515.160000000000082</ele>
        <time>2015-02-22T12:41:36Z</time>
      </trkpt>
      <trkpt lat="47.50785025767982" lon="11.156009025871754">
        <ele>1513.930000000000064</ele>
        <time>2015-02-22T12:41:37Z</time>
      </trkpt>
      <trkpt lat="47.507876493036747" lon="11.156014641746879">
        <ele>1515.410000000000082</ele>
        <time>2015-02-22T12:41:38Z</time>
      </trkpt>
      <trkpt lat="47.507902896031737" lon="11.156003745272756">
        <ele>1510.529999999999973</ele>
        <time>2015-02-22T12:41:39Z</time>
      </trkpt>
      <trkpt lat="47.507956121116877" lon="11.156009864062071">
        <ele>1506.759999999999991</ele>
        <time>2015-02-22T12:41:41Z</time>
      </trkpt>
      <trkpt lat="47.50801982358098" lon="11.156015982851386">
        <ele>1502.269999999999982</ele>
        <time>2015-02-22T12:41:43Z</time>
      </trkpt>
      <trkpt lat="47.508058799430728" lon="11.156023945659399">
        <ele>1499.680000000000064</ele>
        <time>2015-02-22T12:41:44Z</time>
      </trkpt>
      <trkpt lat="47.508102720603347" lon="11.156017575412989">
        <ele>1498.3900000000001</ele>
        <time>2015-02-22T12:41:45Z</time>
      </trkpt>
      <trkpt lat="47.508178744465113" lon="11.155983628705144">
        <ele>1493.630000000000109</ele>
        <time>2015-02-22T12:41:47Z</time>
      </trkpt>
      <trkpt lat="47.50820791348815" lon="11.156017743051052">
        <ele>1491.400000000000091</ele>
        <time>2015-02-22T12:41:48Z</time>
      </trkpt>
      <trkpt lat="47.508227443322539" lon="11.156060323119164">
        <ele>1492.3599999999999</ele>
        <time>2015-02-22T12:41:49Z</time>
      </trkpt>
      <trkpt lat="47.508257618173957" lon="11.156080942600965">
        <ele>1488.970000000000027</ele>
        <time>2015-02-22T12:41:50Z</time>
      </trkpt>
      <trkpt lat="47.508291648700833" lon="11.156067196279764">
        <ele>1488.869999999999891</ele>
        <time>2015-02-22T12:41:51Z</time>
      </trkpt>
      <trkpt lat="47.508322913199663" lon="11.156070968136191">
        <ele>1487.279999999999973</ele>
        <time>2015-02-22T12:41:52Z</time>
      </trkpt>
      <trkpt lat="47.508358871564269" lon="11.156087145209312">
        <ele>1484.759999999999991</ele>
        <time>2015-02-22T12:41:53Z</time>
      </trkpt>
      <trkpt lat="47.508400864899158" lon="11.156095862388611">
        <ele>1483.730000000000018</ele>
        <time>2015-02-22T12:41:54Z</time>
      </trkpt>
      <trkpt lat="47.508435901254416" lon="11.156124612316489">
        <ele>1482.210000000000036</ele>
        <time>2015-02-22T12:41:55Z</time>
      </trkpt>
      <trkpt lat="47.508470350876451" lon="11.156160570681095">
        <ele>1479.339999999999918</ele>
        <time>2015-02-22T12:41:56Z</time>
      </trkpt>
      <trkpt lat="47.508509829640388" lon="11.156185967847705">
        <ele>1479.1400000000001</ele>
        <time>2015-02-22T12:41:57Z</time>
      </trkpt>
      <trkpt lat="47.508544195443392" lon="11.156229637563229">
        <ele>1476.160000000000082</ele>
        <time>2015-02-22T12:41:58Z</time>
      </trkpt>
      <trkpt lat="47.508580321446061" lon="11.156267439946532">
        <ele>1473.539999999999964</ele>
        <time>2015-02-22T12:41:59Z</time>
      </trkpt>
      <trkpt lat="47.508619800209999" lon="11.156269870698452">
        <ele>1473.3900000000001</ele>
        <time>2015-02-22T12:42:00Z</time>
      </trkpt>
      <trkpt lat="47.508658105507493" lon="11.1562829464674">
        <ele>1469.490000000000009</ele>
        <time>2015-02-22T12:42:01Z</time>
      </trkpt>
      <trkpt lat="47.508698171004653" lon="11.156315635889769">
        <ele>1470.150000000000091</ele>
        <time>2015-02-22T12:42:02Z</time>
      </trkpt>
      <trkpt lat="47.508748043328524" lon="11.156331226229668">
        <ele>1466.299999999999955</ele>
        <time>2015-02-22T12:42:03Z</time>
      </trkpt>
      <trkpt lat="47.508839406073093" lon="11.156406747177243">
        <ele>1462.3599999999999</ele>
        <time>2015-02-22T12:42:05Z</time>
      </trkpt>
      <trkpt lat="47.508880980312824" lon="11.156443459913135">
        <ele>1461.829999999999927</ele>
        <time>2015-02-22T12:42:06Z</time>
      </trkpt>
      <trkpt lat="47.508925404399633" lon="11.156463325023651">
        <ele>1458.049999999999955</ele>
        <time>2015-02-22T12:42:07Z</time>
      </trkpt>
      <trkpt lat="47.508950466290116" lon="11.156499283388257">
        <ele>1457.420000000000073</ele>
        <time>2015-02-22T12:42:08Z</time>
      </trkpt>
      <trkpt lat="47.508954489603639" lon="11.156529793515801">
        <ele>1457.819999999999936</ele>
        <time>2015-02-22T12:42:09Z</time>
      </trkpt>
      <trkpt lat="47.508955411612988" lon="11.15653071552515">
        <ele>1457</ele>
        <time>2015-02-22T12:42:23Z</time>
      </trkpt>
      <trkpt lat="47.508966475725174" lon="11.156553933396935">
        <ele>1457.190000000000055</ele>
        <time>2015-02-22T12:42:59Z</time>
      </trkpt>
      <trkpt lat="47.508981982246041" lon="11.156579498201609">
        <ele>1456.039999999999964</ele>
        <time>2015-02-22T12:43:00Z</time>
      </trkpt>
      <trkpt lat="47.509024059399962" lon="11.156664658337831">
        <ele>1455.710000000000036</ele>
        <time>2015-02-22T12:43:02Z</time>
      </trkpt>
      <trkpt lat="47.509049959480762" lon="11.156718889251351">
        <ele>1453.069999999999936</ele>
        <time>2015-02-22T12:43:03Z</time>
      </trkpt>
      <trkpt lat="47.50906496308744" lon="11.156784519553185">
        <ele>1453.420000000000073</ele>
        <time>2015-02-22T12:43:04Z</time>
      </trkpt>
      <trkpt lat="47.509096562862396" lon="11.156898848712444">
        <ele>1449.240000000000009</ele>
        <time>2015-02-22T12:43:06Z</time>
      </trkpt>
      <trkpt lat="47.50910603441298" lon="11.157034300267696">
        <ele>1447.400000000000091</ele>
        <time>2015-02-22T12:43:08Z</time>
      </trkpt>
      <trkpt lat="47.50910553149879" lon="11.157288942486048">
        <ele>1442.470000000000027</ele>
        <time>2015-02-22T12:43:11Z</time>
      </trkpt>
      <trkpt lat="47.509036799892783" lon="11.15747426636517">
        <ele>1437.660000000000082</ele>
        <time>2015-02-22T12:43:13Z</time>
      </trkpt>
      <trkpt lat="47.508995560929179" lon="11.157536040991545">
        <ele>1436.849999999999909</ele>
        <time>2015-02-22T12:43:14Z</time>
      </trkpt>
      <trkpt lat="47.508973516523838" lon="11.157701415941119">
        <ele>1433.049999999999955</ele>
        <time>2015-02-22T12:43:19Z</time>
      </trkpt>
      <trkpt lat="47.509043673053384" lon="11.157836532220244">
        <ele>1426.339999999999918</ele>
        <time>2015-02-22T12:43:22Z</time>
      </trkpt>
      <trkpt lat="47.509173005819321" lon="11.157984891906381">
        <ele>1418.269999999999982</ele>
        <time>2015-02-22T12:43:25Z</time>
      </trkpt>
      <trkpt lat="47.509367885068059" lon="11.158001739531755">
        <ele>1413.660000000000082</ele>
        <time>2015-02-22T12:43:29Z</time>
      </trkpt>
      <trkpt lat="47.509641051292419" lon="11.157788252457976">
        <ele>1409.809999999999945</ele>
        <time>2015-02-22T12:43:38Z</time>
      </trkpt>
      <trkpt lat="47.509661251679063" lon="11.157763358205557">
        <ele>1409.8900000000001</ele>
        <time>2015-02-22T12:43:39Z</time>
      </trkpt>
      <trkpt lat="47.509789159521461" lon="11.157640563324094">
        <ele>1408.240000000000009</ele>
        <time>2015-02-22T12:43:45Z</time>
      </trkpt>
      <trkpt lat="47.509803157299757" lon="11.157608209177852">
        <ele>1408.1400000000001</ele>
        <time>2015-02-22T12:43:56Z</time>
      </trkpt>
      <trkpt lat="47.509809192270041" lon="11.157596474513412">
        <ele>1407.849999999999909</ele>
        <time>2015-02-22T12:44:30Z</time>
      </trkpt>
      <trkpt lat="47.509823692962527" lon="11.157585494220257">
        <ele>1407.789999999999964</ele>
        <time>2015-02-22T12:44:31Z</time>
      </trkpt>
      <trkpt lat="47.509842552244663" lon="11.157569149509072">
        <ele>1407.559999999999945</ele>
        <time>2015-02-22T12:44:32Z</time>
      </trkpt>
      <trkpt lat="47.509862752631307" lon="11.157549787312746">
        <ele>1407.039999999999964</ele>
        <time>2015-02-22T12:44:33Z</time>
      </trkpt>
      <trkpt lat="47.509880606085062" lon="11.157531011849642">
        <ele>1406.650000000000091</ele>
        <time>2015-02-22T12:44:34Z</time>
      </trkpt>
      <trkpt lat="47.509895106777549" lon="11.157514834776521">
        <ele>1406.710000000000036</ele>
        <time>2015-02-22T12:44:35Z</time>
      </trkpt>
      <trkpt lat="47.509929975494742" lon="11.157466806471348">
        <ele>1406.269999999999982</ele>
        <time>2015-02-22T12:44:49Z</time>
      </trkpt>
      <trkpt lat="47.509936513379216" lon="11.15746253170073">
        <ele>1406.039999999999964</ele>
        <time>2015-02-22T12:44:54Z</time>
      </trkpt>
      <trkpt lat="47.510062661021948" lon="11.157504357397556">
        <ele>1402.559999999999945</ele>
        <time>2015-02-22T12:44:59Z</time>
      </trkpt>
      <trkpt lat="47.510131308808923" lon="11.157561941072345">
        <ele>1398.779999999999973</ele>
        <time>2015-02-22T12:45:01Z</time>
      </trkpt>
      <trkpt lat="47.510169614106417" lon="11.1575832311064">
        <ele>1395.700000000000045</ele>
        <time>2015-02-22T12:45:02Z</time>
      </trkpt>
      <trkpt lat="47.510243877768517" lon="11.157652717083693">
        <ele>1392.900000000000091</ele>
        <time>2015-02-22T12:45:04Z</time>
      </trkpt>
      <trkpt lat="47.51028997823596" lon="11.157631929963827">
        <ele>1391.460000000000036</ele>
        <time>2015-02-22T12:45:05Z</time>
      </trkpt>
      <trkpt lat="47.510334150865674" lon="11.157606113702059">
        <ele>1389.5</ele>
        <time>2015-02-22T12:45:06Z</time>
      </trkpt>
      <trkpt lat="47.510367427021265" lon="11.157619608566165">
        <ele>1388.700000000000045</ele>
        <time>2015-02-22T12:45:07Z</time>
      </trkpt>
      <trkpt lat="47.510397098958492" lon="11.157665206119418">
        <ele>1384.6400000000001</ele>
        <time>2015-02-22T12:45:08Z</time>
      </trkpt>
      <trkpt lat="47.51043850556016" lon="11.157686412334442">
        <ele>1382.869999999999891</ele>
        <time>2015-02-22T12:45:09Z</time>
      </trkpt>
      <trkpt lat="47.510480498895049" lon="11.1576506216079">
        <ele>1382.029999999999973</ele>
        <time>2015-02-22T12:45:10Z</time>
      </trkpt>
      <trkpt lat="47.510521905496716" lon="11.157622961327434">
        <ele>1378.519999999999982</ele>
        <time>2015-02-22T12:45:11Z</time>
      </trkpt>
      <trkpt lat="47.510555097833276" lon="11.157638719305396">
        <ele>1377.099999999999909</ele>
        <time>2015-02-22T12:45:12Z</time>
      </trkpt>
      <trkpt lat="47.510585188865662" lon="11.157675683498383">
        <ele>1374.670000000000073</ele>
        <time>2015-02-22T12:45:14Z</time>
      </trkpt>
      <trkpt lat="47.510611591860652" lon="11.157665625214577">
        <ele>1372.650000000000091</ele>
        <time>2015-02-22T12:45:15Z</time>
      </trkpt>
      <trkpt lat="47.510642353445292" lon="11.157647939398885">
        <ele>1373.240000000000009</ele>
        <time>2015-02-22T12:45:16Z</time>
      </trkpt>
      <trkpt lat="47.510674791410565" lon="11.157655902206898">
        <ele>1370.210000000000036</ele>
        <time>2015-02-22T12:45:17Z</time>
      </trkpt>
      <trkpt lat="47.510711923241615" lon="11.15768238902092">
        <ele>1370.470000000000027</ele>
        <time>2015-02-22T12:45:18Z</time>
      </trkpt>
      <trkpt lat="47.510819546878338" lon="11.157759502530098">
        <ele>1366.519999999999982</ele>
        <time>2015-02-22T12:45:21Z</time>
      </trkpt>
      <trkpt lat="47.510895738378167" lon="11.157781798392534">
        <ele>1362.539999999999964</ele>
        <time>2015-02-22T12:45:23Z</time>
      </trkpt>
      <trkpt lat="47.510916022583842" lon="11.157830329611897">
        <ele>1362.269999999999982</ele>
        <time>2015-02-22T12:45:24Z</time>
      </trkpt>
      <trkpt lat="47.510945191606879" lon="11.157859330996871">
        <ele>1358.349999999999909</ele>
        <time>2015-02-22T12:45:25Z</time>
      </trkpt>
      <trkpt lat="47.510981233790517" lon="11.157845417037606">
        <ele>1358.670000000000073</ele>
        <time>2015-02-22T12:45:26Z</time>
      </trkpt>
      <trkpt lat="47.511034458875656" lon="11.157863438129425">
        <ele>1354.200000000000045</ele>
        <time>2015-02-22T12:45:28Z</time>
      </trkpt>
      <trkpt lat="47.511111572384834" lon="11.157850027084351">
        <ele>1350.160000000000082</ele>
        <time>2015-02-22T12:45:30Z</time>
      </trkpt>
      <trkpt lat="47.511144177988172" lon="11.157821444794536">
        <ele>1349.200000000000045</ele>
        <time>2015-02-22T12:45:31Z</time>
      </trkpt>
      <trkpt lat="47.511181561276317" lon="11.157774087041616">
        <ele>1348.519999999999982</ele>
        <time>2015-02-22T12:45:33Z</time>
      </trkpt>
      <trkpt lat="47.511280803009868" lon="11.15786561742425">
        <ele>1340.940000000000055</ele>
        <time>2015-02-22T12:45:37Z</time>
      </trkpt>
      <trkpt lat="47.511352384462953" lon="11.157822869718075">
        <ele>1338.009999999999991</ele>
        <time>2015-02-22T12:45:39Z</time>
      </trkpt>
      <trkpt lat="47.511385744437575" lon="11.15783485583961">
        <ele>1334.75</ele>
        <time>2015-02-22T12:45:40Z</time>
      </trkpt>
      <trkpt lat="47.511417092755437" lon="11.157872574403882">
        <ele>1334.839999999999918</ele>
        <time>2015-02-22T12:45:41Z</time>
      </trkpt>
      <trkpt lat="47.511454224586487" lon="11.157883889973164">
        <ele>1332.75</ele>
        <time>2015-02-22T12:45:42Z</time>
      </trkpt>
      <trkpt lat="47.511478783562779" lon="11.15784952417016">
        <ele>1330.990000000000009</ele>
        <time>2015-02-22T12:45:43Z</time>
      </trkpt>
      <trkpt lat="47.511508874595165" lon="11.157841729000211">
        <ele>1328.650000000000091</ele>
        <time>2015-02-22T12:45:44Z</time>
      </trkpt>
      <trkpt lat="47.511540558189154" lon="11.157864863052964">
        <ele>1327.559999999999945</ele>
        <time>2015-02-22T12:45:45Z</time>
      </trkpt>
      <trkpt lat="47.511578276753426" lon="11.15788615308702">
        <ele>1326.339999999999918</ele>
        <time>2015-02-22T12:45:46Z</time>
      </trkpt>
      <trkpt lat="47.511613229289651" lon="11.157863773405552">
        <ele>1324.3900000000001</ele>
        <time>2015-02-22T12:45:47Z</time>
      </trkpt>
      <trkpt lat="47.511649439111352" lon="11.157839465886354">
        <ele>1323.470000000000027</ele>
        <time>2015-02-22T12:45:48Z</time>
      </trkpt>
      <trkpt lat="47.51168254762888" lon="11.15784659050405">
        <ele>1321.259999999999991</ele>
        <time>2015-02-22T12:45:49Z</time>
      </trkpt>
      <trkpt lat="47.511718757450581" lon="11.157871149480343">
        <ele>1320.940000000000055</ele>
        <time>2015-02-22T12:45:50Z</time>
      </trkpt>
      <trkpt lat="47.511762259528041" lon="11.157864779233932">
        <ele>1320.160000000000082</ele>
        <time>2015-02-22T12:45:51Z</time>
      </trkpt>
      <trkpt lat="47.511808276176453" lon="11.157854804769158">
        <ele>1317.069999999999936</ele>
        <time>2015-02-22T12:45:52Z</time>
      </trkpt>
      <trkpt lat="47.511850018054247" lon="11.157876346260309">
        <ele>1316.170000000000073</ele>
        <time>2015-02-22T12:45:53Z</time>
      </trkpt>
      <trkpt lat="47.511891257017851" lon="11.157891098409891">
        <ele>1315.299999999999955</ele>
        <time>2015-02-22T12:45:54Z</time>
      </trkpt>
      <trkpt lat="47.51193568110466" lon="11.157885063439608">
        <ele>1312.299999999999955</ele>
        <time>2015-02-22T12:45:55Z</time>
      </trkpt>
      <trkpt lat="47.511971807107329" lon="11.157907275483012">
        <ele>1312.269999999999982</ele>
        <time>2015-02-22T12:45:56Z</time>
      </trkpt>
      <trkpt lat="47.512007178738713" lon="11.15794574841857">
        <ele>1309.569999999999936</ele>
        <time>2015-02-22T12:45:57Z</time>
      </trkpt>
      <trkpt lat="47.512048417702317" lon="11.157958740368485">
        <ele>1308.259999999999991</ele>
        <time>2015-02-22T12:45:58Z</time>
      </trkpt>
      <trkpt lat="47.512092674151063" lon="11.15797751583159">
        <ele>1307.329999999999927</ele>
        <time>2015-02-22T12:45:59Z</time>
      </trkpt>
      <trkpt lat="47.512139612808824" lon="11.158000146970153">
        <ele>1303.430000000000064</ele>
        <time>2015-02-22T12:46:00Z</time>
      </trkpt>
      <trkpt lat="47.512219324707985" lon="11.158054545521736">
        <ele>1299.369999999999891</ele>
        <time>2015-02-22T12:46:02Z</time>
      </trkpt>
      <trkpt lat="47.512217983603477" lon="11.158114140853286">
        <ele>1299.349999999999909</ele>
        <time>2015-02-22T12:46:09Z</time>
      </trkpt>
      <trkpt lat="47.512208931148052" lon="11.158120762556791">
        <ele>1298.430000000000064</ele>
        <time>2015-02-22T12:46:15Z</time>
      </trkpt>
      <trkpt lat="47.512209936976433" lon="11.158119337633252">
        <ele>1299.680000000000064</ele>
        <time>2015-02-22T12:46:18Z</time>
      </trkpt>
      <trkpt lat="47.512207254767418" lon="11.158118164166808">
        <ele>1299.460000000000036</ele>
        <time>2015-02-22T12:46:50Z</time>
      </trkpt>
      <trkpt lat="47.512202225625515" lon="11.158123109489679">
        <ele>1299.319999999999936</ele>
        <time>2015-02-22T12:47:17Z</time>
      </trkpt>
      <trkpt lat="47.512221923097968" lon="11.158158145844936">
        <ele>1298.880000000000109</ele>
        <time>2015-02-22T12:47:19Z</time>
      </trkpt>
      <trkpt lat="47.512300126254559" lon="11.158179854974151">
        <ele>1297.5</ele>
        <time>2015-02-22T12:47:21Z</time>
      </trkpt>
      <trkpt lat="47.51234320923686" lon="11.158215310424566">
        <ele>1294.220000000000027</ele>
        <time>2015-02-22T12:47:22Z</time>
      </trkpt>
      <trkpt lat="47.512439768761396" lon="11.158289238810539">
        <ele>1292.910000000000082</ele>
        <time>2015-02-22T12:47:24Z</time>
      </trkpt>
      <trkpt lat="47.512485533952713" lon="11.15834204480052">
        <ele>1288.960000000000036</ele>
        <time>2015-02-22T12:47:25Z</time>
      </trkpt>
      <trkpt lat="47.512588715180755" lon="11.158422846347094">
        <ele>1286.039999999999964</ele>
        <time>2015-02-22T12:47:27Z</time>
      </trkpt>
      <trkpt lat="47.512668007984757" lon="11.158445226028562">
        <ele>1282.700000000000045</ele>
        <time>2015-02-22T12:47:28Z</time>
      </trkpt>
      <trkpt lat="47.512758783996105" lon="11.158496271818876">
        <ele>1281.160000000000082</ele>
        <time>2015-02-22T12:47:29Z</time>
      </trkpt>
      <trkpt lat="47.512958776205778" lon="11.158610517159104">
        <ele>1275.210000000000036</ele>
        <time>2015-02-22T12:47:31Z</time>
      </trkpt>
      <trkpt lat="47.513054916635156" lon="11.158647397533059">
        <ele>1275.029999999999973</ele>
        <time>2015-02-22T12:47:32Z</time>
      </trkpt>
      <trkpt lat="47.513147285208106" lon="11.158672878518701">
        <ele>1273.710000000000036</ele>
        <time>2015-02-22T12:47:33Z</time>
      </trkpt>
      <trkpt lat="47.513333279639482" lon="11.158707495778799">
        <ele>1270.299999999999955</ele>
        <time>2015-02-22T12:47:35Z</time>
      </trkpt>
      <trkpt lat="47.51367568038404" lon="11.158723086118698">
        <ele>1266.559999999999945</ele>
        <time>2015-02-22T12:47:39Z</time>
      </trkpt>
      <trkpt lat="47.513751033693552" lon="11.158708333969116">
        <ele>1266.279999999999973</ele>
        <time>2015-02-22T12:47:40Z</time>
      </trkpt>
      <trkpt lat="47.514032162725925" lon="11.158648151904345">
        <ele>1263.839999999999918</ele>
        <time>2015-02-22T12:47:44Z</time>
      </trkpt>
      <trkpt lat="47.5143719650805" lon="11.158642787486315">
        <ele>1260.789999999999964</ele>
        <time>2015-02-22T12:47:50Z</time>
      </trkpt>
      <trkpt lat="47.514494089409709" lon="11.158618815243244">
        <ele>1260.940000000000055</ele>
        <time>2015-02-22T12:47:59Z</time>
      </trkpt>
      <trkpt lat="47.514507500454783" lon="11.158615127205849">
        <ele>1261.779999999999973</ele>
        <time>2015-02-22T12:48:00Z</time>
      </trkpt>
      <trkpt lat="47.514526275917888" lon="11.158610265702009">
        <ele>1261.779999999999973</ele>
        <time>2015-02-22T12:48:01Z</time>
      </trkpt>
      <trkpt lat="47.514549996703863" lon="11.15859953686595">
        <ele>1261.009999999999991</ele>
        <time>2015-02-22T12:48:02Z</time>
      </trkpt>
      <trkpt lat="47.514576651155949" lon="11.158585455268621">
        <ele>1261.009999999999991</ele>
        <time>2015-02-22T12:48:03Z</time>
      </trkpt>
      <trkpt lat="47.515067998319864" lon="11.158205084502697">
        <ele>1259.089999999999918</ele>
        <time>2015-02-22T12:48:23Z</time>
      </trkpt>
      <trkpt lat="47.515322556719184" lon="11.157915992662311">
        <ele>1257.170000000000073</ele>
        <time>2015-02-22T12:48:39Z</time>
      </trkpt>
      <trkpt lat="47.515646182000637" lon="11.15742489695549">
        <ele>1255.819999999999936</ele>
        <time>2015-02-22T12:48:58Z</time>
      </trkpt>
      <trkpt lat="47.51596687361598" lon="11.156983925029635">
        <ele>1253.3900000000001</ele>
        <time>2015-02-22T12:49:16Z</time>
      </trkpt>
      <trkpt lat="47.516248421743512" lon="11.156578324735165">
        <ele>1253.1099999999999</ele>
        <time>2015-02-22T12:49:37Z</time>
      </trkpt>
      <trkpt lat="47.51657129265368" lon="11.156155960634351">
        <ele>1250.289999999999964</ele>
        <time>2015-02-22T12:49:57Z</time>
      </trkpt>
      <trkpt lat="47.516772877424955" lon="11.155893607065082">
        <ele>1249.049999999999955</ele>
        <time>2015-02-22T12:50:15Z</time>
      </trkpt>
      <trkpt lat="47.516773296520114" lon="11.155894277617335">
        <ele>1249.400000000000091</ele>
        <time>2015-02-22T12:50:35Z</time>
      </trkpt>
      <trkpt lat="47.516822917386889" lon="11.155812973156571">
        <ele>1248.920000000000073</ele>
        <time>2015-02-22T12:50:52Z</time>
      </trkpt>
      <trkpt lat="47.516817636787891" lon="11.155795035883784">
        <ele>1248.240000000000009</ele>
        <time>2015-02-22T12:51:10Z</time>
      </trkpt>
      <trkpt lat="47.516817469149828" lon="11.15580408833921">
        <ele>1248.819999999999936</ele>
        <time>2015-02-22T12:51:27Z</time>
      </trkpt>
      <trkpt lat="47.516810679808259" lon="11.155751198530197">
        <ele>1248.950000000000045</ele>
        <time>2015-02-22T12:51:45Z</time>
      </trkpt>
      <trkpt lat="47.516814200207591" lon="11.155709205195308">
        <ele>1248.950000000000045</ele>
        <time>2015-02-22T12:51:55Z</time>
      </trkpt>
      <trkpt lat="47.516811266541481" lon="11.155641227960587">
        <ele>1249.740000000000009</ele>
        <time>2015-02-22T12:51:59Z</time>
      </trkpt>
      <trkpt lat="47.516833981499076" lon="11.155470320954919">
        <ele>1249.3599999999999</ele>
        <time>2015-02-22T12:52:10Z</time>
      </trkpt>
      <trkpt lat="47.516893073916435" lon="11.155246859416366">
        <ele>1249.200000000000045</ele>
        <time>2015-02-22T12:52:21Z</time>
      </trkpt>
      <trkpt lat="47.516977312043309" lon="11.154918121173978">
        <ele>1248.3900000000001</ele>
        <time>2015-02-22T12:52:34Z</time>
      </trkpt>
      <trkpt lat="47.517183590680361" lon="11.154283778741956">
        <ele>1247.589999999999918</ele>
        <time>2015-02-22T12:52:56Z</time>
      </trkpt>
      <trkpt lat="47.517275791615248" lon="11.153836520388722">
        <ele>1246.980000000000018</ele>
        <time>2015-02-22T12:53:09Z</time>
      </trkpt>
      <trkpt lat="47.517326083034277" lon="11.153600234538317">
        <ele>1247.410000000000082</ele>
        <time>2015-02-22T12:53:16Z</time>
      </trkpt>
      <trkpt lat="47.517338320612907" lon="11.153570227324963">
        <ele>1246.900000000000091</ele>
        <time>2015-02-22T12:53:17Z</time>
      </trkpt>
      <trkpt lat="47.517347540706396" lon="11.153539381921291">
        <ele>1246.440000000000055</ele>
        <time>2015-02-22T12:53:18Z</time>
      </trkpt>
      <trkpt lat="47.517354665324092" lon="11.153507446870208">
        <ele>1246.519999999999982</ele>
        <time>2015-02-22T12:53:19Z</time>
      </trkpt>
      <trkpt lat="47.517365645617247" lon="11.153479786589742">
        <ele>1246.619999999999891</ele>
        <time>2015-02-22T12:53:20Z</time>
      </trkpt>
      <trkpt lat="47.517378302291036" lon="11.153453132137656">
        <ele>1246.329999999999927</ele>
        <time>2015-02-22T12:53:21Z</time>
      </trkpt>
      <trkpt lat="47.517387103289366" lon="11.153424382209778">
        <ele>1246.930000000000064</ele>
        <time>2015-02-22T12:53:22Z</time>
      </trkpt>
      <trkpt lat="47.517396910116076" lon="11.153397727757692">
        <ele>1246.099999999999909</ele>
        <time>2015-02-22T12:53:23Z</time>
      </trkpt>
      <trkpt lat="47.517409399151802" lon="11.153373001143336">
        <ele>1246.039999999999964</ele>
        <time>2015-02-22T12:53:24Z</time>
      </trkpt>
      <trkpt lat="47.517421888187528" lon="11.153345089405775">
        <ele>1246.440000000000055</ele>
        <time>2015-02-22T12:53:25Z</time>
      </trkpt>
      <trkpt lat="47.517432533204556" lon="11.15331407636404">
        <ele>1245.809999999999945</ele>
        <time>2015-02-22T12:53:26Z</time>
      </trkpt>
      <trkpt lat="47.517442088574171" lon="11.153284152969718">
        <ele>1246.619999999999891</ele>
        <time>2015-02-22T12:53:27Z</time>
      </trkpt>
      <trkpt lat="47.517519118264318" lon="11.152679985389113">
        <ele>1246.319999999999936</ele>
        <time>2015-02-22T12:53:46Z</time>
      </trkpt>
      <trkpt lat="47.517506796866655" lon="11.152586527168751">
        <ele>1244.940000000000055</ele>
        <time>2015-02-22T12:53:49Z</time>
      </trkpt>
      <trkpt lat="47.517469162121415" lon="11.152209676802158">
        <ele>1244.759999999999991</ele>
        <time>2015-02-22T12:54:01Z</time>
      </trkpt>
      <trkpt lat="47.517461031675339" lon="11.152115799486637">
        <ele>1245.400000000000091</ele>
        <time>2015-02-22T12:54:05Z</time>
      </trkpt>
      <trkpt lat="47.517461618408561" lon="11.152094509452581">
        <ele>1244.990000000000009</ele>
        <time>2015-02-22T12:54:06Z</time>
      </trkpt>
      <trkpt lat="47.51745818182826" lon="11.152074728161097">
        <ele>1244.470000000000027</ele>
        <time>2015-02-22T12:54:07Z</time>
      </trkpt>
      <trkpt lat="47.517455751076341" lon="11.152054192498326">
        <ele>1244.950000000000045</ele>
        <time>2015-02-22T12:54:08Z</time>
      </trkpt>
      <trkpt lat="47.51745524816215" lon="11.152031142264605">
        <ele>1243.960000000000036</ele>
        <time>2015-02-22T12:54:09Z</time>
      </trkpt>
      <trkpt lat="47.517454074695706" lon="11.152005326002836">
        <ele>1244.6099999999999</ele>
        <time>2015-02-22T12:54:10Z</time>
      </trkpt>
      <trkpt lat="47.517473604530096" lon="11.151824276894331">
        <ele>1244.960000000000036</ele>
        <time>2015-02-22T12:54:18Z</time>
      </trkpt>
      <trkpt lat="47.517480058595538" lon="11.151809440925717">
        <ele>1244.950000000000045</ele>
        <time>2015-02-22T12:54:19Z</time>
      </trkpt>
      <trkpt lat="47.517624814063311" lon="11.151574915274978">
        <ele>1244.920000000000073</ele>
        <time>2015-02-22T12:54:38Z</time>
      </trkpt>
      <trkpt lat="47.517650378867984" lon="11.151533424854279">
        <ele>1245.279999999999973</ele>
        <time>2015-02-22T12:54:43Z</time>
      </trkpt>
      <trkpt lat="47.517677284777164" lon="11.151496125385165">
        <ele>1245.029999999999973</ele>
        <time>2015-02-22T12:54:46Z</time>
      </trkpt>
      <trkpt lat="47.517686588689685" lon="11.151480870321393">
        <ele>1244.599999999999909</ele>
        <time>2015-02-22T12:54:47Z</time>
      </trkpt>
      <trkpt lat="47.517698323354125" lon="11.151468716561794">
        <ele>1245.769999999999982</ele>
        <time>2015-02-22T12:54:48Z</time>
      </trkpt>
      <trkpt lat="47.517710728570819" lon="11.151455221697688">
        <ele>1246.230000000000018</ele>
        <time>2015-02-22T12:54:49Z</time>
      </trkpt>
      <trkpt lat="47.517721289768815" lon="11.151438876986504">
        <ele>1245.200000000000045</ele>
        <time>2015-02-22T12:54:50Z</time>
      </trkpt>
      <trkpt lat="47.517731850966811" lon="11.15142161026597">
        <ele>1244.710000000000036</ele>
        <time>2015-02-22T12:54:51Z</time>
      </trkpt>
      <trkpt lat="47.517782477661967" lon="11.151370899751782">
        <ele>1245.960000000000036</ele>
        <time>2015-02-22T12:55:06Z</time>
      </trkpt>
      <trkpt lat="47.517784154042602" lon="11.151372911408544">
        <ele>1245.579999999999927</ele>
        <time>2015-02-22T12:55:18Z</time>
      </trkpt>
      <trkpt lat="47.51785933971405" lon="11.151283141225576">
        <ele>1246.519999999999982</ele>
        <time>2015-02-22T12:55:34Z</time>
      </trkpt>
      <trkpt lat="47.518000574782491" lon="11.151060685515404">
        <ele>1248.220000000000027</ele>
        <time>2015-02-22T12:55:55Z</time>
      </trkpt>
      <trkpt lat="47.518086489289999" lon="11.15076438523829">
        <ele>1248.279999999999973</ele>
        <time>2015-02-22T12:56:19Z</time>
      </trkpt>
      <trkpt lat="47.518093110993505" lon="11.150703113526106">
        <ele>1247.920000000000073</ele>
        <time>2015-02-22T12:56:26Z</time>
      </trkpt>
      <trkpt lat="47.518095709383488" lon="11.150655085220933">
        <ele>1248.25</ele>
        <time>2015-02-22T12:56:29Z</time>
      </trkpt>
      <trkpt lat="47.518096212297678" lon="11.150638991966844">
        <ele>1247.910000000000082</ele>
        <time>2015-02-22T12:56:30Z</time>
      </trkpt>
      <trkpt lat="47.518072910606861" lon="11.150251999497414">
        <ele>1246.460000000000036</ele>
        <time>2015-02-22T12:56:52Z</time>
      </trkpt>
      <trkpt lat="47.518027564510703" lon="11.149853691458702">
        <ele>1245.299999999999955</ele>
        <time>2015-02-22T12:57:16Z</time>
      </trkpt>
      <trkpt lat="47.518036784604192" lon="11.149661662057042">
        <ele>1246.150000000000091</ele>
        <time>2015-02-22T12:57:34Z</time>
      </trkpt>
      <trkpt lat="47.518084309995174" lon="11.149332588538527">
        <ele>1248.269999999999982</ele>
        <time>2015-02-22T12:57:57Z</time>
      </trkpt>
      <trkpt lat="47.518098643049598" lon="11.148984739556909">
        <ele>1250.789999999999964</ele>
        <time>2015-02-22T12:58:22Z</time>
      </trkpt>
      <trkpt lat="47.51817936077714" lon="11.148769240826368">
        <ele>1253.1099999999999</ele>
        <time>2015-02-22T12:58:41Z</time>
      </trkpt>
      <trkpt lat="47.518312130123377" lon="11.148569667711854">
        <ele>1255.8599999999999</ele>
        <time>2015-02-22T12:59:03Z</time>
      </trkpt>
      <trkpt lat="47.518320512026548" lon="11.148558771237731">
        <ele>1255.710000000000036</ele>
        <time>2015-02-22T12:59:04Z</time>
      </trkpt>
      <trkpt lat="47.518435511738062" lon="11.148378811776638">
        <ele>1256.190000000000055</ele>
        <time>2015-02-22T12:59:22Z</time>
      </trkpt>
      <trkpt lat="47.518560737371445" lon="11.148145291954279">
        <ele>1256.849999999999909</ele>
        <time>2015-02-22T12:59:41Z</time>
      </trkpt>
      <trkpt lat="47.518697027117014" lon="11.14795820787549">
        <ele>1258.319999999999936</ele>
        <time>2015-02-22T13:00:00Z</time>
      </trkpt>
      <trkpt lat="47.518776822835207" lon="11.147727118805051">
        <ele>1260.180000000000064</ele>
        <time>2015-02-22T13:00:19Z</time>
      </trkpt>
      <trkpt lat="47.518832646310329" lon="11.147472141310573">
        <ele>1262.099999999999909</ele>
        <time>2015-02-22T13:00:39Z</time>
      </trkpt>
      <trkpt lat="47.51885712146759" lon="11.147411372512579">
        <ele>1262.740000000000009</ele>
        <time>2015-02-22T13:00:44Z</time>
      </trkpt>
      <trkpt lat="47.518937503919005" lon="11.147184725850821">
        <ele>1263.920000000000073</ele>
        <time>2015-02-22T13:01:02Z</time>
      </trkpt>
      <trkpt lat="47.518957117572427" lon="11.146853473037481">
        <ele>1264.789999999999964</ele>
        <time>2015-02-22T13:01:25Z</time>
      </trkpt>
      <trkpt lat="47.51897782087326" lon="11.146513083949685">
        <ele>1265.259999999999991</ele>
        <time>2015-02-22T13:01:48Z</time>
      </trkpt>
      <trkpt lat="47.518975976854563" lon="11.146498331800103">
        <ele>1264.190000000000055</ele>
        <time>2015-02-22T13:02:06Z</time>
      </trkpt>
      <trkpt lat="47.518978742882609" lon="11.146495649591088">
        <ele>1266.130000000000109</ele>
        <time>2015-02-22T13:02:19Z</time>
      </trkpt>
      <trkpt lat="47.518978072330356" lon="11.146483328193426">
        <ele>1265.730000000000018</ele>
        <time>2015-02-22T13:02:44Z</time>
      </trkpt>
      <trkpt lat="47.518983436748385" lon="11.146493470296264">
        <ele>1266.210000000000036</ele>
        <time>2015-02-22T13:03:12Z</time>
      </trkpt>
      <trkpt lat="47.518987795338035" lon="11.146436221897602">
        <ele>1266.799999999999955</ele>
        <time>2015-02-22T13:03:35Z</time>
      </trkpt>
      <trkpt lat="47.518990142270923" lon="11.146420715376735">
        <ele>1265.680000000000064</ele>
        <time>2015-02-22T13:03:36Z</time>
      </trkpt>
      <trkpt lat="47.51899341121316" lon="11.146401856094599">
        <ele>1266.299999999999955</ele>
        <time>2015-02-22T13:03:37Z</time>
      </trkpt>
      <trkpt lat="47.51899735070765" lon="11.146380063146353">
        <ele>1266.369999999999891</ele>
        <time>2015-02-22T13:03:38Z</time>
      </trkpt>
      <trkpt lat="47.519000452011824" lon="11.146355671808124">
        <ele>1266.019999999999982</ele>
        <time>2015-02-22T13:03:39Z</time>
      </trkpt>
      <trkpt lat="47.519004894420505" lon="11.146329268813133">
        <ele>1266.670000000000073</ele>
        <time>2015-02-22T13:03:40Z</time>
      </trkpt>
      <trkpt lat="47.519010845571756" lon="11.146300015971065">
        <ele>1266.509999999999991</ele>
        <time>2015-02-22T13:03:41Z</time>
      </trkpt>
      <trkpt lat="47.519052335992455" lon="11.145839933305979">
        <ele>1266.660000000000082</ele>
        <time>2015-02-22T13:04:00Z</time>
      </trkpt>
      <trkpt lat="47.519039595499635" lon="11.14548864774406">
        <ele>1265.700000000000045</ele>
        <time>2015-02-22T13:04:17Z</time>
      </trkpt>
      <trkpt lat="47.519027944654226" lon="11.145292092114687">
        <ele>1266.5</ele>
        <time>2015-02-22T13:04:36Z</time>
      </trkpt>
      <trkpt lat="47.519027609378099" lon="11.145289661362767">
        <ele>1266.509999999999991</ele>
        <time>2015-02-22T13:04:54Z</time>
      </trkpt>
      <trkpt lat="47.519022077322006" lon="11.145303742960095">
        <ele>1265.960000000000036</ele>
        <time>2015-02-22T13:05:12Z</time>
      </trkpt>
      <trkpt lat="47.519031716510653" lon="11.145247332751751">
        <ele>1266.009999999999991</ele>
        <time>2015-02-22T13:05:19Z</time>
      </trkpt>
      <trkpt lat="47.519034817814827" lon="11.145214391872287">
        <ele>1265.950000000000045</ele>
        <time>2015-02-22T13:05:21Z</time>
      </trkpt>
      <trkpt lat="47.51914344727993" lon="11.144956396892667">
        <ele>1268.230000000000018</ele>
        <time>2015-02-22T13:05:40Z</time>
      </trkpt>
      <trkpt lat="47.519329357892275" lon="11.144823543727398">
        <ele>1269.950000000000045</ele>
        <time>2015-02-22T13:05:59Z</time>
      </trkpt>
      <trkpt lat="47.519489955157042" lon="11.144620114937425">
        <ele>1270.410000000000082</ele>
        <time>2015-02-22T13:06:17Z</time>
      </trkpt>
      <trkpt lat="47.519622389227152" lon="11.144408974796534">
        <ele>1270.960000000000036</ele>
        <time>2015-02-22T13:06:34Z</time>
      </trkpt>
      <trkpt lat="47.519683409482241" lon="11.144286766648293">
        <ele>1272.059999999999945</ele>
        <time>2015-02-22T13:06:50Z</time>
      </trkpt>
      <trkpt lat="47.519698496907949" lon="11.144286934286356">
        <ele>1269.900000000000091</ele>
        <time>2015-02-22T13:07:05Z</time>
      </trkpt>
      <trkpt lat="47.519703693687916" lon="11.144277714192867">
        <ele>1271.079999999999927</ele>
        <time>2015-02-22T13:07:22Z</time>
      </trkpt>
      <trkpt lat="47.519715344533324" lon="11.144283330067992">
        <ele>1271.180000000000064</ele>
        <time>2015-02-22T13:07:39Z</time>
      </trkpt>
      <trkpt lat="47.519744848832488" lon="11.14423681050539">
        <ele>1271</ele>
        <time>2015-02-22T13:07:53Z</time>
      </trkpt>
      <trkpt lat="47.519758343696594" lon="11.144209401682019">
        <ele>1271.759999999999991</ele>
        <time>2015-02-22T13:08:04Z</time>
      </trkpt>
      <trkpt lat="47.519766977056861" lon="11.144190458580852">
        <ele>1271.3900000000001</ele>
        <time>2015-02-22T13:08:05Z</time>
      </trkpt>
      <trkpt lat="47.519777286797762" lon="11.144165229052305">
        <ele>1271.630000000000109</ele>
        <time>2015-02-22T13:08:06Z</time>
      </trkpt>
      <trkpt lat="47.519787847995758" lon="11.144136227667332">
        <ele>1271.170000000000073</ele>
        <time>2015-02-22T13:08:07Z</time>
      </trkpt>
      <trkpt lat="47.519798409193754" lon="11.144105549901724">
        <ele>1270.8599999999999</ele>
        <time>2015-02-22T13:08:08Z</time>
      </trkpt>
      <trkpt lat="47.519906116649508" lon="11.14355661906302">
        <ele>1267.470000000000027</ele>
        <time>2015-02-22T13:08:23Z</time>
      </trkpt>
      <trkpt lat="47.520068474113941" lon="11.142852120101452">
        <ele>1265.1099999999999</ele>
        <time>2015-02-22T13:08:39Z</time>
      </trkpt>
      <trkpt lat="47.520092697814107" lon="11.142792692407966">
        <ele>1265.1099999999999</ele>
        <time>2015-02-22T13:08:40Z</time>
      </trkpt>
      <trkpt lat="47.520120441913605" lon="11.14273670129478">
        <ele>1263.559999999999945</ele>
        <time>2015-02-22T13:08:41Z</time>
      </trkpt>
      <trkpt lat="47.520143073052168" lon="11.142680291086435">
        <ele>1262.849999999999909</ele>
        <time>2015-02-22T13:08:42Z</time>
      </trkpt>
      <trkpt lat="47.520158663392067" lon="11.142619354650378">
        <ele>1262.990000000000009</ele>
        <time>2015-02-22T13:08:43Z</time>
      </trkpt>
      <trkpt lat="47.520169978961349" lon="11.142550623044372">
        <ele>1262.079999999999927</ele>
        <time>2015-02-22T13:08:44Z</time>
      </trkpt>
      <trkpt lat="47.520177690312266" lon="11.142477951943874">
        <ele>1261.25</ele>
        <time>2015-02-22T13:08:45Z</time>
      </trkpt>
      <trkpt lat="47.520180707797408" lon="11.142400838434696">
        <ele>1260.670000000000073</ele>
        <time>2015-02-22T13:08:46Z</time>
      </trkpt>
      <trkpt lat="47.520181043073535" lon="11.142319114878774">
        <ele>1260.769999999999982</ele>
        <time>2015-02-22T13:08:47Z</time>
      </trkpt>
      <trkpt lat="47.520186826586723" lon="11.142147034406662">
        <ele>1259.079999999999927</ele>
        <time>2015-02-22T13:08:49Z</time>
      </trkpt>
      <trkpt lat="47.520206607878208" lon="11.141973361372948">
        <ele>1258</ele>
        <time>2015-02-22T13:08:51Z</time>
      </trkpt>
      <trkpt lat="47.520234687253833" lon="11.141795413568616">
        <ele>1256.619999999999891</ele>
        <time>2015-02-22T13:08:53Z</time>
      </trkpt>
      <trkpt lat="47.520247511565685" lon="11.141706062480807">
        <ele>1256.460000000000036</ele>
        <time>2015-02-22T13:08:54Z</time>
      </trkpt>
      <trkpt lat="47.52033275552094" lon="11.141255786642432">
        <ele>1254.349999999999909</ele>
        <time>2015-02-22T13:09:03Z</time>
      </trkpt>
      <trkpt lat="47.520394613966346" lon="11.141009861603379">
        <ele>1252.799999999999955</ele>
        <time>2015-02-22T13:09:08Z</time>
      </trkpt>
      <trkpt lat="47.520414227619767" lon="11.14093710668385">
        <ele>1251.170000000000073</ele>
        <time>2015-02-22T13:09:09Z</time>
      </trkpt>
      <trkpt lat="47.520450688898563" lon="11.140755470842123">
        <ele>1249.980000000000018</ele>
        <time>2015-02-22T13:09:11Z</time>
      </trkpt>
      <trkpt lat="47.520536435768008" lon="11.140373926609755">
        <ele>1246.430000000000064</ele>
        <time>2015-02-22T13:09:15Z</time>
      </trkpt>
      <trkpt lat="47.520615477114916" lon="11.14004728384316">
        <ele>1243.849999999999909</ele>
        <time>2015-02-22T13:09:19Z</time>
      </trkpt>
      <trkpt lat="47.520728129893541" lon="11.139688119292259">
        <ele>1241.170000000000073</ele>
        <time>2015-02-22T13:09:23Z</time>
      </trkpt>
      <trkpt lat="47.520846733823419" lon="11.13928553648293">
        <ele>1238.039999999999964</ele>
        <time>2015-02-22T13:09:28Z</time>
      </trkpt>
      <trkpt lat="47.520866096019745" lon="11.139212949201465">
        <ele>1237.970000000000027</ele>
        <time>2015-02-22T13:09:29Z</time>
      </trkpt>
      <trkpt lat="47.520895432680845" lon="11.139075485989451">
        <ele>1237</ele>
        <time>2015-02-22T13:09:31Z</time>
      </trkpt>
      <trkpt lat="47.520914459601045" lon="11.138675836846232">
        <ele>1236.650000000000091</ele>
        <time>2015-02-22T13:09:41Z</time>
      </trkpt>
      <trkpt lat="47.521044379100204" lon="11.13799455575645">
        <ele>1233.579999999999927</ele>
        <time>2015-02-22T13:09:57Z</time>
      </trkpt>
      <trkpt lat="47.52107304520905" lon="11.137812249362469">
        <ele>1232.539999999999964</ele>
        <time>2015-02-22T13:10:00Z</time>
      </trkpt>
      <trkpt lat="47.521071787923574" lon="11.137745277956128">
        <ele>1232.029999999999973</ele>
        <time>2015-02-22T13:10:01Z</time>
      </trkpt>
      <trkpt lat="47.521070027723908" lon="11.137680653482676">
        <ele>1231.630000000000109</ele>
        <time>2015-02-22T13:10:02Z</time>
      </trkpt>
      <trkpt lat="47.521069524809718" lon="11.137613765895367">
        <ele>1231.160000000000082</ele>
        <time>2015-02-22T13:10:03Z</time>
      </trkpt>
      <trkpt lat="47.521075140684843" lon="11.137534640729427">
        <ele>1230.5</ele>
        <time>2015-02-22T13:10:04Z</time>
      </trkpt>
      <trkpt lat="47.521089054644108" lon="11.137455683201551">
        <ele>1230.519999999999982</ele>
        <time>2015-02-22T13:10:05Z</time>
      </trkpt>
      <trkpt lat="47.521097855642438" lon="11.137376306578517">
        <ele>1229.3599999999999</ele>
        <time>2015-02-22T13:10:06Z</time>
      </trkpt>
      <trkpt lat="47.521103639155626" lon="11.137300869449973">
        <ele>1228.430000000000064</ele>
        <time>2015-02-22T13:10:07Z</time>
      </trkpt>
      <trkpt lat="47.521110093221068" lon="11.137227360159159">
        <ele>1226.349999999999909</ele>
        <time>2015-02-22T13:10:08Z</time>
      </trkpt>
      <trkpt lat="47.521118307486176" lon="11.137154186144471">
        <ele>1226.549999999999955</ele>
        <time>2015-02-22T13:10:09Z</time>
      </trkpt>
      <trkpt lat="47.521130964159966" lon="11.137088136747479">
        <ele>1225.789999999999964</ele>
        <time>2015-02-22T13:10:10Z</time>
      </trkpt>
      <trkpt lat="47.521138088777661" lon="11.137014627456665">
        <ele>1222.650000000000091</ele>
        <time>2015-02-22T13:10:12Z</time>
      </trkpt>
      <trkpt lat="47.521140435710549" lon="11.137012196704745">
        <ele>1222.839999999999918</ele>
        <time>2015-02-22T13:10:13Z</time>
      </trkpt>
      <trkpt lat="47.52113901078701" lon="11.136998366564512">
        <ele>1223.3599999999999</ele>
        <time>2015-02-22T13:10:21Z</time>
      </trkpt>
      <trkpt lat="47.521141776815057" lon="11.136971209198236">
        <ele>1222.619999999999891</ele>
        <time>2015-02-22T13:10:22Z</time>
      </trkpt>
      <trkpt lat="47.521146889775991" lon="11.13692888058722">
        <ele>1222.130000000000109</ele>
        <time>2015-02-22T13:10:23Z</time>
      </trkpt>
      <trkpt lat="47.521142950281501" lon="11.136879762634635">
        <ele>1221.970000000000027</ele>
        <time>2015-02-22T13:10:24Z</time>
      </trkpt>
      <trkpt lat="47.52113850787282" lon="11.136826118454337">
        <ele>1221.809999999999945</ele>
        <time>2015-02-22T13:10:25Z</time>
      </trkpt>
      <trkpt lat="47.521141525357962" lon="11.136764176189899">
        <ele>1220.240000000000009</ele>
        <time>2015-02-22T13:10:26Z</time>
      </trkpt>
      <trkpt lat="47.521137250587344" lon="11.136705251410604">
        <ele>1219.990000000000009</ele>
        <time>2015-02-22T13:10:27Z</time>
      </trkpt>
      <trkpt lat="47.521123923361301" lon="11.136655798181891">
        <ele>1218.819999999999936</ele>
        <time>2015-02-22T13:10:28Z</time>
      </trkpt>
      <trkpt lat="47.521088216453791" lon="11.136514311656356">
        <ele>1217.170000000000073</ele>
        <time>2015-02-22T13:10:31Z</time>
      </trkpt>
      <trkpt lat="47.521077739074826" lon="11.136465193703771">
        <ele>1215.630000000000109</ele>
        <time>2015-02-22T13:10:32Z</time>
      </trkpt>
      <trkpt lat="47.521067764610052" lon="11.136416662484407">
        <ele>1214.720000000000027</ele>
        <time>2015-02-22T13:10:33Z</time>
      </trkpt>
      <trkpt lat="47.521056365221739" lon="11.136360336095095">
        <ele>1213.960000000000036</ele>
        <time>2015-02-22T13:10:34Z</time>
      </trkpt>
      <trkpt lat="47.521042283624411" lon="11.136291772127151">
        <ele>1213.480000000000018</ele>
        <time>2015-02-22T13:10:35Z</time>
      </trkpt>
      <trkpt lat="47.521032309159636" lon="11.136140981689095">
        <ele>1211.200000000000045</ele>
        <time>2015-02-22T13:10:37Z</time>
      </trkpt>
      <trkpt lat="47.52104178071022" lon="11.136065879836679">
        <ele>1209.910000000000082</ele>
        <time>2015-02-22T13:10:38Z</time>
      </trkpt>
      <trkpt lat="47.521048234775662" lon="11.135996142402291">
        <ele>1208.599999999999909</ele>
        <time>2015-02-22T13:10:39Z</time>
      </trkpt>
      <trkpt lat="47.521053599193692" lon="11.135927075520158">
        <ele>1206.710000000000036</ele>
        <time>2015-02-22T13:10:40Z</time>
      </trkpt>
      <trkpt lat="47.521060723811388" lon="11.135858008638024">
        <ele>1204.980000000000018</ele>
        <time>2015-02-22T13:10:41Z</time>
      </trkpt>
      <trkpt lat="47.52106131054461" lon="11.135784247890115">
        <ele>1204.299999999999955</ele>
        <time>2015-02-22T13:10:42Z</time>
      </trkpt>
      <trkpt lat="47.521081175655127" lon="11.13571266643703">
        <ele>1202.009999999999991</ele>
        <time>2015-02-22T13:10:43Z</time>
      </trkpt>
      <trkpt lat="47.521101627498865" lon="11.135646868497133">
        <ele>1202.200000000000045</ele>
        <time>2015-02-22T13:10:44Z</time>
      </trkpt>
      <trkpt lat="47.521119061857462" lon="11.135579226538539">
        <ele>1199.8900000000001</ele>
        <time>2015-02-22T13:10:45Z</time>
      </trkpt>
      <trkpt lat="47.521132724359632" lon="11.135514602065086">
        <ele>1197.369999999999891</ele>
        <time>2015-02-22T13:10:46Z</time>
      </trkpt>
      <trkpt lat="47.521137753501534" lon="11.135448217391968">
        <ele>1197.069999999999936</ele>
        <time>2015-02-22T13:10:47Z</time>
      </trkpt>
      <trkpt lat="47.521130461245775" lon="11.135387364774942">
        <ele>1197.1099999999999</ele>
        <time>2015-02-22T13:10:48Z</time>
      </trkpt>
      <trkpt lat="47.521121492609382" lon="11.135212769731879">
        <ele>1194.599999999999909</ele>
        <time>2015-02-22T13:10:51Z</time>
      </trkpt>
      <trkpt lat="47.521100118756294" lon="11.13503985106945">
        <ele>1191.900000000000091</ele>
        <time>2015-02-22T13:10:54Z</time>
      </trkpt>
      <trkpt lat="47.521090814843774" lon="11.134977657347918">
        <ele>1189.880000000000109</ele>
        <time>2015-02-22T13:10:55Z</time>
      </trkpt>
      <trkpt lat="47.52107203938067" lon="11.134916301816702">
        <ele>1188.970000000000027</ele>
        <time>2015-02-22T13:10:56Z</time>
      </trkpt>
      <trkpt lat="47.521059634163976" lon="11.134847737848759">
        <ele>1188.25</ele>
        <time>2015-02-22T13:10:57Z</time>
      </trkpt>
      <trkpt lat="47.521048234775662" lon="11.134772133082151">
        <ele>1188.220000000000027</ele>
        <time>2015-02-22T13:10:58Z</time>
      </trkpt>
      <trkpt lat="47.521035578101873" lon="11.134695606306195">
        <ele>1187.039999999999964</ele>
        <time>2015-02-22T13:10:59Z</time>
      </trkpt>
      <trkpt lat="47.521023424342275" lon="11.134619833901525">
        <ele>1184.569999999999936</ele>
        <time>2015-02-22T13:11:00Z</time>
      </trkpt>
      <trkpt lat="47.521008253097534" lon="11.134547498077154">
        <ele>1184.259999999999991</ele>
        <time>2015-02-22T13:11:01Z</time>
      </trkpt>
      <trkpt lat="47.520989226177335" lon="11.134478179737926">
        <ele>1183.950000000000045</ele>
        <time>2015-02-22T13:11:02Z</time>
      </trkpt>
      <trkpt lat="47.520970785990357" lon="11.134407604113221">
        <ele>1182.839999999999918</ele>
        <time>2015-02-22T13:11:03Z</time>
      </trkpt>
      <trkpt lat="47.520953351631761" lon="11.134334346279502">
        <ele>1181.1099999999999</ele>
        <time>2015-02-22T13:11:04Z</time>
      </trkpt>
      <trkpt lat="47.520940192043781" lon="11.134255053475499">
        <ele>1180.289999999999964</ele>
        <time>2015-02-22T13:11:05Z</time>
      </trkpt>
      <trkpt lat="47.520888643339276" lon="11.133924135938287">
        <ele>1176.369999999999891</ele>
        <time>2015-02-22T13:11:09Z</time>
      </trkpt>
      <trkpt lat="47.520879590883851" lon="11.133834114298224">
        <ele>1175.170000000000073</ele>
        <time>2015-02-22T13:11:10Z</time>
      </trkpt>
      <trkpt lat="47.520869197323918" lon="11.133741578087211">
        <ele>1173.8599999999999</ele>
        <time>2015-02-22T13:11:11Z</time>
      </trkpt>
      <trkpt lat="47.520865006372333" lon="11.133644264191389">
        <ele>1172.619999999999891</ele>
        <time>2015-02-22T13:11:12Z</time>
      </trkpt>
      <trkpt lat="47.52086391672492" lon="11.133547034114599">
        <ele>1171.950000000000045</ele>
        <time>2015-02-22T13:11:13Z</time>
      </trkpt>
      <trkpt lat="47.520865174010396" lon="11.133456844836473">
        <ele>1170.019999999999982</ele>
        <time>2015-02-22T13:11:14Z</time>
      </trkpt>
      <trkpt lat="47.520860647782683" lon="11.133380401879549">
        <ele>1168.650000000000091</ele>
        <time>2015-02-22T13:11:15Z</time>
      </trkpt>
      <trkpt lat="47.520860815420747" lon="11.133313765749335">
        <ele>1168.099999999999909</ele>
        <time>2015-02-22T13:11:16Z</time>
      </trkpt>
      <trkpt lat="47.520859306678176" lon="11.133266994729638">
        <ele>1167.029999999999973</ele>
        <time>2015-02-22T13:11:17Z</time>
      </trkpt>
      <trkpt lat="47.520839106291533" lon="11.133240507915616">
        <ele>1166.410000000000082</ele>
        <time>2015-02-22T13:11:20Z</time>
      </trkpt>
      <trkpt lat="47.520824354141951" lon="11.133212512359023">
        <ele>1166.049999999999955</ele>
        <time>2015-02-22T13:11:25Z</time>
      </trkpt>
      <trkpt lat="47.520821001380682" lon="11.133134225383401">
        <ele>1165.579999999999927</ele>
        <time>2015-02-22T13:11:27Z</time>
      </trkpt>
      <trkpt lat="47.520827706903219" lon="11.133077144622803">
        <ele>1164.470000000000027</ele>
        <time>2015-02-22T13:11:28Z</time>
      </trkpt>
      <trkpt lat="47.52084095031023" lon="11.13301495090127">
        <ele>1164.25</ele>
        <time>2015-02-22T13:11:29Z</time>
      </trkpt>
      <trkpt lat="47.520855031907558" lon="11.13294655457139">
        <ele>1162.829999999999927</ele>
        <time>2015-02-22T13:11:30Z</time>
      </trkpt>
      <trkpt lat="47.52087171189487" lon="11.132878074422479">
        <ele>1162.009999999999991</ele>
        <time>2015-02-22T13:11:31Z</time>
      </trkpt>
      <trkpt lat="47.520888056606054" lon="11.132811103016138">
        <ele>1160.289999999999964</ele>
        <time>2015-02-22T13:11:32Z</time>
      </trkpt>
      <trkpt lat="47.52090155147016" lon="11.132750501856208">
        <ele>1160.220000000000027</ele>
        <time>2015-02-22T13:11:33Z</time>
      </trkpt>
      <trkpt lat="47.520913621410728" lon="11.13269149325788">
        <ele>1159.839999999999918</ele>
        <time>2015-02-22T13:11:34Z</time>
      </trkpt>
      <trkpt lat="47.520915130153298" lon="11.13262846134603">
        <ele>1158.230000000000018</ele>
        <time>2015-02-22T13:11:35Z</time>
      </trkpt>
      <trkpt lat="47.52091471105814" lon="11.132558220997453">
        <ele>1156.559999999999945</ele>
        <time>2015-02-22T13:11:36Z</time>
      </trkpt>
      <trkpt lat="47.520911190658808" lon="11.132486304268241">
        <ele>1155.569999999999936</ele>
        <time>2015-02-22T13:11:37Z</time>
      </trkpt>
      <trkpt lat="47.520900461822748" lon="11.132423439994454">
        <ele>1156.130000000000109</ele>
        <time>2015-02-22T13:11:38Z</time>
      </trkpt>
      <trkpt lat="47.520891074091196" lon="11.132362000644207">
        <ele>1154.289999999999964</ele>
        <time>2015-02-22T13:11:39Z</time>
      </trkpt>
      <trkpt lat="47.520879590883851" lon="11.132306596264243">
        <ele>1153.150000000000091</ele>
        <time>2015-02-22T13:11:40Z</time>
      </trkpt>
      <trkpt lat="47.520874310284853" lon="11.132250772789121">
        <ele>1152.990000000000009</ele>
        <time>2015-02-22T13:11:41Z</time>
      </trkpt>
      <trkpt lat="47.520862575620413" lon="11.132201068103313">
        <ele>1152.25</ele>
        <time>2015-02-22T13:11:42Z</time>
      </trkpt>
      <trkpt lat="47.520838184282184" lon="11.13216619938612">
        <ele>1151.630000000000109</ele>
        <time>2015-02-22T13:11:43Z</time>
      </trkpt>
      <trkpt lat="47.520812200382352" lon="11.132133593782783">
        <ele>1150.960000000000036</ele>
        <time>2015-02-22T13:11:44Z</time>
      </trkpt>
      <trkpt lat="47.520810607820749" lon="11.132095623761415">
        <ele>1150.869999999999891</ele>
        <time>2015-02-22T13:11:45Z</time>
      </trkpt>
      <trkpt lat="47.520810859277844" lon="11.13204943947494">
        <ele>1148.430000000000064</ele>
        <time>2015-02-22T13:11:46Z</time>
      </trkpt>
      <trkpt lat="47.520810859277844" lon="11.132000237703323">
        <ele>1147.559999999999945</ele>
        <time>2015-02-22T13:11:47Z</time>
      </trkpt>
      <trkpt lat="47.520820749923587" lon="11.131941229104996">
        <ele>1147.279999999999973</ele>
        <time>2015-02-22T13:11:48Z</time>
      </trkpt>
      <trkpt lat="47.520818402990699" lon="11.131877275183797">
        <ele>1145.430000000000064</ele>
        <time>2015-02-22T13:11:49Z</time>
      </trkpt>
      <trkpt lat="47.520814631134272" lon="11.131826313212514">
        <ele>1143.1400000000001</ele>
        <time>2015-02-22T13:11:50Z</time>
      </trkpt>
      <trkpt lat="47.520835921168327" lon="11.131770489737391">
        <ele>1143.559999999999945</ele>
        <time>2015-02-22T13:11:51Z</time>
      </trkpt>
      <trkpt lat="47.520848661661148" lon="11.131706871092319">
        <ele>1140.170000000000073</ele>
        <time>2015-02-22T13:11:52Z</time>
      </trkpt>
      <trkpt lat="47.520838100463152" lon="11.131646689027548">
        <ele>1139.460000000000036</ele>
        <time>2015-02-22T13:11:53Z</time>
      </trkpt>
      <trkpt lat="47.52081748098135" lon="11.13158424384892">
        <ele>1138.3599999999999</ele>
        <time>2015-02-22T13:11:54Z</time>
      </trkpt>
      <trkpt lat="47.520794095471501" lon="11.131511488929391">
        <ele>1136.690000000000055</ele>
        <time>2015-02-22T13:11:55Z</time>
      </trkpt>
      <trkpt lat="47.52076224423945" lon="11.131437057629228">
        <ele>1136.349999999999909</ele>
        <time>2015-02-22T13:11:56Z</time>
      </trkpt>
      <trkpt lat="47.520684795454144" lon="11.131278723478317">
        <ele>1132.940000000000055</ele>
        <time>2015-02-22T13:11:58Z</time>
      </trkpt>
      <trkpt lat="47.520649340003729" lon="11.131199095398188">
        <ele>1130.700000000000045</ele>
        <time>2015-02-22T13:11:59Z</time>
      </trkpt>
      <trkpt lat="47.520632157102227" lon="11.131123993545771">
        <ele>1129.400000000000091</ele>
        <time>2015-02-22T13:12:00Z</time>
      </trkpt>
      <trkpt lat="47.520619500428438" lon="11.131071941927075">
        <ele>1127.549999999999955</ele>
        <time>2015-02-22T13:12:01Z</time>
      </trkpt>
      <trkpt lat="47.520603993907571" lon="11.131054172292352">
        <ele>1127.660000000000082</ele>
        <time>2015-02-22T13:12:09Z</time>
      </trkpt>
      <trkpt lat="47.520589912310243" lon="11.131046041846275">
        <ele>1126.970000000000027</ele>
        <time>2015-02-22T13:12:13Z</time>
      </trkpt>
      <trkpt lat="47.520574070513248" lon="11.131028858944774">
        <ele>1126.819999999999936</ele>
        <time>2015-02-22T13:12:14Z</time>
      </trkpt>
      <trkpt lat="47.520550852641463" lon="11.131007736548781">
        <ele>1126.740000000000009</ele>
        <time>2015-02-22T13:12:15Z</time>
      </trkpt>
      <trkpt lat="47.520523862913251" lon="11.130999270826578">
        <ele>1125.829999999999927</ele>
        <time>2015-02-22T13:12:16Z</time>
      </trkpt>
      <trkpt lat="47.520502237603068" lon="11.131007317453623">
        <ele>1124.920000000000073</ele>
        <time>2015-02-22T13:12:17Z</time>
      </trkpt>
      <trkpt lat="47.520479522645473" lon="11.131010921671987">
        <ele>1124.400000000000091</ele>
        <time>2015-02-22T13:12:18Z</time>
      </trkpt>
      <trkpt lat="47.520447252318263" lon="11.130988374352455">
        <ele>1124.309999999999945</ele>
        <time>2015-02-22T13:12:19Z</time>
      </trkpt>
      <trkpt lat="47.520408444106579" lon="11.130959540605545">
        <ele>1122.3599999999999</ele>
        <time>2015-02-22T13:12:20Z</time>
      </trkpt>
      <trkpt lat="47.520390590652823" lon="11.130927689373493">
        <ele>1121.650000000000091</ele>
        <time>2015-02-22T13:12:21Z</time>
      </trkpt>
      <trkpt lat="47.52040115185082" lon="11.13088795915246">
        <ele>1121.309999999999945</ele>
        <time>2015-02-22T13:12:22Z</time>
      </trkpt>
      <trkpt lat="47.520434595644474" lon="11.130856359377503">
        <ele>1120.410000000000082</ele>
        <time>2015-02-22T13:12:23Z</time>
      </trkpt>
      <trkpt lat="47.520480277016759" lon="11.130830878391862">
        <ele>1120.3900000000001</ele>
        <time>2015-02-22T13:12:24Z</time>
      </trkpt>
      <trkpt lat="47.520533334463835" lon="11.130810845643282">
        <ele>1118.440000000000055</ele>
        <time>2015-02-22T13:12:25Z</time>
      </trkpt>
      <trkpt lat="47.520584547892213" lon="11.130795925855637">
        <ele>1117</ele>
        <time>2015-02-22T13:12:26Z</time>
      </trkpt>
      <trkpt lat="47.52063324674964" lon="11.1307926569134">
        <ele>1114.75</ele>
        <time>2015-02-22T13:12:27Z</time>
      </trkpt>
      <trkpt lat="47.520825695246458" lon="11.130755860358477">
        <ele>1110.799999999999955</ele>
        <time>2015-02-22T13:12:32Z</time>
      </trkpt>
      <trkpt lat="47.520845979452133" lon="11.130628371611238">
        <ele>1108.769999999999982</ele>
        <time>2015-02-22T13:12:34Z</time>
      </trkpt>
      <trkpt lat="47.520807674154639" lon="11.130587132647634">
        <ele>1106.740000000000009</ele>
        <time>2015-02-22T13:12:35Z</time>
      </trkpt>
      <trkpt lat="47.520759478211403" lon="11.130571709945798">
        <ele>1106.299999999999955</ele>
        <time>2015-02-22T13:12:36Z</time>
      </trkpt>
      <trkpt lat="47.520719831809402" lon="11.130570704117417">
        <ele>1105</ele>
        <time>2015-02-22T13:12:37Z</time>
      </trkpt>
      <trkpt lat="47.520697703585029" lon="11.130575062707067">
        <ele>1105.150000000000091</ele>
        <time>2015-02-22T13:12:38Z</time>
      </trkpt>
      <trkpt lat="47.520674234256148" lon="11.130559723824263">
        <ele>1104.25</ele>
        <time>2015-02-22T13:12:50Z</time>
      </trkpt>
      <trkpt lat="47.520683789625764" lon="11.130565172061324">
        <ele>1103.650000000000091</ele>
        <time>2015-02-22T13:13:10Z</time>
      </trkpt>
      <trkpt lat="47.520684376358986" lon="11.130567770451307">
        <ele>1104.089999999999918</ele>
        <time>2015-02-22T13:13:34Z</time>
      </trkpt>
      <trkpt lat="47.520621260628104" lon="11.130484202876687">
        <ele>1100.660000000000082</ele>
        <time>2015-02-22T13:13:45Z</time>
      </trkpt>
      <trkpt lat="47.520519169047475" lon="11.130416477099061">
        <ele>1097.980000000000018</ele>
        <time>2015-02-22T13:14:00Z</time>
      </trkpt>
      <trkpt lat="47.520427638664842" lon="11.130337435752153">
        <ele>1095.200000000000045</ele>
        <time>2015-02-22T13:14:14Z</time>
      </trkpt>
      <trkpt lat="47.520383633673191" lon="11.13035143353045">
        <ele>1094.119999999999891</ele>
        <time>2015-02-22T13:14:26Z</time>
      </trkpt>
      <trkpt lat="47.520309705287218" lon="11.130386888980865">
        <ele>1090.769999999999982</ele>
        <time>2015-02-22T13:14:38Z</time>
      </trkpt>
      <trkpt lat="47.520214151591063" lon="11.130437180399895">
        <ele>1088.690000000000055</ele>
        <time>2015-02-22T13:14:50Z</time>
      </trkpt>
      <trkpt lat="47.520139301195741" lon="11.130411950871348">
        <ele>1084.880000000000109</ele>
        <time>2015-02-22T13:15:00Z</time>
      </trkpt>
      <trkpt lat="47.520135026425123" lon="11.13041253760457">
        <ele>1085</ele>
        <time>2015-02-22T13:15:01Z</time>
      </trkpt>
      <trkpt lat="47.520133182406425" lon="11.130410190671682">
        <ele>1086.799999999999955</ele>
        <time>2015-02-22T13:15:06Z</time>
      </trkpt>
      <trkpt lat="47.520136367529631" lon="11.130410945042968">
        <ele>1086.1400000000001</ele>
        <time>2015-02-22T13:15:08Z</time>
      </trkpt>
      <trkpt lat="47.520137876272202" lon="11.130386386066675">
        <ele>1085.309999999999945</ele>
        <time>2015-02-22T13:15:32Z</time>
      </trkpt>
      <trkpt lat="47.520103426650167" lon="11.130367442965508">
        <ele>1086.3599999999999</ele>
        <time>2015-02-22T13:15:48Z</time>
      </trkpt>
      <trkpt lat="47.520067216828465" lon="11.130388816818595">
        <ele>1085.059999999999945</ele>
        <time>2015-02-22T13:16:08Z</time>
      </trkpt>
      <trkpt lat="47.520016673952341" lon="11.130390157923102">
        <ele>1083.960000000000036</ele>
        <time>2015-02-22T13:16:14Z</time>
      </trkpt>
      <trkpt lat="47.519885916262865" lon="11.130355121567845">
        <ele>1080.970000000000027</ele>
        <time>2015-02-22T13:16:27Z</time>
      </trkpt>
      <trkpt lat="47.51977770589292" lon="11.130319079384208">
        <ele>1077.789999999999964</ele>
        <time>2015-02-22T13:16:37Z</time>
      </trkpt>
      <trkpt lat="47.519741831347346" lon="11.130369873717427">
        <ele>1077.759999999999991</ele>
        <time>2015-02-22T13:16:55Z</time>
      </trkpt>
      <trkpt lat="47.519706543534994" lon="11.130375154316425">
        <ele>1077.880000000000109</ele>
        <time>2015-02-22T13:17:22Z</time>
      </trkpt>
      <trkpt lat="47.519700257107615" lon="11.130380937829614">
        <ele>1078.779999999999973</ele>
        <time>2015-02-22T13:17:40Z</time>
      </trkpt>
      <trkpt lat="47.519704531878233" lon="11.130390828475356">
        <ele>1079.299999999999955</ele>
        <time>2015-02-22T13:18:07Z</time>
      </trkpt>
      <trkpt lat="47.519693216308951" lon="11.130375824868679">
        <ele>1078.950000000000045</ele>
        <time>2015-02-22T13:18:12Z</time>
      </trkpt>
      <trkpt lat="47.519664214923978" lon="11.130325784906745">
        <ele>1078.6099999999999</ele>
        <time>2015-02-22T13:18:14Z</time>
      </trkpt>
      <trkpt lat="47.519633369520307" lon="11.130290413275361">
        <ele>1077.920000000000073</ele>
        <time>2015-02-22T13:18:15Z</time>
      </trkpt>
      <trkpt lat="47.519591376185417" lon="11.130260154604912">
        <ele>1077.079999999999927</ele>
        <time>2015-02-22T13:18:16Z</time>
      </trkpt>
      <trkpt lat="47.519545610994101" lon="11.130242720246315">
        <ele>1076.630000000000109</ele>
        <time>2015-02-22T13:18:17Z</time>
      </trkpt>
      <trkpt lat="47.519495990127325" lon="11.130231153219938">
        <ele>1074.920000000000073</ele>
        <time>2015-02-22T13:18:18Z</time>
      </trkpt>
      <trkpt lat="47.519382750615478" lon="11.130200056359172">
        <ele>1073.220000000000027</ele>
        <time>2015-02-22T13:18:20Z</time>
      </trkpt>
      <trkpt lat="47.519329190254211" lon="11.130179772153497">
        <ele>1072.230000000000018</ele>
        <time>2015-02-22T13:18:21Z</time>
      </trkpt>
      <trkpt lat="47.519280826672912" lon="11.130153620615602">
        <ele>1071.690000000000055</ele>
        <time>2015-02-22T13:18:22Z</time>
      </trkpt>
      <trkpt lat="47.519193654879928" lon="11.130105592310429">
        <ele>1070.039999999999964</ele>
        <time>2015-02-22T13:18:24Z</time>
      </trkpt>
      <trkpt lat="47.519145207479596" lon="11.130077429115772">
        <ele>1069.200000000000045</ele>
        <time>2015-02-22T13:18:25Z</time>
      </trkpt>
      <trkpt lat="47.519045798107982" lon="11.130019342526793">
        <ele>1067.880000000000109</ele>
        <time>2015-02-22T13:18:27Z</time>
      </trkpt>
      <trkpt lat="47.51900028437376" lon="11.129963519051671">
        <ele>1066.440000000000055</ele>
        <time>2015-02-22T13:18:28Z</time>
      </trkpt>
      <trkpt lat="47.51894798129797" lon="11.129908785223961">
        <ele>1065.180000000000064</ele>
        <time>2015-02-22T13:18:29Z</time>
      </trkpt>
      <trkpt lat="47.518897606059909" lon="11.129848435521126">
        <ele>1063.869999999999891</ele>
        <time>2015-02-22T13:18:30Z</time>
      </trkpt>
      <trkpt lat="47.518851757049561" lon="11.129783894866705">
        <ele>1062.180000000000064</ele>
        <time>2015-02-22T13:18:31Z</time>
      </trkpt>
      <trkpt lat="47.518808841705322" lon="11.1297357827425">
        <ele>1060.339999999999918</ele>
        <time>2015-02-22T13:18:32Z</time>
      </trkpt>
      <trkpt lat="47.518721166998148" lon="11.129663027822971">
        <ele>1059.380000000000109</ele>
        <time>2015-02-22T13:18:34Z</time>
      </trkpt>
      <trkpt lat="47.518674144521356" lon="11.129623046144843">
        <ele>1058.599999999999909</ele>
        <time>2015-02-22T13:18:35Z</time>
      </trkpt>
      <trkpt lat="47.518618069589138" lon="11.129587674513459">
        <ele>1057.910000000000082</ele>
        <time>2015-02-22T13:18:36Z</time>
      </trkpt>
      <trkpt lat="47.518418412655592" lon="11.129506453871727">
        <ele>1054.549999999999955</ele>
        <time>2015-02-22T13:18:39Z</time>
      </trkpt>
      <trkpt lat="47.518290923908353" lon="11.129468567669392">
        <ele>1053.160000000000082</ele>
        <time>2015-02-22T13:18:41Z</time>
      </trkpt>
      <trkpt lat="47.518239039927721" lon="11.129440320655704">
        <ele>1052.819999999999936</ele>
        <time>2015-02-22T13:18:42Z</time>
      </trkpt>
      <trkpt lat="47.51819210126996" lon="11.129412073642015">
        <ele>1052.829999999999927</ele>
        <time>2015-02-22T13:18:43Z</time>
      </trkpt>
      <trkpt lat="47.518147090449929" lon="11.129388688132167">
        <ele>1052.240000000000009</ele>
        <time>2015-02-22T13:18:44Z</time>
      </trkpt>
      <trkpt lat="47.518100822344422" lon="11.129370415583253">
        <ele>1052.220000000000027</ele>
        <time>2015-02-22T13:18:45Z</time>
      </trkpt>
      <trkpt lat="47.518057152628899" lon="11.129358597099781">
        <ele>1051.3900000000001</ele>
        <time>2015-02-22T13:18:46Z</time>
      </trkpt>
      <trkpt lat="47.517767557874322" lon="11.129323644563556">
        <ele>1050.430000000000064</ele>
        <time>2015-02-22T13:18:56Z</time>
      </trkpt>
      <trkpt lat="47.517677284777164" lon="11.129146618768573">
        <ele>1048.940000000000055</ele>
        <time>2015-02-22T13:19:03Z</time>
      </trkpt>
      <trkpt lat="47.517626406624913" lon="11.129004545509815">
        <ele>1049.119999999999891</ele>
        <time>2015-02-22T13:19:09Z</time>
      </trkpt>
      <trkpt lat="47.517616683617234" lon="11.128984596580267">
        <ele>1049.299999999999955</ele>
        <time>2015-02-22T13:19:10Z</time>
      </trkpt>
      <trkpt lat="47.51761207357049" lon="11.128962049260736">
        <ele>1050.6400000000001</ele>
        <time>2015-02-22T13:19:11Z</time>
      </trkpt>
      <trkpt lat="47.517606038600206" lon="11.128938579931855">
        <ele>1049.559999999999945</ele>
        <time>2015-02-22T13:19:12Z</time>
      </trkpt>
      <trkpt lat="47.51759740523994" lon="11.128911841660738">
        <ele>1049.990000000000009</ele>
        <time>2015-02-22T13:19:13Z</time>
      </trkpt>
      <trkpt lat="47.517586760222912" lon="11.128882169723511">
        <ele>1050.25</ele>
        <time>2015-02-22T13:19:14Z</time>
      </trkpt>
      <trkpt lat="47.517397832125425" lon="11.128463242202997">
        <ele>1047.029999999999973</ele>
        <time>2015-02-22T13:19:28Z</time>
      </trkpt>
      <trkpt lat="47.517207060009241" lon="11.12823911011219">
        <ele>1044.980000000000018</ele>
        <time>2015-02-22T13:19:33Z</time>
      </trkpt>
      <trkpt lat="47.517090467736125" lon="11.12804071046412">
        <ele>1042.930000000000064</ele>
        <time>2015-02-22T13:19:36Z</time>
      </trkpt>
      <trkpt lat="47.516955519095063" lon="11.127702333033085">
        <ele>1040.130000000000109</ele>
        <time>2015-02-22T13:19:41Z</time>
      </trkpt>
      <trkpt lat="47.516773464158177" lon="11.12729212269187">
        <ele>1037.539999999999964</ele>
        <time>2015-02-22T13:19:47Z</time>
      </trkpt>
      <trkpt lat="47.516693668439984" lon="11.12711719237268">
        <ele>1036.079999999999927</ele>
        <time>2015-02-22T13:19:50Z</time>
      </trkpt>
      <trkpt lat="47.516664247959852" lon="11.127077210694551">
        <ele>1036.410000000000082</ele>
        <time>2015-02-22T13:19:51Z</time>
      </trkpt>
      <trkpt lat="47.516634156927466" lon="11.127053825184703">
        <ele>1036.349999999999909</ele>
        <time>2015-02-22T13:19:52Z</time>
      </trkpt>
      <trkpt lat="47.516320087015629" lon="11.126880990341306">
        <ele>1036.019999999999982</ele>
        <time>2015-02-22T13:20:06Z</time>
      </trkpt>
      <trkpt lat="47.516284296289086" lon="11.126743443310261">
        <ele>1035.309999999999945</ele>
        <time>2015-02-22T13:20:09Z</time>
      </trkpt>
      <trkpt lat="47.516279853880405" lon="11.126602292060852">
        <ele>1033.660000000000082</ele>
        <time>2015-02-22T13:20:11Z</time>
      </trkpt>
      <trkpt lat="47.516278931871057" lon="11.126526854932308">
        <ele>1032.230000000000018</ele>
        <time>2015-02-22T13:20:12Z</time>
      </trkpt>
      <trkpt lat="47.516271723434329" lon="11.126450747251511">
        <ele>1032.160000000000082</ele>
        <time>2015-02-22T13:20:13Z</time>
      </trkpt>
      <trkpt lat="47.516258144751191" lon="11.126380423083901">
        <ele>1031.069999999999936</ele>
        <time>2015-02-22T13:20:14Z</time>
      </trkpt>
      <trkpt lat="47.516236854717135" lon="11.1263183131814">
        <ele>1030.6400000000001</ele>
        <time>2015-02-22T13:20:15Z</time>
      </trkpt>
      <trkpt lat="47.516213385388255" lon="11.126263411715627">
        <ele>1030.289999999999964</ele>
        <time>2015-02-22T13:20:16Z</time>
      </trkpt>
      <trkpt lat="47.515901578590274" lon="11.125646503642201">
        <ele>1029.099999999999909</ele>
        <time>2015-02-22T13:20:31Z</time>
      </trkpt>
      <trkpt lat="47.515783980488777" lon="11.125085335224867">
        <ele>1025.769999999999982</ele>
        <time>2015-02-22T13:20:44Z</time>
      </trkpt>
      <trkpt lat="47.515760427340865" lon="11.124991877004504">
        <ele>1025.049999999999955</ele>
        <time>2015-02-22T13:20:46Z</time>
      </trkpt>
      <trkpt lat="47.515572085976601" lon="11.124612847343087">
        <ele>1024.240000000000009</ele>
        <time>2015-02-22T13:20:57Z</time>
      </trkpt>
      <trkpt lat="47.515376955270767" lon="11.12429584376514">
        <ele>1020.610000000000014</ele>
        <time>2015-02-22T13:21:03Z</time>
      </trkpt>
      <trkpt lat="47.515332782641053" lon="11.124246641993523">
        <ele>1020.350000000000023</ele>
        <time>2015-02-22T13:21:04Z</time>
      </trkpt>
      <trkpt lat="47.515197666361928" lon="11.124098114669323">
        <ele>1018.779999999999973</ele>
        <time>2015-02-22T13:21:07Z</time>
      </trkpt>
      <trkpt lat="47.515149051323533" lon="11.124057797715068">
        <ele>1018.879999999999995</ele>
        <time>2015-02-22T13:21:08Z</time>
      </trkpt>
      <trkpt lat="47.515100687742233" lon="11.12402468919754">
        <ele>1017.769999999999982</ele>
        <time>2015-02-22T13:21:09Z</time>
      </trkpt>
      <trkpt lat="47.51505265943706" lon="11.123998202383518">
        <ele>1017.019999999999982</ele>
        <time>2015-02-22T13:21:10Z</time>
      </trkpt>
      <trkpt lat="47.514999937266111" lon="11.123972134664655">
        <ele>1016.669999999999959</ele>
        <time>2015-02-22T13:21:11Z</time>
      </trkpt>
      <trkpt lat="47.514753257855773" lon="11.123837688937783">
        <ele>1013.350000000000023</ele>
        <time>2015-02-22T13:21:15Z</time>
      </trkpt>
      <trkpt lat="47.514646556228399" lon="11.123756384477019">
        <ele>1012.759999999999991</ele>
        <time>2015-02-22T13:21:17Z</time>
      </trkpt>
      <trkpt lat="47.514606323093176" lon="11.123714055866003">
        <ele>1012.870000000000005</ele>
        <time>2015-02-22T13:21:18Z</time>
      </trkpt>
      <trkpt lat="47.51440616324544" lon="11.123279370367527">
        <ele>1009.690000000000055</ele>
        <time>2015-02-22T13:21:27Z</time>
      </trkpt>
      <trkpt lat="47.514361822977662" lon="11.12310167402029">
        <ele>1007.399999999999977</ele>
        <time>2015-02-22T13:21:29Z</time>
      </trkpt>
      <trkpt lat="47.514298455789685" lon="11.122928000986576">
        <ele>1005.539999999999964</ele>
        <time>2015-02-22T13:21:31Z</time>
      </trkpt>
      <trkpt lat="47.514217738062143" lon="11.122782239690423">
        <ele>1003.909999999999968</ele>
        <time>2015-02-22T13:21:33Z</time>
      </trkpt>
      <trkpt lat="47.514143055304885" lon="11.122663132846355">
        <ele>1001.039999999999964</ele>
        <time>2015-02-22T13:21:35Z</time>
      </trkpt>
      <trkpt lat="47.514111874625087" lon="11.122584342956543">
        <ele>1001.340000000000032</ele>
        <time>2015-02-22T13:21:36Z</time>
      </trkpt>
      <trkpt lat="47.514068707823753" lon="11.122514354065061">
        <ele>998.67999999999995</ele>
        <time>2015-02-22T13:21:37Z</time>
      </trkpt>
      <trkpt lat="47.514023780822754" lon="11.122440760955215">
        <ele>997.299999999999955</ele>
        <time>2015-02-22T13:21:38Z</time>
      </trkpt>
      <trkpt lat="47.51397617161274" lon="11.122375465929508">
        <ele>994.840000000000032</ele>
        <time>2015-02-22T13:21:39Z</time>
      </trkpt>
      <trkpt lat="47.513924539089203" lon="11.122325258329511">
        <ele>994.419999999999959</ele>
        <time>2015-02-22T13:21:40Z</time>
      </trkpt>
      <trkpt lat="47.513873409479856" lon="11.122269267216325">
        <ele>992.769999999999982</ele>
        <time>2015-02-22T13:21:41Z</time>
      </trkpt>
      <trkpt lat="47.513814652338624" lon="11.122214701026678">
        <ele>991.019999999999982</ele>
        <time>2015-02-22T13:21:42Z</time>
      </trkpt>
      <trkpt lat="47.513746088370681" lon="11.122177736833692">
        <ele>989.25</ele>
        <time>2015-02-22T13:21:43Z</time>
      </trkpt>
      <trkpt lat="47.513669729232788" lon="11.122157536447048">
        <ele>988.190000000000055</ele>
        <time>2015-02-22T13:21:44Z</time>
      </trkpt>
      <trkpt lat="47.513585826382041" lon="11.122133396565914">
        <ele>987.399999999999977</ele>
        <time>2015-02-22T13:21:45Z</time>
      </trkpt>
      <trkpt lat="47.513497397303581" lon="11.122098863124847">
        <ele>987.019999999999982</ele>
        <time>2015-02-22T13:21:46Z</time>
      </trkpt>
      <trkpt lat="47.51340888440609" lon="11.122055277228355">
        <ele>985.600000000000023</ele>
        <time>2015-02-22T13:21:47Z</time>
      </trkpt>
      <trkpt lat="47.513320036232471" lon="11.122009428218007">
        <ele>984.159999999999968</ele>
        <time>2015-02-22T13:21:48Z</time>
      </trkpt>
      <trkpt lat="47.513073440641165" lon="11.121880933642387">
        <ele>981.009999999999991</ele>
        <time>2015-02-22T13:21:51Z</time>
      </trkpt>
      <trkpt lat="47.51290999352932" lon="11.121803149580956">
        <ele>978.450000000000045</ele>
        <time>2015-02-22T13:21:53Z</time>
      </trkpt>
      <trkpt lat="47.512833969667554" lon="11.121766688302159">
        <ele>976.990000000000009</ele>
        <time>2015-02-22T13:21:54Z</time>
      </trkpt>
      <trkpt lat="47.512765824794769" lon="11.121720755472779">
        <ele>976.639999999999986</ele>
        <time>2015-02-22T13:21:55Z</time>
      </trkpt>
      <trkpt lat="47.512706900015473" lon="11.121670631691813">
        <ele>974.840000000000032</ele>
        <time>2015-02-22T13:21:56Z</time>
      </trkpt>
      <trkpt lat="47.51265836879611" lon="11.121617071330547">
        <ele>973.840000000000032</ele>
        <time>2015-02-22T13:21:57Z</time>
      </trkpt>
      <trkpt lat="47.512621907517314" lon="11.121577424928546">
        <ele>972.690000000000055</ele>
        <time>2015-02-22T13:21:58Z</time>
      </trkpt>
      <trkpt lat="47.512598354369402" lon="11.121559739112854">
        <ele>970.720000000000027</ele>
        <time>2015-02-22T13:21:59Z</time>
      </trkpt>
      <trkpt lat="47.512581003829837" lon="11.121543142944574">
        <ele>970.919999999999959</ele>
        <time>2015-02-22T13:22:00Z</time>
      </trkpt>
      <trkpt lat="47.512567341327667" lon="11.121528139337897">
        <ele>971.32000000000005</ele>
        <time>2015-02-22T13:22:01Z</time>
      </trkpt>
      <trkpt lat="47.512549236416817" lon="11.121507519856095">
        <ele>970.590000000000032</ele>
        <time>2015-02-22T13:22:03Z</time>
      </trkpt>
      <trkpt lat="47.512548565864563" lon="11.121489498764277">
        <ele>969.57000000000005</ele>
        <time>2015-02-22T13:22:04Z</time>
      </trkpt>
      <trkpt lat="47.512546051293612" lon="11.121463431045413">
        <ele>969.5</ele>
        <time>2015-02-22T13:22:05Z</time>
      </trkpt>
      <trkpt lat="47.512532137334347" lon="11.121433423832059">
        <ele>968.899999999999977</ele>
        <time>2015-02-22T13:22:06Z</time>
      </trkpt>
      <trkpt lat="47.5125069078058" lon="11.121402662247419">
        <ele>968.600000000000023</ele>
        <time>2015-02-22T13:22:07Z</time>
      </trkpt>
      <trkpt lat="47.51247220672667" lon="11.121373912319541">
        <ele>968.389999999999986</ele>
        <time>2015-02-22T13:22:08Z</time>
      </trkpt>
      <trkpt lat="47.512430800125003" lon="11.121345162391663">
        <ele>967.940000000000055</ele>
        <time>2015-02-22T13:22:09Z</time>
      </trkpt>
      <trkpt lat="47.512383358553052" lon="11.121316496282816">
        <ele>967.529999999999973</ele>
        <time>2015-02-22T13:22:10Z</time>
      </trkpt>
      <trkpt lat="47.512140702456236" lon="11.121152965351939">
        <ele>964.32000000000005</ele>
        <time>2015-02-22T13:22:14Z</time>
      </trkpt>
      <trkpt lat="47.511851442977786" lon="11.120965629816055">
        <ele>960.529999999999973</ele>
        <time>2015-02-22T13:22:18Z</time>
      </trkpt>
      <trkpt lat="47.511777933686972" lon="11.120941322296858">
        <ele>959.67999999999995</ele>
        <time>2015-02-22T13:22:19Z</time>
      </trkpt>
      <trkpt lat="47.511707525700331" lon="11.120917266234756">
        <ele>959.240000000000009</ele>
        <time>2015-02-22T13:22:20Z</time>
      </trkpt>
      <trkpt lat="47.51148029230535" lon="11.12079874612391">
        <ele>955.92999999999995</ele>
        <time>2015-02-22T13:22:24Z</time>
      </trkpt>
      <trkpt lat="47.511207545176148" lon="11.120568411424756">
        <ele>951.330000000000041</ele>
        <time>2015-02-22T13:22:29Z</time>
      </trkpt>
      <trkpt lat="47.511137137189507" lon="11.120515940710902">
        <ele>951.049999999999955</ele>
        <time>2015-02-22T13:22:30Z</time>
      </trkpt>
      <trkpt lat="47.510950891301036" lon="11.120373364537954">
        <ele>947.710000000000036</ele>
        <time>2015-02-22T13:22:33Z</time>
      </trkpt>
      <trkpt lat="47.510908311232924" lon="11.120338579639792">
        <ele>947.600000000000023</ele>
        <time>2015-02-22T13:22:34Z</time>
      </trkpt>
      <trkpt lat="47.510772692039609" lon="11.120236655697227">
        <ele>946.980000000000018</ele>
        <time>2015-02-22T13:22:43Z</time>
      </trkpt>
      <trkpt lat="47.510752324014902" lon="11.120240511372685">
        <ele>946.740000000000009</ele>
        <time>2015-02-22T13:22:45Z</time>
      </trkpt>
      <trkpt lat="47.510586278513074" lon="11.120168594643474">
        <ele>946.57000000000005</ele>
        <time>2015-02-22T13:22:57Z</time>
      </trkpt>
      <trkpt lat="47.51050011254847" lon="11.1201136931777">
        <ele>946.740000000000009</ele>
        <time>2015-02-22T13:23:11Z</time>
      </trkpt>
      <trkpt lat="47.510482929646969" lon="11.120110172778368">
        <ele>946.080000000000041</ele>
        <time>2015-02-22T13:23:12Z</time>
      </trkpt>
      <trkpt lat="47.510462142527103" lon="11.120112435892224">
        <ele>946.039999999999964</ele>
        <time>2015-02-22T13:23:13Z</time>
      </trkpt>
      <trkpt lat="47.510438673198223" lon="11.120123332366347">
        <ele>945.480000000000018</ele>
        <time>2015-02-22T13:23:14Z</time>
      </trkpt>
      <trkpt lat="47.510416796430945" lon="11.12014152109623">
        <ele>945.360000000000014</ele>
        <time>2015-02-22T13:23:15Z</time>
      </trkpt>
      <trkpt lat="47.510398607701063" lon="11.120156608521938">
        <ele>944.600000000000023</ele>
        <time>2015-02-22T13:23:16Z</time>
      </trkpt>
      <trkpt lat="47.510382095351815" lon="11.120157446712255">
        <ele>943.980000000000018</ele>
        <time>2015-02-22T13:23:17Z</time>
      </trkpt>
      <trkpt lat="47.510362565517426" lon="11.120146801695228">
        <ele>943.610000000000014</ele>
        <time>2015-02-22T13:23:18Z</time>
      </trkpt>
      <trkpt lat="47.510331636294723" lon="11.120136240497231">
        <ele>943.769999999999982</ele>
        <time>2015-02-22T13:23:19Z</time>
      </trkpt>
      <trkpt lat="47.510288134217262" lon="11.120120901614428">
        <ele>942.919999999999959</ele>
        <time>2015-02-22T13:23:20Z</time>
      </trkpt>
      <trkpt lat="47.510233735665679" lon="11.120097516104579">
        <ele>942.669999999999959</ele>
        <time>2015-02-22T13:23:21Z</time>
      </trkpt>
      <trkpt lat="47.510176068171859" lon="11.120078153908253">
        <ele>940.460000000000036</ele>
        <time>2015-02-22T13:23:22Z</time>
      </trkpt>
      <trkpt lat="47.510119155049324" lon="11.120059546083212">
        <ele>939.75</ele>
        <time>2015-02-22T13:23:23Z</time>
      </trkpt>
      <trkpt lat="47.509992169216275" lon="11.120012691244483">
        <ele>937.649999999999977</ele>
        <time>2015-02-22T13:23:25Z</time>
      </trkpt>
      <trkpt lat="47.509840540587902" lon="11.119969272986054">
        <ele>934.360000000000014</ele>
        <time>2015-02-22T13:23:27Z</time>
      </trkpt>
      <trkpt lat="47.509593106806278" lon="11.119887549430132">
        <ele>930.879999999999995</ele>
        <time>2015-02-22T13:23:30Z</time>
      </trkpt>
      <trkpt lat="47.509422451257706" lon="11.119840024039149">
        <ele>927.600000000000023</ele>
        <time>2015-02-22T13:23:32Z</time>
      </trkpt>
      <trkpt lat="47.509359251707792" lon="11.119834994897246">
        <ele>926.090000000000032</ele>
        <time>2015-02-22T13:23:33Z</time>
      </trkpt>
      <trkpt lat="47.509304853156209" lon="11.119806077331305">
        <ele>924.42999999999995</ele>
        <time>2015-02-22T13:23:34Z</time>
      </trkpt>
      <trkpt lat="47.509108716621995" lon="11.119673056527972">
        <ele>921.299999999999955</ele>
        <time>2015-02-22T13:23:37Z</time>
      </trkpt>
      <trkpt lat="47.508902940899134" lon="11.119500640779734">
        <ele>917.669999999999959</ele>
        <time>2015-02-22T13:23:40Z</time>
      </trkpt>
      <trkpt lat="47.508833538740873" lon="11.119460072368383">
        <ele>916.779999999999973</ele>
        <time>2015-02-22T13:23:41Z</time>
      </trkpt>
      <trkpt lat="47.508776038885117" lon="11.119428807869554">
        <ele>915.379999999999995</ele>
        <time>2015-02-22T13:23:42Z</time>
      </trkpt>
      <trkpt lat="47.508751731365919" lon="11.119404919445515">
        <ele>915.419999999999959</ele>
        <time>2015-02-22T13:23:43Z</time>
      </trkpt>
      <trkpt lat="47.508751312270761" lon="11.119401063770056">
        <ele>914.120000000000005</ele>
        <time>2015-02-22T13:23:45Z</time>
      </trkpt>
      <trkpt lat="47.508749887347221" lon="11.119382539764047">
        <ele>914.230000000000018</ele>
        <time>2015-02-22T13:23:51Z</time>
      </trkpt>
      <trkpt lat="47.508741840720177" lon="11.119359489530325">
        <ele>913.990000000000009</ele>
        <time>2015-02-22T13:23:52Z</time>
      </trkpt>
      <trkpt lat="47.508719712495804" lon="11.119338283315301">
        <ele>913.509999999999991</ele>
        <time>2015-02-22T13:23:53Z</time>
      </trkpt>
      <trkpt lat="47.508686603978276" lon="11.119311964139342">
        <ele>913.279999999999973</ele>
        <time>2015-02-22T13:23:54Z</time>
      </trkpt>
      <trkpt lat="47.508643520995975" lon="11.119273491203785">
        <ele>912.490000000000009</ele>
        <time>2015-02-22T13:23:55Z</time>
      </trkpt>
      <trkpt lat="47.508589960634708" lon="11.119236527010798">
        <ele>911.169999999999959</ele>
        <time>2015-02-22T13:23:56Z</time>
      </trkpt>
      <trkpt lat="47.508538076654077" lon="11.119196210056543">
        <ele>911.080000000000041</ele>
        <time>2015-02-22T13:23:57Z</time>
      </trkpt>
      <trkpt lat="47.50842148438096" lon="11.119062015786767">
        <ele>908.850000000000023</ele>
        <time>2015-02-22T13:24:00Z</time>
      </trkpt>
      <trkpt lat="47.508384436368942" lon="11.119026811793447">
        <ele>906.519999999999982</ele>
        <time>2015-02-22T13:24:01Z</time>
      </trkpt>
      <trkpt lat="47.50834085047245" lon="11.118997978046536">
        <ele>907.049999999999955</ele>
        <time>2015-02-22T13:24:02Z</time>
      </trkpt>
      <trkpt lat="47.508237417787313" lon="11.118926396593451">
        <ele>903.289999999999964</ele>
        <time>2015-02-22T13:24:05Z</time>
      </trkpt>
      <trkpt lat="47.508207326754928" lon="11.118914410471916">
        <ele>903.090000000000032</ele>
        <time>2015-02-22T13:24:11Z</time>
      </trkpt>
      <trkpt lat="47.508020242676139" lon="11.118790945038199">
        <ele>899.509999999999991</ele>
        <time>2015-02-22T13:24:18Z</time>
      </trkpt>
      <trkpt lat="47.50798805616796" lon="11.118710562586784">
        <ele>897.549999999999955</ele>
        <time>2015-02-22T13:24:21Z</time>
      </trkpt>
      <trkpt lat="47.508003562688828" lon="11.118625486269593">
        <ele>895.669999999999959</ele>
        <time>2015-02-22T13:24:24Z</time>
      </trkpt>
      <trkpt lat="47.508039940148592" lon="11.118558682501316">
        <ele>893.389999999999986</ele>
        <time>2015-02-22T13:24:26Z</time>
      </trkpt>
      <trkpt lat="47.508030300959945" lon="11.1183419264853">
        <ele>883.67999999999995</ele>
        <time>2015-02-22T13:24:31Z</time>
      </trkpt>
      <trkpt lat="47.508014375343919" lon="11.118281744420528">
        <ele>882.350000000000023</ele>
        <time>2015-02-22T13:24:32Z</time>
      </trkpt>
      <trkpt lat="47.507989061996341" lon="11.118224076926708">
        <ele>879.740000000000009</ele>
        <time>2015-02-22T13:24:33Z</time>
      </trkpt>
      <trkpt lat="47.507956456393003" lon="11.11818459816277">
        <ele>879.830000000000041</ele>
        <time>2015-02-22T13:24:34Z</time>
      </trkpt>
      <trkpt lat="47.507933657616377" lon="11.118147382512689">
        <ele>877.590000000000032</ele>
        <time>2015-02-22T13:24:35Z</time>
      </trkpt>
      <trkpt lat="47.507930556312203" lon="11.118096085265279">
        <ele>877.049999999999955</ele>
        <time>2015-02-22T13:24:36Z</time>
      </trkpt>
      <trkpt lat="47.507926281541586" lon="11.11802970059216">
        <ele>874.879999999999995</ele>
        <time>2015-02-22T13:24:37Z</time>
      </trkpt>
      <trkpt lat="47.507900381460786" lon="11.117978654801846">
        <ele>873.899999999999977</ele>
        <time>2015-02-22T13:24:38Z</time>
      </trkpt>
      <trkpt lat="47.507869033142924" lon="11.117959376424551">
        <ele>873.120000000000005</ele>
        <time>2015-02-22T13:24:39Z</time>
      </trkpt>
      <trkpt lat="47.507858136668801" lon="11.117954263463616">
        <ele>872.370000000000005</ele>
        <time>2015-02-22T13:24:41Z</time>
      </trkpt>
      <trkpt lat="47.507849587127566" lon="11.117966333404183">
        <ele>873.120000000000005</ele>
        <time>2015-02-22T13:24:56Z</time>
      </trkpt>
      <trkpt lat="47.507823603227735" lon="11.117942612618208">
        <ele>872.379999999999995</ele>
        <time>2015-02-22T13:25:17Z</time>
      </trkpt>
      <trkpt lat="47.507809102535248" lon="11.117921071127057">
        <ele>872.830000000000041</ele>
        <time>2015-02-22T13:25:18Z</time>
      </trkpt>
      <trkpt lat="47.50779015943408" lon="11.11788016743958">
        <ele>871.769999999999982</ele>
        <time>2015-02-22T13:25:19Z</time>
      </trkpt>
      <trkpt lat="47.507761744782329" lon="11.11782300285995">
        <ele>870.450000000000045</ele>
        <time>2015-02-22T13:25:20Z</time>
      </trkpt>
      <trkpt lat="47.507728887721896" lon="11.117778327316046">
        <ele>869.590000000000032</ele>
        <time>2015-02-22T13:25:21Z</time>
      </trkpt>
      <trkpt lat="47.507691085338593" lon="11.117738848552108">
        <ele>868.950000000000045</ele>
        <time>2015-02-22T13:25:22Z</time>
      </trkpt>
      <trkpt lat="47.507654204964638" lon="11.117686461657286">
        <ele>868.25</ele>
        <time>2015-02-22T13:25:23Z</time>
      </trkpt>
      <trkpt lat="47.507615648210049" lon="11.117630889639258">
        <ele>865.110000000000014</ele>
        <time>2015-02-22T13:25:24Z</time>
      </trkpt>
      <trkpt lat="47.50756929628551" lon="11.117578586563468">
        <ele>865.07000000000005</ele>
        <time>2015-02-22T13:25:25Z</time>
      </trkpt>
      <trkpt lat="47.507516657933593" lon="11.117529720067978">
        <ele>863.879999999999995</ele>
        <time>2015-02-22T13:25:26Z</time>
      </trkpt>
      <trkpt lat="47.507458990439773" lon="11.117486050352454">
        <ele>862.809999999999945</ele>
        <time>2015-02-22T13:25:27Z</time>
      </trkpt>
      <trkpt lat="47.507181046530604" lon="11.117253871634603">
        <ele>859.25</ele>
        <time>2015-02-22T13:25:32Z</time>
      </trkpt>
      <trkpt lat="47.507080798968673" lon="11.117155216634274">
        <ele>858.57000000000005</ele>
        <time>2015-02-22T13:25:34Z</time>
      </trkpt>
      <trkpt lat="47.506893631070852" lon="11.116814156994224">
        <ele>856.889999999999986</ele>
        <time>2015-02-22T13:25:43Z</time>
      </trkpt>
      <trkpt lat="47.506780978292227" lon="11.116648949682713">
        <ele>854.299999999999955</ele>
        <time>2015-02-22T13:25:47Z</time>
      </trkpt>
      <trkpt lat="47.506738649681211" lon="11.116581475362182">
        <ele>852.82000000000005</ele>
        <time>2015-02-22T13:25:48Z</time>
      </trkpt>
      <trkpt lat="47.506705541163683" lon="11.116495225578547">
        <ele>851.220000000000027</ele>
        <time>2015-02-22T13:25:49Z</time>
      </trkpt>
      <trkpt lat="47.506649550050497" lon="11.116323480382562">
        <ele>850.129999999999995</ele>
        <time>2015-02-22T13:25:51Z</time>
      </trkpt>
      <trkpt lat="47.506620213389397" lon="11.11624519340694">
        <ele>849.220000000000027</ele>
        <time>2015-02-22T13:25:52Z</time>
      </trkpt>
      <trkpt lat="47.506564389914274" lon="11.116109238937497">
        <ele>848.460000000000036</ele>
        <time>2015-02-22T13:25:54Z</time>
      </trkpt>
      <trkpt lat="47.50654268078506" lon="11.116048051044345">
        <ele>847.299999999999955</ele>
        <time>2015-02-22T13:25:55Z</time>
      </trkpt>
      <trkpt lat="47.506517535075545" lon="11.116000358015299">
        <ele>846.370000000000005</ele>
        <time>2015-02-22T13:25:56Z</time>
      </trkpt>
      <trkpt lat="47.506494149565697" lon="11.115948976948857">
        <ele>846.289999999999964</ele>
        <time>2015-02-22T13:25:57Z</time>
      </trkpt>
      <trkpt lat="47.506464477628469" lon="11.115895165130496">
        <ele>844.850000000000023</ele>
        <time>2015-02-22T13:25:58Z</time>
      </trkpt>
      <trkpt lat="47.506425585597754" lon="11.11585333943367">
        <ele>844.379999999999995</ele>
        <time>2015-02-22T13:25:59Z</time>
      </trkpt>
      <trkpt lat="47.506386106833816" lon="11.115808160975575">
        <ele>843</ele>
        <time>2015-02-22T13:26:00Z</time>
      </trkpt>
      <trkpt lat="47.50634528696537" lon="11.115746553987265">
        <ele>842.799999999999955</ele>
        <time>2015-02-22T13:26:01Z</time>
      </trkpt>
      <trkpt lat="47.506298515945673" lon="11.115686455741525">
        <ele>841.539999999999964</ele>
        <time>2015-02-22T13:26:02Z</time>
      </trkpt>
      <trkpt lat="47.506248978897929" lon="11.1156359128654">
        <ele>839.129999999999995</ele>
        <time>2015-02-22T13:26:03Z</time>
      </trkpt>
      <trkpt lat="47.506199441850185" lon="11.115596769377589">
        <ele>839.899999999999977</ele>
        <time>2015-02-22T13:26:04Z</time>
      </trkpt>
      <trkpt lat="47.506154095754027" lon="11.115568103268743">
        <ele>838.67999999999995</ele>
        <time>2015-02-22T13:26:05Z</time>
      </trkpt>
      <trkpt lat="47.505941111594439" lon="11.115447487682104">
        <ele>838.190000000000055</ele>
        <time>2015-02-22T13:26:10Z</time>
      </trkpt>
      <trkpt lat="47.50564212910831" lon="11.115318406373262">
        <ele>834.960000000000036</ele>
        <time>2015-02-22T13:26:16Z</time>
      </trkpt>
      <trkpt lat="47.505231667309999" lon="11.115143643692136">
        <ele>834.990000000000009</ele>
        <time>2015-02-22T13:26:29Z</time>
      </trkpt>
      <trkpt lat="47.50479388050735" lon="11.114728655666113">
        <ele>832.639999999999986</ele>
        <time>2015-02-22T13:26:47Z</time>
      </trkpt>
      <trkpt lat="47.504483330994844" lon="11.114482898265123">
        <ele>831.100000000000023</ele>
        <time>2015-02-22T13:26:59Z</time>
      </trkpt>
      <trkpt lat="47.504438990727067" lon="11.1144651286304">
        <ele>830.580000000000041</ele>
        <time>2015-02-22T13:27:00Z</time>
      </trkpt>
      <trkpt lat="47.504395823925734" lon="11.114434199407697">
        <ele>829.840000000000032</ele>
        <time>2015-02-22T13:27:01Z</time>
      </trkpt>
      <trkpt lat="47.504350896924734" lon="11.114404778927565">
        <ele>828.059999999999945</ele>
        <time>2015-02-22T13:27:02Z</time>
      </trkpt>
      <trkpt lat="47.504305047914386" lon="11.114372340962291">
        <ele>827.379999999999995</ele>
        <time>2015-02-22T13:27:03Z</time>
      </trkpt>
      <trkpt lat="47.504258947446942" lon="11.114328671246767">
        <ele>826.82000000000005</ele>
        <time>2015-02-22T13:27:04Z</time>
      </trkpt>
      <trkpt lat="47.50421435572207" lon="11.114273266866803">
        <ele>826.139999999999986</ele>
        <time>2015-02-22T13:27:05Z</time>
      </trkpt>
      <trkpt lat="47.504170853644609" lon="11.114216102287173">
        <ele>825.460000000000036</ele>
        <time>2015-02-22T13:27:06Z</time>
      </trkpt>
      <trkpt lat="47.504123998805881" lon="11.114165475592017">
        <ele>825.730000000000018</ele>
        <time>2015-02-22T13:27:07Z</time>
      </trkpt>
      <trkpt lat="47.504078233614564" lon="11.114112585783005">
        <ele>825.57000000000005</ele>
        <time>2015-02-22T13:27:08Z</time>
      </trkpt>
      <trkpt lat="47.504029534757137" lon="11.114068329334259">
        <ele>824.289999999999964</ele>
        <time>2015-02-22T13:27:09Z</time>
      </trkpt>
      <trkpt lat="47.503978321328759" lon="11.114022480323911">
        <ele>822.799999999999955</ele>
        <time>2015-02-22T13:27:10Z</time>
      </trkpt>
      <trkpt lat="47.503922916948795" lon="11.113968584686518">
        <ele>822.519999999999982</ele>
        <time>2015-02-22T13:27:11Z</time>
      </trkpt>
      <trkpt lat="47.503863992169499" lon="11.113912174478173">
        <ele>820.759999999999991</ele>
        <time>2015-02-22T13:27:12Z</time>
      </trkpt>
      <trkpt lat="47.503809006884694" lon="11.113839335739613">
        <ele>820.769999999999982</ele>
        <time>2015-02-22T13:27:13Z</time>
      </trkpt>
      <trkpt lat="47.503755781799555" lon="11.113759875297546">
        <ele>819.039999999999964</ele>
        <time>2015-02-22T13:27:14Z</time>
      </trkpt>
      <trkpt lat="47.503709178417921" lon="11.113680331036448">
        <ele>817.600000000000023</ele>
        <time>2015-02-22T13:27:15Z</time>
      </trkpt>
      <trkpt lat="47.503672633320093" lon="11.113598942756653">
        <ele>817.190000000000055</ele>
        <time>2015-02-22T13:27:16Z</time>
      </trkpt>
      <trkpt lat="47.503607254475355" lon="11.113445637747645">
        <ele>815.539999999999964</ele>
        <time>2015-02-22T13:27:18Z</time>
      </trkpt>
      <trkpt lat="47.503573140129447" lon="11.113376067951322">
        <ele>814.259999999999991</ele>
        <time>2015-02-22T13:27:19Z</time>
      </trkpt>
      <trkpt lat="47.503536930307746" lon="11.113311862573028">
        <ele>813.639999999999986</ele>
        <time>2015-02-22T13:27:20Z</time>
      </trkpt>
      <trkpt lat="47.503500888124108" lon="11.113246148452163">
        <ele>813.210000000000036</ele>
        <time>2015-02-22T13:27:21Z</time>
      </trkpt>
      <trkpt lat="47.503461744636297" lon="11.113188983872533">
        <ele>812.210000000000036</ele>
        <time>2015-02-22T13:27:22Z</time>
      </trkpt>
      <trkpt lat="47.50342084094882" lon="11.113135339692235">
        <ele>811.370000000000005</ele>
        <time>2015-02-22T13:27:23Z</time>
      </trkpt>
      <trkpt lat="47.503382787108421" lon="11.113079097121954">
        <ele>811.129999999999995</ele>
        <time>2015-02-22T13:27:24Z</time>
      </trkpt>
      <trkpt lat="47.503351774066687" lon="11.113016651943326">
        <ele>810.840000000000032</ele>
        <time>2015-02-22T13:27:25Z</time>
      </trkpt>
      <trkpt lat="47.503291675820947" lon="11.112882206216455">
        <ele>810.409999999999968</ele>
        <time>2015-02-22T13:27:27Z</time>
      </trkpt>
      <trkpt lat="47.503240294754505" lon="11.112753124907613">
        <ele>809.480000000000018</ele>
        <time>2015-02-22T13:27:29Z</time>
      </trkpt>
      <trkpt lat="47.503242390230298" lon="11.112693529576063">
        <ele>809.659999999999968</ele>
        <time>2015-02-22T13:27:30Z</time>
      </trkpt>
      <trkpt lat="47.503244485706091" lon="11.112648937851191">
        <ele>808.67999999999995</ele>
        <time>2015-02-22T13:27:31Z</time>
      </trkpt>
      <trkpt lat="47.503234427422285" lon="11.112628569826484">
        <ele>808.289999999999964</ele>
        <time>2015-02-22T13:27:32Z</time>
      </trkpt>
      <trkpt lat="47.503223028033972" lon="11.112622702494264">
        <ele>808.480000000000018</ele>
        <time>2015-02-22T13:27:33Z</time>
      </trkpt>
      <trkpt lat="47.50322487205267" lon="11.112608872354031">
        <ele>808.370000000000005</ele>
        <time>2015-02-22T13:27:47Z</time>
      </trkpt>
      <trkpt lat="47.503232583403587" lon="11.112584648653865">
        <ele>808.75</ele>
        <time>2015-02-22T13:27:57Z</time>
      </trkpt>
      <trkpt lat="47.503250101581216" lon="11.112547935917974">
        <ele>808.950000000000045</ele>
        <time>2015-02-22T13:27:59Z</time>
      </trkpt>
      <trkpt lat="47.5032664462924" lon="11.112454226240516">
        <ele>808.07000000000005</ele>
        <time>2015-02-22T13:28:01Z</time>
      </trkpt>
      <trkpt lat="47.503285808488727" lon="11.112307626754045">
        <ele>804.690000000000055</ele>
        <time>2015-02-22T13:28:03Z</time>
      </trkpt>
      <trkpt lat="47.5033113732934" lon="11.112052984535694">
        <ele>799.950000000000045</ele>
        <time>2015-02-22T13:28:06Z</time>
      </trkpt>
      <trkpt lat="47.50332310795784" lon="11.111951563507318">
        <ele>800.07000000000005</ele>
        <time>2015-02-22T13:28:07Z</time>
      </trkpt>
      <trkpt lat="47.503333920612931" lon="11.111843436956406">
        <ele>796.990000000000009</ele>
        <time>2015-02-22T13:28:08Z</time>
      </trkpt>
      <trkpt lat="47.503360910341144" lon="11.111637577414513">
        <ele>793.990000000000009</ele>
        <time>2015-02-22T13:28:10Z</time>
      </trkpt>
      <trkpt lat="47.503358647227287" lon="11.111349910497665">
        <ele>787.639999999999986</ele>
        <time>2015-02-22T13:28:13Z</time>
      </trkpt>
      <trkpt lat="47.503345152363181" lon="11.11114539206028">
        <ele>783.940000000000055</ele>
        <time>2015-02-22T13:28:15Z</time>
      </trkpt>
      <trkpt lat="47.503343978896737" lon="11.111038019880652">
        <ele>782.470000000000027</ele>
        <time>2015-02-22T13:28:16Z</time>
      </trkpt>
      <trkpt lat="47.503355210646987" lon="11.110810451209545">
        <ele>779.269999999999982</ele>
        <time>2015-02-22T13:28:18Z</time>
      </trkpt>
      <trkpt lat="47.503376081585884" lon="11.110346261411905">
        <ele>775.120000000000005</ele>
        <time>2015-02-22T13:28:23Z</time>
      </trkpt>
      <trkpt lat="47.50339200720191" lon="11.110290018841624">
        <ele>775.230000000000018</ele>
        <time>2015-02-22T13:28:24Z</time>
      </trkpt>
      <trkpt lat="47.50340910628438" lon="11.110244169831276">
        <ele>774.960000000000036</ele>
        <time>2015-02-22T13:28:25Z</time>
      </trkpt>
      <trkpt lat="47.503600213676691" lon="11.11003378406167">
        <ele>773.559999999999945</ele>
        <time>2015-02-22T13:28:34Z</time>
      </trkpt>
      <trkpt lat="47.503628125414252" lon="11.110034119337797">
        <ele>773.919999999999959</ele>
        <time>2015-02-22T13:28:35Z</time>
      </trkpt>
      <trkpt lat="47.50366073101759" lon="11.110024228692055">
        <ele>773.210000000000036</ele>
        <time>2015-02-22T13:28:36Z</time>
      </trkpt>
      <trkpt lat="47.503696270287037" lon="11.11000738106668">
        <ele>773.100000000000023</ele>
        <time>2015-02-22T13:28:37Z</time>
      </trkpt>
      <trkpt lat="47.503736838698387" lon="11.109987013041973">
        <ele>772.840000000000032</ele>
        <time>2015-02-22T13:28:38Z</time>
      </trkpt>
      <trkpt lat="47.503786291927099" lon="11.109971590340137">
        <ele>772.799999999999955</ele>
        <time>2015-02-22T13:28:39Z</time>
      </trkpt>
      <trkpt lat="47.503844881430268" lon="11.109965471550822">
        <ele>771.669999999999959</ele>
        <time>2015-02-22T13:28:40Z</time>
      </trkpt>
      <trkpt lat="47.50390749424696" lon="11.109958346933126">
        <ele>770.539999999999964</ele>
        <time>2015-02-22T13:28:41Z</time>
      </trkpt>
      <trkpt lat="47.503974549472332" lon="11.109947199001908">
        <ele>769.92999999999995</ele>
        <time>2015-02-22T13:28:42Z</time>
      </trkpt>
      <trkpt lat="47.504253750666976" lon="11.109918784350157">
        <ele>766.17999999999995</ele>
        <time>2015-02-22T13:28:46Z</time>
      </trkpt>
      <trkpt lat="47.504481403157115" lon="11.109880981966853">
        <ele>762.909999999999968</ele>
        <time>2015-02-22T13:28:50Z</time>
      </trkpt>
      <trkpt lat="47.504752725362778" lon="11.10982172191143">
        <ele>759.330000000000041</ele>
        <time>2015-02-22T13:28:55Z</time>
      </trkpt>
      <trkpt lat="47.505016252398491" lon="11.109782494604588">
        <ele>755.879999999999995</ele>
        <time>2015-02-22T13:28:59Z</time>
      </trkpt>
      <trkpt lat="47.505165869370103" lon="11.109753493219614">
        <ele>753.379999999999995</ele>
        <time>2015-02-22T13:29:01Z</time>
      </trkpt>
      <trkpt lat="47.505236025899649" lon="11.109736561775208">
        <ele>751.92999999999995</ele>
        <time>2015-02-22T13:29:02Z</time>
      </trkpt>
      <trkpt lat="47.505301656201482" lon="11.109720636159182">
        <ele>751.740000000000009</ele>
        <time>2015-02-22T13:29:03Z</time>
      </trkpt>
      <trkpt lat="47.505488572642207" lon="11.109667075797915">
        <ele>748.549999999999955</ele>
        <time>2015-02-22T13:29:06Z</time>
      </trkpt>
      <trkpt lat="47.50554489903152" lon="11.109653664752841">
        <ele>748.009999999999991</ele>
        <time>2015-02-22T13:29:07Z</time>
      </trkpt>
      <trkpt lat="47.505815466865897" lon="11.109621729701757">
        <ele>744.259999999999991</ele>
        <time>2015-02-22T13:29:12Z</time>
      </trkpt>
      <trkpt lat="47.505873301997781" lon="11.109625669196248">
        <ele>743.909999999999968</ele>
        <time>2015-02-22T13:29:13Z</time>
      </trkpt>
      <trkpt lat="47.505929879844189" lon="11.109619801864028">
        <ele>742.559999999999945</ele>
        <time>2015-02-22T13:29:14Z</time>
      </trkpt>
      <trkpt lat="47.505986709147692" lon="11.109615359455347">
        <ele>742.539999999999964</ele>
        <time>2015-02-22T13:29:15Z</time>
      </trkpt>
      <trkpt lat="47.506043035537004" lon="11.109609827399254">
        <ele>741.529999999999973</ele>
        <time>2015-02-22T13:29:16Z</time>
      </trkpt>
      <trkpt lat="47.506098607555032" lon="11.109606390818954">
        <ele>739.840000000000032</ele>
        <time>2015-02-22T13:29:17Z</time>
      </trkpt>
      <trkpt lat="47.506153006106615" lon="11.10961502417922">
        <ele>740.07000000000005</ele>
        <time>2015-02-22T13:29:18Z</time>
      </trkpt>
      <trkpt lat="47.506204806268215" lon="11.109618209302425">
        <ele>738.730000000000018</ele>
        <time>2015-02-22T13:29:19Z</time>
      </trkpt>
      <trkpt lat="47.506260378286242" lon="11.109611671417952">
        <ele>738.07000000000005</ele>
        <time>2015-02-22T13:29:20Z</time>
      </trkpt>
      <trkpt lat="47.506317291408777" lon="11.109612677246332">
        <ele>737.57000000000005</ele>
        <time>2015-02-22T13:29:21Z</time>
      </trkpt>
      <trkpt lat="47.506363140419126" lon="11.109631955623627">
        <ele>736.450000000000045</ele>
        <time>2015-02-22T13:29:22Z</time>
      </trkpt>
      <trkpt lat="47.506397590041161" lon="11.109664561226964">
        <ele>736.009999999999991</ele>
        <time>2015-02-22T13:29:23Z</time>
      </trkpt>
      <trkpt lat="47.506426675245166" lon="11.109685683622956">
        <ele>735.289999999999964</ele>
        <time>2015-02-22T13:29:24Z</time>
      </trkpt>
      <trkpt lat="47.506447546184063" lon="11.109688114374876">
        <ele>734.309999999999945</ele>
        <time>2015-02-22T13:29:25Z</time>
      </trkpt>
      <trkpt lat="47.506469003856182" lon="11.109683504328132">
        <ele>733.120000000000005</ele>
        <time>2015-02-22T13:29:26Z</time>
      </trkpt>
      <trkpt lat="47.506494903936982" lon="11.109684174880385">
        <ele>733.289999999999964</ele>
        <time>2015-02-22T13:29:27Z</time>
      </trkpt>
      <trkpt lat="47.50651678070426" lon="11.109681660309434">
        <ele>733.039999999999964</ele>
        <time>2015-02-22T13:29:28Z</time>
      </trkpt>
      <trkpt lat="47.506528683006763" lon="11.10967118293047">
        <ele>733.330000000000041</ele>
        <time>2015-02-22T13:29:29Z</time>
      </trkpt>
      <trkpt lat="47.506538322195411" lon="11.109660705551505">
        <ele>733.490000000000009</ele>
        <time>2015-02-22T13:29:30Z</time>
      </trkpt>
      <trkpt lat="47.506550727412105" lon="11.109654754400253">
        <ele>733.480000000000018</ele>
        <time>2015-02-22T13:29:31Z</time>
      </trkpt>
      <trkpt lat="47.506568497046828" lon="11.109650395810604">
        <ele>733.139999999999986</ele>
        <time>2015-02-22T13:29:32Z</time>
      </trkpt>
      <trkpt lat="47.506866892799735" lon="11.109501784667373">
        <ele>730.909999999999968</ele>
        <time>2015-02-22T13:29:42Z</time>
      </trkpt>
      <trkpt lat="47.506925733759999" lon="11.109427772462368">
        <ele>729.75</ele>
        <time>2015-02-22T13:29:44Z</time>
      </trkpt>
      <trkpt lat="47.506947442889214" lon="11.109385695308447">
        <ele>728.940000000000055</ele>
        <time>2015-02-22T13:29:45Z</time>
      </trkpt>
      <trkpt lat="47.506972253322601" lon="11.109354346990585">
        <ele>730.100000000000023</ele>
        <time>2015-02-22T13:29:46Z</time>
      </trkpt>
      <trkpt lat="47.506990106776357" lon="11.109324507415295">
        <ele>728.370000000000005</ele>
        <time>2015-02-22T13:29:47Z</time>
      </trkpt>
      <trkpt lat="47.506996812298894" lon="11.109292153269053">
        <ele>727.669999999999959</ele>
        <time>2015-02-22T13:29:48Z</time>
      </trkpt>
      <trkpt lat="47.507000584155321" lon="11.109266337007284">
        <ele>727.720000000000027</ele>
        <time>2015-02-22T13:29:49Z</time>
      </trkpt>
      <trkpt lat="47.50699907541275" lon="11.109246471896768">
        <ele>726.899999999999977</ele>
        <time>2015-02-22T13:29:50Z</time>
      </trkpt>
      <trkpt lat="47.50699614174664" lon="11.109225936233997">
        <ele>727.580000000000041</ele>
        <time>2015-02-22T13:29:51Z</time>
      </trkpt>
      <trkpt lat="47.506995052099228" lon="11.109198527410626">
        <ele>726.710000000000036</ele>
        <time>2015-02-22T13:29:52Z</time>
      </trkpt>
      <trkpt lat="47.506993878632784" lon="11.109167514368892">
        <ele>725.629999999999995</ele>
        <time>2015-02-22T13:29:53Z</time>
      </trkpt>
      <trkpt lat="47.506992621347308" lon="11.109143206849694">
        <ele>725.75</ele>
        <time>2015-02-22T13:29:54Z</time>
      </trkpt>
      <trkpt lat="47.506989855319262" lon="11.109121665358543">
        <ele>724.860000000000014</ele>
        <time>2015-02-22T13:29:55Z</time>
      </trkpt>
      <trkpt lat="47.506988011300564" lon="11.109101632609963">
        <ele>725.25</ele>
        <time>2015-02-22T13:29:56Z</time>
      </trkpt>
      <trkpt lat="47.506944509223104" lon="11.109049916267395">
        <ele>724.82000000000005</ele>
        <time>2015-02-22T13:30:09Z</time>
      </trkpt>
      <trkpt lat="47.506911316886544" lon="11.109022339805961">
        <ele>723.879999999999995</ele>
        <time>2015-02-22T13:30:24Z</time>
      </trkpt>
      <trkpt lat="47.506900923326612" lon="11.108989315107465">
        <ele>723.899999999999977</ele>
        <time>2015-02-22T13:30:25Z</time>
      </trkpt>
      <trkpt lat="47.506888434290886" lon="11.108947824686766">
        <ele>723.379999999999995</ele>
        <time>2015-02-22T13:30:26Z</time>
      </trkpt>
      <trkpt lat="47.506871502846479" lon="11.108902478590608">
        <ele>723.330000000000041</ele>
        <time>2015-02-22T13:30:27Z</time>
      </trkpt>
      <trkpt lat="47.506847782060504" lon="11.108863586559892">
        <ele>722.509999999999991</ele>
        <time>2015-02-22T13:30:28Z</time>
      </trkpt>
      <trkpt lat="47.50681827776134" lon="11.108832573518157">
        <ele>722</ele>
        <time>2015-02-22T13:30:29Z</time>
      </trkpt>
      <trkpt lat="47.506787264719605" lon="11.1088009737432">
        <ele>722.090000000000032</ele>
        <time>2015-02-22T13:30:30Z</time>
      </trkpt>
      <trkpt lat="47.506757425144315" lon="11.108758812770247">
        <ele>721.159999999999968</ele>
        <time>2015-02-22T13:30:31Z</time>
      </trkpt>
      <trkpt lat="47.506726998835802" lon="11.108709778636694">
        <ele>721.17999999999995</ele>
        <time>2015-02-22T13:30:32Z</time>
      </trkpt>
      <trkpt lat="47.506653992459178" lon="11.108610955998302">
        <ele>719.870000000000005</ele>
        <time>2015-02-22T13:30:34Z</time>
      </trkpt>
      <trkpt lat="47.506513930857182" lon="11.108410460874438">
        <ele>718.17999999999995</ele>
        <time>2015-02-22T13:30:38Z</time>
      </trkpt>
      <trkpt lat="47.506483001634479" lon="11.108355140313506">
        <ele>717.519999999999982</ele>
        <time>2015-02-22T13:30:39Z</time>
      </trkpt>
      <trkpt lat="47.506416281685233" lon="11.10824441537261">
        <ele>716.870000000000005</ele>
        <time>2015-02-22T13:30:41Z</time>
      </trkpt>
      <trkpt lat="47.506379652768373" lon="11.108190435916185">
        <ele>716.509999999999991</ele>
        <time>2015-02-22T13:30:42Z</time>
      </trkpt>
      <trkpt lat="47.506196675822139" lon="11.107950378209352">
        <ele>713.419999999999959</ele>
        <time>2015-02-22T13:30:47Z</time>
      </trkpt>
      <trkpt lat="47.506175888702273" lon="11.107935290783644">
        <ele>713.419999999999959</ele>
        <time>2015-02-22T13:30:48Z</time>
      </trkpt>
      <trkpt lat="47.506170189008117" lon="11.107930261641741">
        <ele>713.220000000000027</ele>
        <time>2015-02-22T13:31:03Z</time>
      </trkpt>
      <trkpt lat="47.506154514849186" lon="11.107905618846416">
        <ele>712.75</ele>
        <time>2015-02-22T13:31:13Z</time>
      </trkpt>
      <trkpt lat="47.506146216765046" lon="11.107896734029055">
        <ele>713.450000000000045</ele>
        <time>2015-02-22T13:31:30Z</time>
      </trkpt>
      <trkpt lat="47.506158286705613" lon="11.107923220843077">
        <ele>713.279999999999973</ele>
        <time>2015-02-22T13:31:48Z</time>
      </trkpt>
      <trkpt lat="47.506170272827148" lon="11.107913833111525">
        <ele>713.860000000000014</ele>
        <time>2015-02-22T13:32:09Z</time>
      </trkpt>
      <trkpt lat="47.506168177351356" lon="11.107899500057101">
        <ele>714.32000000000005</ele>
        <time>2015-02-22T13:32:27Z</time>
      </trkpt>
      <trkpt lat="47.506127273663878" lon="11.107888016849756">
        <ele>713.970000000000027</ele>
        <time>2015-02-22T13:32:43Z</time>
      </trkpt>
      <trkpt lat="47.506115874275565" lon="11.107881227508187">
        <ele>713.850000000000023</ele>
        <time>2015-02-22T13:32:44Z</time>
      </trkpt>
      <trkpt lat="47.506092991679907" lon="11.107847699895501">
        <ele>713.799999999999955</ele>
        <time>2015-02-22T13:32:47Z</time>
      </trkpt>
      <trkpt lat="47.50592702999711" lon="11.107684252783656">
        <ele>712.289999999999964</ele>
        <time>2015-02-22T13:33:06Z</time>
      </trkpt>
      <trkpt lat="47.505774646997452" lon="11.107609402388334">
        <ele>711.92999999999995</ele>
        <time>2015-02-22T13:33:23Z</time>
      </trkpt>
      <trkpt lat="47.505768779665232" lon="11.107622142881155">
        <ele>711.860000000000014</ele>
        <time>2015-02-22T13:33:24Z</time>
      </trkpt>
      <trkpt lat="47.505765845999122" lon="11.107646534219384">
        <ele>711.299999999999955</ele>
        <time>2015-02-22T13:33:26Z</time>
      </trkpt>
      <trkpt lat="47.505768947303295" lon="11.107657346874475">
        <ele>712.440000000000055</ele>
        <time>2015-02-22T13:33:27Z</time>
      </trkpt>
      <trkpt lat="47.505806246772408" lon="11.107740830630064">
        <ele>713.490000000000009</ele>
        <time>2015-02-22T13:33:35Z</time>
      </trkpt>
      <trkpt lat="47.50569636002183" lon="11.1080152541399">
        <ele>714.07000000000005</ele>
        <time>2015-02-22T13:33:52Z</time>
      </trkpt>
      <trkpt lat="47.505687475204468" lon="11.108025060966611">
        <ele>714.419999999999959</ele>
        <time>2015-02-22T13:33:53Z</time>
      </trkpt>
      <trkpt lat="47.505502738058567" lon="11.108174510300159">
        <ele>716.039999999999964</ele>
        <time>2015-02-22T13:34:10Z</time>
      </trkpt>
      <trkpt lat="47.505478514358401" lon="11.108174761757255">
        <ele>716.309999999999945</ele>
        <time>2015-02-22T13:34:12Z</time>
      </trkpt>
      <trkpt lat="47.505409112200141" lon="11.108176773414016">
        <ele>716.529999999999973</ele>
        <time>2015-02-22T13:34:17Z</time>
      </trkpt>
      <trkpt lat="47.505357312038541" lon="11.108182137832046">
        <ele>716.539999999999964</ele>
        <time>2015-02-22T13:34:21Z</time>
      </trkpt>
      <trkpt lat="47.505243737250566" lon="11.108159758150578">
        <ele>717.960000000000036</ele>
        <time>2015-02-22T13:34:31Z</time>
      </trkpt>
      <trkpt lat="47.50520383939147" lon="11.108131008222699">
        <ele>718.330000000000041</ele>
        <time>2015-02-22T13:34:34Z</time>
      </trkpt>
      <trkpt lat="47.505150195211172" lon="11.108064958825707">
        <ele>718.139999999999986</ele>
        <time>2015-02-22T13:34:41Z</time>
      </trkpt>
      <trkpt lat="47.505050869658589" lon="11.107919868081808">
        <ele>719.610000000000014</ele>
        <time>2015-02-22T13:34:53Z</time>
      </trkpt>
      <trkpt lat="47.504897816106677" lon="11.107775950804353">
        <ele>720.210000000000036</ele>
        <time>2015-02-22T13:35:09Z</time>
      </trkpt>
      <trkpt lat="47.504712240770459" lon="11.107625663280487">
        <ele>720.039999999999964</ele>
        <time>2015-02-22T13:35:26Z</time>
      </trkpt>
      <trkpt lat="47.504510320723057" lon="11.107468754053116">
        <ele>719.860000000000014</ele>
        <time>2015-02-22T13:35:45Z</time>
      </trkpt>
      <trkpt lat="47.504293899983168" lon="11.107310587540269">
        <ele>719.440000000000055</ele>
        <time>2015-02-22T13:36:05Z</time>
      </trkpt>
      <trkpt lat="47.504300521686673" lon="11.107328608632088">
        <ele>719.950000000000045</ele>
        <time>2015-02-22T13:36:19Z</time>
      </trkpt>
      <trkpt lat="47.504301611334085" lon="11.107355430722237">
        <ele>718.330000000000041</ele>
        <time>2015-02-22T13:36:37Z</time>
      </trkpt>
      <trkpt lat="47.504290882498026" lon="11.107363728806376">
        <ele>718.789999999999964</ele>
        <time>2015-02-22T13:37:03Z</time>
      </trkpt>
      <trkpt lat="47.50428325496614" lon="11.107369428500533">
        <ele>718.899999999999977</ele>
        <time>2015-02-22T13:37:27Z</time>
      </trkpt>
    </trkseg>
  </trk>

</gpx>
